GFSNGP_sfc_dewp_000.txt.gz
Dewpoint
33 32 31 31 31 31 31 32 32 32 29 30 31 31 31 32 32 32 31 35 36 33 29 24 24 23 22 24 26 26 24 24 23 27 27 26 25 26 25 23 20 20 21 21
34 33 32 32 32 31 31 31 30 31 32 33 33 31 30 31 31 30 33 36 35 31 25 21 21 21 25 26 29 27 25 23 24 26 25 24 24 24 21 19 18 19 20 21
32 31 32 32 34 31 30 31 32 31 32 32 30 30 30 30 31 35 36 35 38 28 22 20 21 28 29 31 28 26 23 23 24 24 23 23 21 18 16 18 18 18 20 23
33 34 28 28 28 27 28 29 29 29 31 30 29 31 36 37 36 37 32 38 37 28 21 23 30 30 32 25 23 24 22 22 22 22 21 21 18 15 16 16 18 19 23 23
32 32 30 28 27 29 29 28 28 28 29 31 34 37 38 36 35 32 34 37 31 29 30 33 35 36 29 22 20 21 21 21 20 21 20 17 14 15 16 17 19 22 23 23
36 31 28 29 29 27 27 28 30 30 35 37 37 36 37 37 38 40 39 38 34 37 39 39 37 31 22 19 18 20 21 20 20 20 17 14 13 14 16 19 21 24 24 25
32 31 33 31 28 30 30 33 36 37 37 38 37 38 39 40 40 39 38 38 36 36 34 34 30 22 21 18 19 20 21 21 19 17 14 13 14 15 16 22 26 28 28 29
34 32 30 31 27 31 35 40 38 39 39 40 40 41 39 39 39 38 38 36 37 35 32 30 30 25 19 17 18 20 20 19 18 16 13 10 14 16 20 23 27 27 28 29
33 34 36 35 35 37 40 39 39 40 40 39 42 41 40 39 39 38 36 37 34 32 32 30 23 19 18 20 19 20 19 19 17 15 12 12 15 20 21 20 22 24 26 27
37 36 35 37 39 40 40 40 39 41 42 44 41 40 38 39 37 37 37 37 32 30 25 21 20 20 19 21 21 18 19 19 17 13 13 14 16 18 20 21 22 22 24 27
38 39 38 38 38 39 39 40 40 40 42 42 41 39 39 36 37 36 37 33 29 26 22 19 21 20 20 20 21 19 20 18 14 14 17 18 18 20 21 23 23 25 25 26
37 38 39 40 38 37 38 39 40 42 41 42 41 39 36 36 36 36 36 31 28 23 19 19 19 20 21 21 20 21 20 18 18 19 19 19 19 21 22 21 22 23 25 27
37 38 38 37 38 38 39 41 41 40 41 39 38 36 36 36 36 37 34 29 22 20 21 21 21 22 22 25 25 23 23 22 18 19 19 19 20 20 20 23 22 23 25 25
37 38 38 37 38 40 39 35 34 35 38 37 36 36 36 35 34 32 28 23 21 21 21 22 22 23 24 25 25 23 22 19 20 20 21 21 21 21 21 21 22 23 24 25
34 36 37 38 36 29 27 27 28 31 35 36 37 35 36 34 30 27 23 24 26 26 24 24 25 25 24 24 23 21 18 19 22 23 23 22 22 21 21 21 21 21 22 22
36 35 32 26 25 26 27 28 30 33 35 35 35 35 33 29 24 23 24 27 28 27 27 25 25 27 25 23 22 18 16 17 18 21 22 21 21 20 20 21 20 21 21 20
30 26 27 28 27 28 31 34 36 36 36 34 36 35 29 29 28 26 25 27 27 27 27 27 28 25 24 23 20 16 18 18 18 20 20 20 20 19 20 21 20 21 21 22
26 27 27 29 30 32 34 35 35 35 32 30 31 30 28 28 29 28 27 27 26 27 29 28 25 24 23 20 17 19 21 20 21 20 20 21 20 19 20 21 20 20 21 21
25 27 29 31 34 35 35 34 34 32 32 32 31 30 28 27 27 27 27 27 28 29 30 28 25 25 23 18 18 22 23 22 21 19 20 19 20 19 19 21 21 20 20 20
26 28 31 33 33 34 35 34 32 30 28 27 26 28 29 27 24 25 28 28 29 30 30 30 27 27 23 18 19 19 24 24 19 20 21 20 19 19 19 18 19 20 20 20
27 30 35 33 33 30 30 29 30 28 27 26 27 28 25 25 25 25 27 28 33 29 30 27 27 26 22 19 18 26 25 24 23 21 20 20 20 18 18 18 18 19 19 19
27 33 33 32 29 29 27 29 29 27 27 26 25 24 25 28 28 28 28 28 30 26 28 30 28 26 23 20 22 25 23 22 22 22 21 20 20 18 18 17 17 17 18 18
27 31 31 30 30 29 29 30 28 29 28 28 28 28 29 27 27 27 28 30 30 31 30 32 30 24 21 25 26 24 23 21 21 21 21 21 20 18 17 17 17 17 16 15
28 29 30 28 29 28 29 27 27 28 29 30 30 30 29 29 30 29 29 28 29 30 30 32 28 23 21 26 25 24 22 22 21 21 20 15 20 18 18 16 16 17 16 14
33 31 27 28 25 23 27 27 29 30 29 31 31 31 30 31 30 31 31 31 29 30 32 27 24 22 25 26 25 23 22 22 22 21 20 20 18 18 18 17 16 16 15 13
31 29 26 25 24 24 25 28 30 30 29 31 32 33 32 32 32 31 30 30 29 29 30 29 27 24 26 25 24 23 22 21 19 19 19 18 18 17 17 16 15 15 14 13
31 31 28 25 26 27 29 30 32 31 30 29 29 32 31 31 30 30 30 29 30 31 31 30 28 25 26 26 24 22 21 21 19 19 19 19 18 18 17 16 16 15 15 14

GFSNGP_sfc_dewp_003.txt.gz
Dewpoint
33 31 30 30 30 30 29 31 32 32 29 29 30 30 31 31 32 32 33 34 34 36 38 40 33 29 28 27 26 26 27 28 31 29 28 27 27 27 26 26 24 22 21 22
35 33 32 32 30 30 29 29 28 30 29 30 30 31 30 32 32 35 35 34 36 38 40 39 30 27 26 25 27 30 31 31 28 27 26 26 26 26 25 22 20 21 21 21
32 32 34 33 34 32 31 29 29 29 31 29 28 30 32 35 35 35 36 37 37 40 40 37 30 26 24 28 33 37 30 28 27 25 25 25 23 22 21 21 21 21 21 21
33 36 29 28 29 28 28 27 28 28 28 30 32 35 36 37 37 41 41 37 40 40 40 34 31 29 32 37 33 31 30 26 23 23 23 24 23 19 19 20 20 20 21 22
34 32 30 30 28 30 30 29 29 29 32 34 36 37 39 39 41 41 39 41 39 39 38 35 36 38 40 38 31 27 23 21 21 22 23 21 19 19 19 19 20 20 21 24
36 31 28 29 29 30 30 28 34 34 35 38 39 37 39 41 41 40 40 39 37 38 37 39 39 39 35 29 24 23 22 21 22 22 20 18 19 19 19 19 19 24 24 25
33 32 32 32 31 31 30 32 39 38 37 39 37 39 41 42 40 39 38 37 38 37 37 36 36 32 25 25 24 20 21 22 21 19 18 19 18 18 17 20 25 30 30 29
34 32 31 31 31 35 39 41 39 39 39 40 41 41 42 40 39 37 36 37 37 38 35 33 32 30 25 20 18 20 21 21 20 20 19 16 17 16 18 21 27 28 28 28
34 35 38 38 37 39 39 40 41 42 39 41 42 41 41 39 37 35 37 37 38 35 34 33 27 22 19 21 19 21 21 20 21 21 19 16 16 19 20 19 24 26 26 26
38 36 35 36 39 41 40 40 38 40 39 40 40 41 41 39 36 36 37 38 38 35 30 26 23 20 19 21 22 20 21 21 22 21 17 16 17 17 19 22 23 22 24 25
38 38 37 39 40 38 39 39 37 39 39 40 41 39 41 38 34 37 37 38 35 31 28 23 21 20 20 20 22 21 22 22 22 20 19 18 19 19 20 24 25 24 24 26
36 40 41 39 35 35 36 38 39 37 33 32 34 38 38 35 36 36 37 36 33 27 23 20 19 20 21 22 21 23 23 23 24 20 20 20 19 19 23 25 25 24 26 27
40 41 39 36 35 36 38 38 30 28 28 28 34 37 36 37 36 35 34 32 26 23 22 21 21 22 22 28 28 27 26 25 21 21 21 20 20 19 21 25 24 24 26 26
38 38 34 35 35 37 31 27 28 27 28 35 37 36 37 34 33 32 30 25 23 22 22 23 23 22 25 25 28 27 27 23 21 22 22 22 21 22 23 23 23 24 25 26
29 33 36 36 33 27 26 26 28 29 33 36 36 36 36 32 30 27 25 25 26 26 24 24 26 25 26 26 26 25 22 21 24 24 24 23 23 22 21 22 22 23 23 23
34 34 30 28 27 26 25 27 31 34 37 36 36 37 35 32 28 24 25 29 29 26 28 28 28 28 27 26 25 24 19 20 20 22 23 22 21 20 20 21 21 23 22 21
31 29 30 28 26 26 27 31 34 36 36 36 35 35 31 32 31 29 26 30 31 31 31 30 30 27 26 26 24 21 21 21 21 22 21 21 21 20 20 22 21 22 22 23
27 27 26 27 26 30 33 34 35 35 34 32 33 33 32 32 31 32 32 30 30 30 33 33 30 27 26 25 22 23 23 23 23 22 21 22 20 20 21 22 22 21 22 22
27 28 27 26 30 34 35 34 36 34 33 33 32 32 31 31 30 30 29 29 29 31 32 32 28 27 28 24 21 24 25 24 23 21 21 20 21 20 21 21 22 22 21 20
29 30 30 30 32 35 35 36 33 35 31 31 32 32 33 33 28 27 30 30 31 31 33 32 30 29 28 25 22 23 24 23 22 22 22 20 21 21 21 19 19 21 21 21
31 32 34 35 35 35 33 34 33 32 31 30 29 30 28 30 30 29 30 29 33 32 32 30 29 27 25 24 22 26 24 23 22 22 21 21 21 20 20 20 20 20 20 19
32 35 35 34 34 34 34 32 33 32 32 31 29 28 28 32 31 30 31 30 30 31 30 30 31 31 28 23 25 27 24 23 22 22 21 21 20 20 19 19 19 18 19 19
32 33 33 34 33 33 34 33 32 32 32 31 31 31 31 29 28 28 27 31 28 29 29 31 32 29 26 28 30 28 25 23 21 21 20 20 19 19 18 17 18 18 17 16
33 34 32 33 34 32 29 29 31 32 32 32 32 32 30 32 32 32 29 30 30 31 32 32 31 26 25 29 28 28 26 24 23 22 21 16 20 19 18 17 16 17 16 15
36 36 34 33 31 26 28 28 31 31 32 33 32 32 32 31 32 33 31 32 30 31 32 29 26 24 27 27 28 27 26 25 23 23 21 21 19 18 19 17 16 16 15 14
34 34 32 32 29 23 25 28 29 31 31 33 34 32 33 33 30 32 32 32 32 30 32 31 28 27 27 27 27 27 25 25 21 20 20 20 19 18 18 17 16 15 15 14
34 33 34 32 26 27 30 31 34 33 32 31 30 32 31 33 32 31 31 32 32 32 32 32 31 27 27 28 27 26 25 25 22 21 20 20 19 19 18 17 16 16 15 14

GFSNGP_sfc_dewp_006.txt.gz
Dewpoint
33 32 32 32 31 30 29 29 28 29 28 28 29 29 32 34 35 35 35 36 39 39 38 39 40 40 35 32 32 31 29 29 32 36 36 33 32 32 31 31 28 28 25 25
35 34 32 31 32 32 30 29 28 29 28 30 29 32 34 35 36 36 38 39 40 38 38 39 40 39 31 30 30 31 32 38 39 36 33 31 31 31 31 29 27 25 25 25
31 33 33 32 32 31 30 29 29 28 29 30 30 34 36 37 37 39 39 40 39 39 40 40 39 35 32 33 39 39 39 37 35 35 30 30 29 27 28 26 26 25 24 24
32 33 27 28 30 30 30 30 30 28 29 30 33 38 38 39 40 40 41 40 40 40 39 39 36 36 40 40 38 36 36 36 34 29 28 27 28 26 25 24 24 23 24 24
32 32 31 31 30 30 30 30 31 32 36 37 39 40 39 40 43 43 41 40 39 38 39 37 37 40 40 40 39 38 32 27 25 26 26 27 25 23 24 23 22 23 23 25
36 30 27 33 30 32 32 29 38 39 39 41 39 37 39 41 42 41 40 38 36 38 38 38 39 39 37 36 34 27 27 25 24 26 25 23 23 23 22 23 20 25 24 26
34 31 32 33 32 36 32 36 41 41 41 40 39 41 42 41 42 41 39 35 37 37 37 37 37 36 32 26 26 25 24 24 24 24 22 22 23 22 20 21 24 25 26 26
33 32 29 33 35 35 37 41 41 42 42 41 41 40 40 40 41 39 36 36 36 37 36 36 35 36 28 21 19 22 23 24 24 23 22 20 22 20 21 22 24 23 24 24
32 33 36 37 37 40 40 41 42 41 39 40 39 38 39 40 39 39 37 37 36 36 36 36 33 24 21 23 20 23 24 24 24 24 23 20 19 21 22 21 23 23 25 22
35 34 35 37 39 41 41 41 41 41 40 40 37 34 34 37 39 36 36 36 37 36 33 30 27 21 21 23 25 22 24 25 24 24 23 21 20 21 21 22 23 24 22 22
35 37 37 38 40 40 40 40 41 41 40 31 30 29 31 37 35 36 35 36 37 33 32 27 23 22 21 22 25 23 25 25 25 25 23 21 22 22 23 24 24 23 23 25
35 37 40 39 39 40 39 41 39 33 29 29 30 34 36 36 35 34 34 36 34 32 25 23 20 21 22 24 26 26 25 26 26 24 23 23 22 22 24 25 25 26 25 27
37 37 37 38 36 38 39 39 30 28 30 34 36 35 35 35 34 33 33 37 33 24 23 23 23 23 27 29 28 27 26 26 24 23 23 22 22 21 20 23 25 25 25 26
36 37 37 36 37 36 33 28 29 29 33 34 35 35 35 35 36 35 34 25 24 24 24 25 24 25 27 27 28 26 27 24 25 23 23 23 22 22 22 21 21 22 25 23
34 35 34 31 29 27 26 27 28 31 33 33 35 37 36 36 36 29 27 27 28 28 28 27 26 27 28 28 27 26 26 25 24 24 24 23 23 22 22 21 22 22 23 21
33 29 28 27 26 26 26 27 29 32 34 34 35 34 34 32 30 27 27 29 28 28 29 26 26 29 28 27 26 26 25 22 20 23 23 23 22 21 20 21 22 22 21 20
31 30 30 29 26 27 27 28 33 33 33 34 33 31 29 30 30 30 30 29 28 28 28 27 29 29 28 27 26 24 25 24 21 24 23 22 22 20 21 21 22 22 22 22
25 25 25 27 27 28 31 34 34 34 34 32 30 27 27 27 28 28 29 28 27 27 28 29 28 28 27 27 24 25 26 25 24 23 24 23 21 22 21 20 20 21 21 21
25 24 24 25 29 33 34 36 34 34 32 30 28 26 27 28 28 28 27 26 26 27 30 29 29 26 27 27 22 25 27 26 25 23 23 19 22 21 20 21 20 21 21 19
26 24 28 29 32 33 33 34 34 32 32 29 27 27 30 31 28 26 26 27 28 30 30 29 28 28 28 27 22 24 27 25 24 23 23 22 23 19 19 18 20 19 19 19
31 32 32 33 33 33 33 32 30 29 31 29 27 28 27 28 28 29 28 26 31 31 30 30 30 30 29 28 23 28 26 25 25 24 23 21 21 19 21 19 20 19 18 18
30 31 32 33 33 32 33 31 32 31 30 30 28 27 28 29 30 28 27 28 27 30 30 28 29 31 31 27 28 28 27 26 24 24 23 21 19 18 18 19 19 19 18 18
30 32 32 33 33 33 33 33 32 32 30 30 30 30 29 29 29 27 26 29 27 28 28 28 31 31 27 28 29 29 27 26 24 24 22 22 19 16 18 17 18 17 15 16
31 32 33 35 34 32 31 32 31 31 31 31 31 29 29 31 30 33 32 28 29 31 30 31 29 28 25 28 28 28 28 27 26 25 23 11 18 17 18 18 16 17 16 14
32 34 34 33 33 32 32 30 31 31 30 31 31 31 31 31 29 30 30 30 31 30 30 30 27 26 25 27 28 28 28 27 26 25 24 21 18 16 19 18 16 15 14 14
33 33 32 34 33 34 30 29 30 32 32 33 33 32 31 31 32 32 32 31 31 30 30 31 31 29 28 28 28 28 27 26 24 22 21 20 18 15 16 16 16 16 15 13
32 32 32 32 33 33 32 33 34 34 32 32 30 31 31 31 32 30 30 31 30 28 31 32 31 30 29 29 29 28 27 26 23 24 23 22 19 17 16 15 16 15 14 12

GFSNGP_sfc_dewp_012.txt.gz
Dewpoint
33 34 34 34 33 34 32 30 29 29 29 30 36 37 38 38 39 39 39 40 39 40 40 41 40 40 38 35 38 38 37 38 37 36 34 33 32 32 33 31 30 30 29 27
32 35 35 34 34 33 33 32 31 31 29 38 38 39 39 39 39 39 40 40 39 40 41 41 39 39 36 37 39 39 38 38 38 39 38 38 37 36 33 32 29 26 25 25
28 33 32 29 30 31 30 31 30 28 32 38 38 39 39 39 39 39 41 40 39 41 41 40 38 36 37 39 40 39 39 39 39 40 38 37 37 34 31 27 24 23 22 23
29 31 25 30 32 31 30 31 32 37 38 39 39 39 40 41 40 41 40 39 39 41 40 38 37 37 38 39 39 38 38 38 38 37 37 34 29 25 23 22 21 21 22 23
25 28 29 31 31 31 31 32 38 38 38 38 39 40 36 39 41 41 39 41 41 41 38 37 36 37 38 37 37 39 39 36 29 27 25 24 22 21 21 21 21 20 22 23
29 27 23 26 30 38 38 28 39 38 38 36 38 36 37 41 37 37 40 42 41 37 37 36 36 37 36 32 29 28 25 25 25 25 23 22 22 21 21 19 20 23 24 24
20 24 25 30 32 36 21 25 37 37 37 38 39 40 41 39 34 37 39 37 37 36 36 36 36 36 34 22 23 25 26 26 25 24 23 23 21 20 19 20 22 18 18 21
26 26 24 34 34 30 32 36 36 37 40 40 40 39 38 36 35 38 36 36 36 35 36 36 35 35 24 20 22 25 25 25 25 25 23 20 20 20 20 21 19 13 13 17
28 27 32 35 35 36 37 37 38 41 42 39 38 38 36 35 36 36 36 35 35 35 37 36 34 29 22 23 24 25 25 25 25 25 23 21 20 21 21 20 18 16 18 19
32 32 33 35 36 37 38 40 42 41 39 39 37 36 36 34 32 33 34 33 33 36 36 34 33 23 23 26 25 25 25 25 26 25 23 22 22 22 20 18 17 21 20 20
35 36 36 36 37 40 42 39 39 38 39 36 36 35 34 33 33 33 33 34 36 35 33 26 24 24 26 26 26 25 25 26 25 24 22 22 22 22 22 21 19 18 19 25
34 36 37 37 39 41 38 37 37 33 33 36 34 32 33 33 34 35 35 34 33 28 26 25 25 26 27 27 26 25 25 24 23 22 21 20 20 21 24 24 23 23 25 24
39 41 40 40 37 36 35 33 32 32 34 33 32 33 34 33 34 35 32 28 28 27 26 25 26 26 27 25 25 24 22 24 22 22 21 20 19 19 14 18 21 23 24 22
39 40 38 37 35 35 33 32 31 34 34 33 34 34 33 34 34 33 32 29 25 25 27 26 24 25 27 27 25 18 16 19 21 20 18 18 11 13 12 10 8 13 20 20
36 37 37 30 30 30 29 29 29 30 33 32 33 32 32 31 31 30 28 27 25 26 26 26 24 25 27 26 25 25 24 20 14 16 16 15 12 13 10 8 10 11 12 18
30 30 30 30 29 27 26 27 29 31 32 32 31 30 30 31 28 27 28 27 25 25 25 20 20 25 27 25 25 22 23 22 20 20 17 18 16 11 12 9 9 11 11 17
31 30 28 27 25 23 24 27 30 30 31 30 29 27 27 23 25 25 25 24 21 21 21 20 22 27 26 26 25 22 19 24 23 18 15 17 11 9 9 6 5 7 13 16
30 29 24 25 25 26 27 28 29 29 29 29 25 25 26 24 23 23 23 21 20 17 27 27 25 27 24 27 27 23 17 20 21 17 16 12 10 12 5 5 5 5 14 15
27 27 27 27 28 28 28 29 28 28 27 28 30 28 27 22 24 24 20 17 24 21 27 23 26 27 26 27 27 19 14 16 17 17 13 10 5 6 5 2 3 5 10 13
29 30 30 29 28 27 27 27 26 26 28 30 30 25 24 25 26 21 26 20 25 28 23 25 26 25 23 26 27 21 14 15 16 15 9 8 5 5 4 5 10 7 6 10
26 27 27 26 26 25 23 25 22 30 31 23 27 28 25 24 21 27 18 23 23 25 25 26 25 26 27 26 21 17 15 20 13 13 8 7 3 1 -2 2 10 7 6 7
27 26 24 24 23 25 26 24 28 30 30 29 29 27 24 23 20 19 20 24 26 26 26 25 26 27 27 25 25 25 25 24 17 9 11 5 4 2 -2 2 7 6 5 5
27 27 26 24 25 26 26 30 32 31 31 30 29 27 25 25 23 19 20 24 26 26 26 26 27 27 25 25 25 26 26 25 15 13 12 10 5 1 -2 4 7 6 5 6
26 26 26 26 25 28 26 30 29 30 32 30 29 27 28 22 25 25 27 26 27 27 27 27 27 27 25 25 25 26 26 21 13 14 16 14 9 3 -0 4 7 5 5 5
27 26 26 25 25 28 30 31 31 30 28 28 29 29 28 27 24 19 15 20 26 27 26 26 27 27 26 25 25 25 26 17 16 12 13 11 12 7 2 3 5 6 5 4
27 27 28 28 28 30 30 32 31 29 28 27 26 29 30 28 28 25 24 25 24 25 26 27 27 28 27 26 26 26 26 19 15 12 12 11 13 9 8 0 0 5 6 3
28 25 28 29 28 30 31 32 29 28 29 29 29 31 29 28 27 25 25 26 26 25 26 26 26 26 26 24 27 26 21 19 16 16 14 11 11 11 10 6 5 7 6 4

GFSNGP_sfc_dewp_015.txt.gz
Dewpoint
32 32 33 33 33 34 33 32 30 30 30 31 35 37 38 39 39 39 39 39 40 40 39 41 41 40 39 36 37 39 38 36 36 36 35 36 37 37 36 36 35 31 28 26
30 34 35 33 34 34 34 33 32 31 29 34 38 39 39 40 39 39 39 40 41 40 39 41 41 39 37 37 38 40 39 38 39 40 40 39 39 36 36 35 30 26 24 24
24 32 31 24 29 32 31 30 30 28 30 38 38 39 38 38 39 39 39 39 36 38 39 41 41 38 37 37 39 39 38 38 40 40 38 37 37 36 33 27 23 22 22 23
28 30 23 27 31 30 30 30 31 34 37 38 39 38 38 40 39 39 36 33 34 36 41 41 38 37 37 38 38 38 38 37 37 37 37 33 27 24 22 22 21 21 21 23
29 28 27 29 29 30 29 29 36 37 37 36 36 37 36 40 39 37 36 34 37 40 37 37 36 37 37 36 32 36 34 27 26 27 25 23 21 21 21 20 20 20 22 24
28 26 23 26 28 36 37 29 37 38 36 36 36 34 37 39 36 36 36 38 37 36 36 36 36 36 35 29 25 25 25 25 25 24 23 22 22 20 20 20 20 24 23 23
26 27 26 29 30 33 24 26 36 38 37 36 36 40 40 38 37 36 37 36 36 35 35 36 36 37 37 27 24 24 26 25 25 25 24 22 21 20 20 21 22 19 17 19
26 25 22 32 34 30 33 34 36 36 37 38 39 38 37 37 36 36 35 35 34 34 34 36 36 34 33 25 23 25 25 25 25 25 22 21 21 21 21 21 19 13 12 16
28 28 32 33 35 36 37 37 36 38 40 41 38 35 37 35 35 32 33 34 34 33 37 37 34 31 23 23 24 25 25 24 25 25 23 21 21 21 21 19 18 15 17 18
32 32 32 36 37 37 38 39 40 40 38 35 34 35 36 34 32 32 32 32 35 33 32 29 26 24 25 27 27 25 25 26 26 24 23 22 22 22 21 19 18 21 20 19
35 37 37 37 39 40 42 41 38 37 37 36 35 35 34 32 32 32 33 35 34 34 29 30 30 27 26 26 26 25 25 25 24 24 23 21 21 21 23 22 18 16 16 21
34 37 38 38 42 43 37 37 36 35 33 33 35 34 31 32 32 33 34 33 32 30 29 27 25 26 27 27 26 25 24 23 22 21 21 20 19 20 23 22 23 23 24 23
39 39 41 42 38 38 35 35 35 34 33 32 33 32 32 32 32 34 34 31 28 27 26 26 25 24 26 24 23 21 20 23 22 22 21 19 18 18 13 16 21 22 22 21
41 41 39 36 36 37 35 34 36 33 32 34 33 33 33 32 32 32 31 30 27 24 25 27 24 24 27 26 24 16 14 16 15 15 15 17 15 15 9 9 7 11 18 19
37 37 35 35 32 28 27 27 28 29 30 32 33 32 31 30 30 29 28 27 27 26 23 25 23 25 26 26 25 23 23 17 12 12 12 14 16 12 9 9 7 10 11 14
30 29 29 25 26 27 27 23 24 26 28 30 30 30 30 30 30 29 26 25 25 24 25 18 17 23 26 26 25 22 22 20 21 18 13 14 14 9 11 7 9 8 9 10
30 32 30 27 28 27 24 24 26 28 29 29 29 26 27 24 26 26 24 22 16 14 22 26 24 27 26 27 27 26 21 20 23 20 17 14 9 9 7 6 3 5 6 9
32 32 29 25 24 26 27 28 28 29 29 28 29 29 27 26 27 25 22 20 16 15 25 25 25 25 22 28 28 25 18 16 19 16 13 9 8 8 5 6 4 4 3 11
28 27 28 28 30 30 29 28 27 27 25 23 28 30 30 30 25 23 20 17 19 21 24 21 25 24 26 25 26 26 17 15 16 15 14 10 5 6 3 -0 3 3 3 8
25 27 29 29 29 26 27 26 25 26 26 29 30 30 30 28 26 26 20 21 22 24 22 25 25 24 24 25 25 25 15 13 15 15 9 6 -0 -1 -2 1 7 5 1 4
24 25 25 25 25 24 22 23 22 23 28 31 30 29 29 28 25 22 21 24 22 20 23 25 25 25 27 26 25 23 20 21 21 11 11 7 -1 -1 -2 -6 -2 1 1 3
25 25 24 23 23 24 24 23 23 23 29 31 31 30 28 27 24 23 25 26 25 25 25 25 25 26 26 25 25 25 24 24 22 11 9 8 1 -3 -4 -7 -3 0 0 2
26 26 26 24 23 25 25 24 25 27 32 31 32 30 28 27 26 24 21 22 24 26 26 26 26 27 26 24 24 25 25 24 19 14 14 12 10 -1 -4 -3 -4 -0 -0 3
27 27 27 27 25 23 23 27 27 27 26 31 32 29 27 25 25 24 27 26 25 26 27 27 27 26 23 24 24 24 25 24 14 14 13 12 11 6 -4 -6 -2 -3 -1 1
26 26 26 25 25 27 28 28 28 31 31 27 28 28 28 27 25 21 17 16 20 26 25 25 26 27 27 25 23 24 24 24 18 13 8 9 11 10 4 -5 -4 -5 -2 2
27 27 28 28 29 29 30 30 30 31 28 26 26 27 28 27 27 26 25 21 23 24 25 26 26 25 25 17 16 21 23 19 16 15 13 12 12 11 8 -1 -4 -0 1 4
27 23 28 29 29 30 31 32 31 30 24 28 26 27 29 28 28 26 25 25 25 25 24 25 25 25 23 12 13 17 19 19 18 16 15 14 14 14 12 8 2 1 4 4

GFSNGP_sfc_dewp_018.txt.gz
Dewpoint
31 31 32 33 33 33 32 31 30 29 29 31 33 36 38 39 39 40 39 39 40 40 37 37 39 41 41 39 37 38 39 38 36 36 39 39 38 37 37 37 35 31 27 26
30 32 33 31 33 34 34 33 33 33 33 33 37 39 38 39 39 39 39 40 35 33 30 32 38 41 39 37 37 39 38 37 38 40 39 37 37 37 36 36 35 26 24 24
22 30 29 21 25 30 31 32 29 27 28 36 36 36 36 38 38 38 38 35 33 32 35 40 40 38 37 37 37 38 37 38 39 39 37 38 38 36 34 26 23 22 22 23
24 25 19 26 30 30 30 30 30 30 34 37 37 36 38 37 36 37 35 35 34 38 37 36 36 35 36 37 35 34 36 34 34 33 34 30 25 23 22 22 21 20 21 23
29 26 27 29 28 29 29 27 32 33 36 36 35 36 34 38 36 35 35 35 37 35 35 34 35 35 35 33 30 30 30 27 26 26 24 23 23 22 21 20 20 21 23 24
28 26 22 26 27 37 35 27 34 37 36 35 36 34 36 38 37 35 36 37 36 35 35 34 35 35 37 35 25 26 25 25 25 24 24 23 21 21 20 20 21 24 23 22
29 28 29 30 30 32 24 27 35 38 37 36 36 38 38 37 37 37 35 35 35 34 33 34 35 37 36 35 26 25 25 25 25 25 23 21 21 21 21 21 22 19 16 19
25 25 21 30 32 28 32 35 35 36 37 39 39 37 35 35 37 35 32 32 33 33 32 35 35 32 28 27 23 25 25 25 25 25 24 21 21 21 21 20 19 13 11 15
29 27 32 32 35 35 37 37 37 38 39 38 35 34 32 34 35 33 32 32 33 32 33 31 25 25 26 26 26 25 25 25 26 25 23 22 21 21 21 20 18 15 16 18
32 32 33 37 38 38 38 38 41 41 38 36 34 33 33 34 34 31 31 31 34 33 31 30 29 30 27 26 26 24 24 25 25 24 23 22 21 21 21 19 17 20 19 18
35 37 38 38 39 41 42 39 38 38 37 35 34 33 33 34 31 30 31 33 34 32 31 30 29 27 25 26 25 25 24 24 23 24 23 23 21 21 22 21 18 18 16 17
34 36 38 40 41 39 36 35 32 34 34 34 34 33 34 32 31 31 31 33 32 31 30 28 25 25 26 26 25 25 25 24 22 21 20 19 18 20 22 21 22 21 22 21
38 40 40 39 37 35 32 32 33 34 34 33 32 33 32 31 31 32 33 32 31 30 28 24 25 23 23 23 22 20 19 22 19 20 19 18 18 18 16 16 21 20 21 21
41 40 37 37 36 35 34 32 29 27 28 30 32 32 32 32 32 30 30 30 29 26 26 25 25 24 25 26 23 15 13 15 14 14 13 14 10 15 12 10 8 10 16 19
29 32 35 33 28 23 23 23 23 23 24 27 29 30 30 30 30 30 30 29 27 27 26 25 23 24 25 26 24 23 22 17 11 9 9 10 10 11 9 6 5 7 9 14
32 29 28 27 25 25 25 25 22 23 25 26 28 29 29 29 30 30 30 27 25 24 25 17 23 23 25 28 25 23 24 19 16 15 11 12 10 8 10 8 8 6 9 10
30 30 29 28 28 26 25 25 25 25 26 27 27 25 28 28 27 28 27 26 17 20 18 26 26 27 25 26 25 24 21 20 16 16 15 12 10 7 8 8 8 5 7 0
30 29 29 30 27 26 27 28 28 27 26 26 23 27 30 30 28 28 30 19 17 16 24 26 25 25 21 25 25 26 24 20 17 15 13 9 9 6 4 4 5 2 3 4
26 26 26 26 28 28 28 28 27 27 24 23 19 27 30 30 28 28 23 21 23 20 25 22 24 24 22 24 25 24 24 17 15 15 12 7 3 2 -1 -4 2 -1 -1 4
24 24 25 25 25 24 25 25 24 25 25 23 23 28 30 30 28 25 25 24 25 25 23 22 24 24 22 26 26 24 19 11 11 10 4 5 -1 -3 -5 -1 1 0 -6 -1
25 25 25 24 24 24 23 23 22 22 24 22 24 29 30 29 26 26 24 24 26 22 23 23 24 24 26 26 25 25 23 22 20 12 4 3 3 1 -5 -10 -9 -6 -6 -3
26 25 23 22 22 23 25 23 23 22 22 23 25 30 31 30 26 25 26 26 26 24 25 24 25 23 25 25 24 24 24 24 23 13 8 5 5 5 -0 -9 -8 -7 -7 -4
26 26 26 23 23 26 26 25 24 23 23 25 28 32 30 30 26 22 21 25 25 23 23 25 25 25 27 25 23 24 24 24 22 14 10 10 10 9 5 -1 -8 -8 -6 -2
27 27 26 26 24 22 24 27 26 27 29 30 30 31 28 21 17 21 23 22 25 21 18 25 26 25 25 23 24 24 23 23 19 12 13 12 6 6 7 0 -6 -9 -8 -6
25 25 25 23 25 27 27 28 29 30 30 30 27 23 24 23 21 19 17 23 24 19 21 25 26 26 25 25 21 21 23 22 19 16 15 14 14 8 7 8 5 -4 -5 -4
26 26 27 27 28 28 28 28 30 31 31 27 18 19 23 20 20 22 25 25 19 19 24 23 23 24 23 20 14 13 17 19 17 17 15 14 15 11 10 8 5 5 1 3
25 21 25 27 28 27 26 30 31 31 32 27 23 20 27 25 26 26 25 25 24 24 18 16 21 20 23 23 20 10 12 18 18 17 15 16 14 15 12 12 9 7 3 3

GFSNGP_sfc_dewp_021.txt.gz
Dewpoint
32 32 32 32 32 32 32 32 31 29 29 30 32 34 37 37 39 39 38 40 39 35 32 35 39 38 36 37 38 38 39 39 38 38 39 38 37 38 37 36 36 37 34 27
32 33 32 31 31 32 33 33 33 33 33 35 35 39 37 37 37 38 39 38 35 33 37 36 32 33 35 36 38 39 37 38 39 40 40 39 39 38 37 38 36 27 25 24
27 30 29 27 26 30 31 33 32 28 29 35 37 36 35 36 38 38 37 35 34 36 34 32 34 35 36 37 37 35 36 37 37 36 35 35 32 26 25 25 25 24 23 23
31 28 24 27 30 31 30 30 31 30 31 33 37 36 36 38 38 36 35 34 36 34 32 33 34 35 37 37 34 33 32 33 29 28 26 26 25 25 25 23 23 22 23 23
29 27 28 29 28 29 30 28 31 32 36 36 36 37 37 38 37 36 35 36 35 33 34 34 33 36 36 37 33 28 28 26 25 25 25 25 23 23 23 22 22 22 22 22
31 28 25 30 28 37 34 28 33 37 36 36 37 35 38 36 37 34 36 35 32 33 34 33 33 35 35 35 34 28 27 27 26 26 25 23 23 23 22 22 21 23 21 21
30 28 30 32 32 32 28 30 37 39 37 37 37 38 36 38 36 35 37 32 32 33 33 33 33 32 30 29 32 25 28 26 25 25 25 24 22 22 21 21 23 26 25 25
28 28 25 31 33 32 34 37 37 38 38 39 37 37 36 32 33 34 35 31 31 33 33 33 27 26 25 25 26 27 25 25 25 25 23 21 21 20 20 22 24 25 25 25
30 32 34 33 35 37 37 38 39 39 37 35 35 32 32 32 32 33 35 31 31 33 34 32 30 28 29 29 28 26 25 25 24 24 22 22 21 21 21 21 22 23 23 22
33 35 35 37 39 41 42 40 39 38 37 37 29 32 33 32 32 33 34 30 31 33 34 32 32 30 30 27 26 25 24 24 24 24 24 24 23 21 22 23 22 21 21 21
36 37 38 38 42 40 37 36 33 31 30 31 33 32 33 32 32 33 32 31 32 34 34 32 32 29 26 26 27 25 25 24 24 24 24 25 22 23 23 24 23 22 21 21
35 38 40 39 39 38 35 32 30 31 33 33 30 29 32 30 31 31 31 32 32 34 33 32 29 26 26 26 26 26 24 24 25 25 25 23 22 22 23 23 23 21 20 21
39 42 40 38 37 36 31 32 29 29 25 23 24 29 30 30 30 31 32 32 32 32 32 29 25 26 26 27 28 27 26 26 25 24 24 23 22 22 20 21 20 20 20 19
37 39 37 37 35 34 27 25 25 23 23 24 26 28 30 30 30 31 31 31 31 31 29 26 26 24 25 27 27 25 25 22 25 25 25 24 24 23 21 20 19 19 18 18
28 30 30 29 27 26 26 25 25 25 24 25 25 27 28 29 30 31 31 30 31 31 30 27 25 25 26 27 26 26 26 26 26 26 26 24 24 23 22 21 19 18 17 17
30 28 27 25 25 26 26 26 25 26 26 26 27 27 27 29 29 30 29 30 29 29 30 26 26 27 27 28 27 26 26 25 24 26 26 25 23 22 20 20 19 18 17 16
28 24 25 25 26 28 26 26 26 26 28 29 28 28 27 28 29 30 29 30 30 29 26 27 28 27 27 28 27 27 27 26 24 25 25 24 23 22 20 20 19 18 17 16
28 28 28 28 26 26 26 28 28 28 28 28 27 25 23 25 28 30 30 30 27 24 26 28 28 26 26 26 27 26 25 25 25 25 25 24 23 21 20 19 18 17 17 16
25 24 25 25 26 27 27 27 27 27 27 27 26 25 25 26 28 31 31 28 26 26 28 28 27 26 24 26 27 27 26 26 25 24 24 22 23 21 20 20 19 18 17 16
25 25 26 26 26 26 26 27 26 26 27 27 25 25 25 26 28 30 31 28 28 29 28 26 25 26 26 27 26 25 26 25 24 24 25 23 23 22 21 16 16 18 18 17
25 26 26 26 26 26 24 25 24 25 27 26 25 25 26 27 31 32 28 26 29 28 27 25 26 25 26 27 25 26 26 26 26 26 25 24 23 22 21 20 19 18 18 18
26 26 25 25 25 26 27 27 27 26 25 25 27 28 28 30 31 30 27 28 30 25 27 27 26 26 27 28 27 27 26 26 27 27 25 25 23 22 22 20 18 19 19 18
26 27 27 26 25 27 27 27 26 26 26 28 30 30 30 30 30 28 27 28 28 28 27 29 27 27 28 30 30 28 28 27 27 27 26 25 24 23 22 21 20 18 18 18
27 27 28 28 26 25 26 28 29 29 29 31 31 32 30 29 29 28 28 23 23 25 28 28 29 27 28 30 29 28 27 27 27 27 26 22 24 23 21 20 18 19 16 14
27 27 27 25 27 28 28 28 29 28 29 32 32 30 28 29 30 29 28 28 26 27 28 26 27 27 30 29 28 26 26 26 26 26 26 26 25 24 23 21 19 18 17 16
28 28 28 28 28 28 28 28 28 28 31 32 32 30 30 30 28 26 26 27 27 25 28 29 28 29 28 27 26 25 24 24 25 24 23 24 25 24 23 21 20 18 17 17
27 23 27 27 28 28 27 28 29 29 32 32 31 31 29 32 30 29 27 28 28 28 28 28 28 27 27 27 27 25 23 23 21 21 23 24 24 24 23 22 22 20 18 15

GFSNGP_sfc_dewp_024.txt.gz
Dewpoint
28 27 27 28 28 27 28 30 29 29 24 26 28 30 33 35 36 35 36 37 38 35 32 34 30 28 30 33 34 36 35 34 35 39 39 40 39 37 37 36 34 33 32 29
32 30 29 29 28 28 29 30 29 29 29 30 31 33 35 35 35 36 36 37 36 32 33 30 28 29 32 33 34 35 34 33 34 36 36 36 36 34 31 28 26 26 26 26
33 30 31 33 29 26 29 29 30 29 28 30 31 34 36 36 36 37 38 36 32 32 32 30 30 30 32 34 34 34 32 31 31 30 29 29 26 25 26 27 26 25 25 25
35 34 29 28 29 29 29 29 28 28 29 33 34 35 36 37 38 38 34 31 31 33 31 30 29 28 32 31 32 33 31 30 28 28 26 26 26 26 26 25 25 25 25 24
32 30 27 27 27 28 28 29 31 31 33 34 36 38 37 39 37 36 33 33 34 32 31 31 28 28 30 30 28 31 30 30 30 28 26 25 26 25 24 24 24 23 23 23
32 30 27 28 29 34 34 28 34 36 37 37 39 36 40 37 34 35 36 31 34 32 31 30 28 29 28 25 25 27 28 28 27 27 26 25 24 24 23 23 22 24 24 25
33 32 31 30 32 33 30 33 37 37 39 39 39 38 37 35 34 31 29 31 32 32 31 29 30 28 26 24 22 24 26 27 26 26 25 23 23 23 22 22 25 30 31 27
33 31 29 31 32 33 37 39 38 40 40 39 36 34 32 31 28 26 23 22 27 31 30 29 30 28 25 24 23 26 27 27 26 25 22 20 23 22 22 23 25 30 28 28
31 32 34 35 35 37 40 41 41 38 36 35 32 31 29 26 25 24 26 27 29 28 29 30 31 29 27 26 27 27 27 25 25 23 23 23 23 23 23 22 24 25 25 24
36 33 34 37 39 42 41 39 39 38 37 35 30 26 26 22 22 24 24 25 25 26 26 28 30 30 29 29 28 26 26 25 24 23 24 24 23 22 22 23 24 21 22 22
36 36 38 38 41 39 37 37 34 29 27 28 27 24 20 18 18 20 23 23 25 27 28 28 29 30 29 28 27 26 25 25 24 24 25 24 23 22 23 24 24 23 21 21
37 39 40 40 38 38 34 28 25 25 25 23 20 17 18 19 19 21 23 26 27 27 27 27 27 29 27 26 25 25 25 24 25 27 27 24 23 23 23 23 21 21 20 21
40 41 40 37 37 33 27 25 24 25 23 20 20 21 21 21 20 23 25 26 26 28 28 28 28 29 28 29 29 29 28 27 27 26 25 23 23 22 22 23 20 20 18 18
40 39 37 38 34 28 26 25 25 20 21 22 23 24 24 23 23 23 23 26 30 28 27 27 31 31 30 31 28 31 30 27 28 26 25 25 25 24 23 23 22 22 19 18
32 36 36 30 27 26 22 20 20 18 19 21 20 22 24 25 25 25 27 29 30 28 28 31 31 30 33 28 27 28 27 26 28 27 27 26 26 25 23 22 21 20 19 18
29 27 23 21 17 18 18 18 20 21 21 21 25 27 28 28 28 28 28 31 31 29 29 32 31 31 30 29 27 25 24 26 27 25 26 26 24 23 22 21 21 20 19 18
27 17 17 19 18 20 21 22 23 23 26 27 28 31 30 30 30 30 30 32 35 34 33 31 31 30 29 27 26 25 25 23 25 25 25 24 24 23 22 22 21 20 20 20
20 20 19 21 22 24 24 26 27 27 28 29 31 30 30 30 30 30 31 33 34 33 32 31 31 28 27 25 25 25 24 25 25 25 25 25 24 23 23 22 21 19 20 19
19 20 21 23 26 27 27 27 29 30 31 31 31 30 30 30 31 31 32 32 32 31 30 30 29 28 24 26 26 26 26 26 25 24 25 24 26 24 24 24 22 21 20 19
20 21 24 26 28 30 30 31 32 31 31 31 31 30 30 31 31 31 32 32 32 31 32 29 28 27 28 27 26 23 26 28 25 25 28 26 26 25 25 23 23 22 21 21
24 25 30 32 32 32 31 31 30 30 31 31 30 30 30 31 31 32 32 30 32 32 30 27 27 25 23 25 24 28 29 29 29 28 28 28 27 25 25 24 24 23 22 21
25 31 33 32 31 31 33 33 32 31 31 31 30 31 32 32 33 32 33 29 31 29 29 28 26 27 24 28 26 31 28 27 28 28 27 27 27 26 26 26 24 24 22 21
26 28 29 32 32 30 32 32 32 32 31 31 30 32 32 32 31 29 28 31 31 30 30 32 29 28 28 32 32 31 30 30 29 28 29 29 28 27 26 25 25 24 23 21
27 28 29 30 33 31 32 30 31 31 30 31 32 34 33 32 32 32 32 29 28 31 32 33 31 28 28 32 32 31 29 29 28 27 28 27 28 27 26 25 24 24 23 21
32 31 30 32 30 29 30 29 30 30 29 30 32 34 35 33 32 33 33 33 28 29 32 31 28 28 31 32 31 29 28 26 26 26 26 27 27 28 28 27 25 24 23 22
29 29 28 29 29 30 30 29 28 28 28 31 34 34 34 34 34 33 33 32 32 30 32 33 32 32 32 31 30 28 28 26 24 24 24 25 26 26 26 27 27 25 24 23
30 30 30 30 30 30 30 29 30 30 32 32 32 33 34 34 33 33 32 32 32 32 32 32 32 30 30 30 29 28 27 27 24 24 24 24 24 25 25 26 27 27 24 23

GFSNGP_sfc_dewp_027.txt.gz
Dewpoint
27 24 22 22 23 24 23 25 28 27 25 26 28 30 30 32 34 34 34 35 36 37 36 33 31 29 28 28 30 32 32 31 32 36 36 38 38 37 36 35 28 27 26 25
32 26 22 23 23 24 24 25 25 26 26 29 30 29 30 33 33 34 35 37 38 34 32 32 28 28 27 28 30 32 31 30 31 32 31 32 32 31 29 28 28 25 24 24
34 32 32 34 30 23 24 26 26 28 29 29 29 32 34 36 37 38 40 37 32 31 32 32 29 29 26 26 28 29 30 28 29 30 30 30 29 28 27 27 24 24 24 23
35 34 30 24 25 26 26 26 27 27 28 30 32 36 37 39 38 38 37 33 32 34 33 29 29 29 27 25 25 27 27 27 28 30 30 28 25 24 24 23 24 23 24 23
34 29 26 26 28 29 29 29 30 30 33 33 34 37 36 38 38 36 33 33 34 33 30 30 29 28 26 25 23 23 24 25 26 29 25 24 23 23 23 23 23 22 22 25
35 31 28 27 27 32 31 29 34 35 36 36 37 38 38 37 35 33 34 33 28 27 27 28 28 28 27 25 23 22 22 23 25 25 24 23 23 22 23 22 21 23 26 25
34 33 31 29 31 33 30 34 39 38 40 40 39 39 39 35 34 34 29 25 22 22 25 26 28 27 26 25 23 22 23 25 26 25 23 22 22 22 21 21 24 31 33 29
35 32 29 31 31 34 38 40 41 40 39 39 39 36 34 34 29 26 23 21 22 23 23 23 24 24 23 25 23 24 27 27 26 24 22 19 22 22 21 22 25 33 32 31
34 34 36 35 37 41 41 41 41 38 38 37 36 32 27 26 24 20 18 15 17 19 20 21 22 22 22 27 30 32 28 27 26 25 22 20 22 21 21 21 24 28 27 26
37 33 32 37 40 41 40 40 39 38 36 32 27 28 25 18 15 14 14 15 16 18 19 21 21 19 21 25 31 31 27 28 27 25 23 23 21 21 22 24 25 23 23 23
36 35 37 41 41 40 38 37 35 29 27 27 26 22 19 16 14 14 16 14 16 19 21 20 21 21 22 22 29 28 29 31 27 24 23 26 24 23 23 24 25 23 21 22
37 41 42 40 40 38 35 30 26 26 26 24 21 18 18 18 18 18 18 18 19 19 21 21 22 23 25 31 28 30 32 30 26 26 26 26 25 24 27 25 23 22 20 21
39 40 39 38 37 33 31 27 26 25 21 18 18 18 19 18 19 21 20 21 21 22 25 24 26 26 29 34 32 32 32 27 26 27 27 26 25 25 24 26 27 25 21 19
39 39 37 36 36 33 29 26 25 19 17 17 19 19 18 19 22 22 22 23 24 24 27 27 28 30 34 32 33 34 31 29 28 26 28 27 26 26 26 24 24 24 26 21
38 40 37 35 30 27 21 18 17 17 19 19 19 20 24 24 25 25 26 27 28 29 29 29 31 31 31 30 30 29 29 27 29 29 29 28 28 28 26 25 24 23 22 22
33 29 25 21 18 17 17 18 18 19 19 21 25 27 27 27 28 28 28 30 30 30 31 33 33 31 30 29 28 27 25 27 26 26 28 28 28 26 25 25 23 23 21 22
31 22 21 19 19 19 19 20 21 22 24 26 27 31 30 30 30 28 28 30 33 33 34 33 32 30 28 28 26 25 23 25 27 26 26 28 27 25 25 25 24 23 23 24
22 21 18 19 19 21 23 26 28 27 27 29 32 32 32 31 31 31 32 33 33 34 35 33 31 28 27 26 25 24 25 25 26 27 27 28 27 25 25 25 24 24 23 22
19 18 19 18 22 26 28 27 27 30 33 34 33 32 32 32 33 33 33 33 32 33 33 30 29 28 25 25 25 25 28 28 27 26 28 27 28 28 27 27 26 25 24 22
18 18 20 23 27 30 31 32 35 32 31 32 33 32 32 32 32 33 33 32 33 33 31 28 28 27 26 25 26 23 27 28 27 27 29 28 28 28 28 26 26 25 26 24
26 25 27 34 34 36 34 34 33 32 33 34 32 32 30 30 33 34 32 28 32 33 30 28 28 25 24 25 25 30 30 29 30 29 29 29 29 28 28 28 27 27 26 24
25 30 35 35 34 33 34 35 34 34 34 33 32 30 30 31 34 34 34 31 31 31 30 30 28 27 25 27 25 32 29 29 29 30 30 30 29 28 28 28 27 27 27 25
25 25 29 35 34 32 33 34 34 33 33 33 31 29 30 32 33 31 28 33 31 32 31 34 31 28 28 32 32 32 32 31 30 29 30 32 31 30 29 28 28 27 27 26
27 27 28 30 35 35 33 30 31 33 34 34 32 33 32 32 34 33 34 32 30 30 32 33 32 29 29 32 32 32 32 32 29 29 28 27 31 31 30 29 27 27 26 25
31 30 30 34 32 29 27 28 30 32 32 30 31 32 35 35 33 34 34 34 32 32 34 32 30 29 32 31 32 32 32 30 28 28 26 26 27 28 30 30 29 28 27 26
28 29 29 28 29 29 30 31 31 31 30 30 34 35 34 35 35 35 34 34 34 33 34 33 32 32 32 32 32 32 31 28 27 27 25 25 26 26 27 27 28 29 27 26
29 30 31 30 29 30 32 31 32 32 32 33 33 34 34 34 34 34 33 33 33 33 33 33 33 32 32 32 32 31 31 29 27 26 24 24 25 25 25 26 26 28 29 27

GFSNGP_sfc_dewp_030.txt.gz
Dewpoint
27 23 21 19 18 18 19 24 26 27 23 26 30 30 30 36 36 35 36 38 39 37 36 34 35 34 31 32 30 32 31 33 33 36 35 36 37 37 35 34 32 31 30 28
34 24 23 21 20 24 22 23 22 25 25 29 29 34 36 36 37 36 40 40 39 34 34 34 34 32 31 30 30 31 30 32 32 33 34 35 35 34 34 32 31 29 27 27
35 33 33 35 33 24 23 25 26 28 28 29 33 35 36 36 37 38 38 37 35 34 34 35 35 31 30 30 30 29 28 28 31 32 33 34 31 30 30 30 28 27 27 27
34 35 28 25 25 25 26 26 28 27 28 33 33 35 37 38 38 38 36 35 34 34 35 35 31 30 31 29 29 29 27 26 27 30 29 31 31 28 29 27 27 26 26 28
35 30 27 26 28 29 30 30 30 33 35 36 38 37 36 39 38 37 36 35 35 34 31 27 27 29 29 28 28 27 27 25 25 28 29 29 28 28 26 26 26 25 26 27
36 29 26 30 27 32 31 30 38 38 39 39 38 36 37 38 38 36 35 32 27 26 24 25 25 25 25 24 25 26 28 29 31 30 28 29 28 26 26 26 24 30 28 28
33 32 31 30 31 32 29 34 41 39 39 39 37 38 38 37 35 33 28 24 21 20 19 19 21 22 22 20 20 29 33 32 31 30 29 28 26 25 24 25 27 30 30 30
34 33 28 32 34 36 40 41 41 40 39 37 37 36 35 30 27 24 19 17 16 16 17 19 19 20 19 18 19 28 31 32 33 33 28 26 26 25 25 24 27 26 25 26
35 35 39 39 41 43 43 41 39 38 36 37 34 28 27 25 21 18 16 14 14 14 16 19 20 20 19 21 24 30 34 35 33 30 29 26 25 25 24 24 26 25 26 24
38 34 33 40 42 41 40 40 39 37 35 30 27 27 25 19 17 17 17 17 16 17 18 20 21 21 21 24 27 30 31 33 33 32 30 26 26 25 26 27 25 25 24 22
35 34 37 41 41 40 39 37 34 30 27 26 25 22 19 19 17 17 18 18 19 20 21 20 21 23 24 26 30 30 33 32 32 31 28 28 27 26 27 27 25 24 23 22
38 41 40 41 40 40 38 32 28 26 25 22 19 18 19 19 18 17 20 21 22 22 23 24 24 25 25 30 31 31 31 32 33 32 30 28 27 27 27 27 25 24 23 21
39 41 41 40 39 38 34 28 26 25 21 18 19 19 19 18 20 23 23 23 24 25 26 26 28 28 30 32 33 32 30 29 29 29 28 28 27 27 26 27 28 28 27 24
40 39 38 37 36 35 32 27 25 18 18 20 21 19 20 22 24 24 23 26 27 27 28 28 29 33 33 32 31 33 31 28 30 30 29 28 29 28 27 27 26 26 27 26
39 40 39 37 35 28 23 18 18 18 18 19 19 22 25 25 25 25 27 27 28 28 29 30 30 33 32 30 29 28 30 29 30 27 29 29 29 28 28 27 26 25 25 25
36 32 29 26 21 19 18 18 19 19 20 22 26 30 28 27 28 28 29 28 29 29 30 31 32 33 31 28 28 28 28 27 27 27 28 28 28 28 27 26 25 25 24 24
32 26 23 21 20 19 19 20 23 24 25 29 30 30 31 30 30 29 29 30 31 31 31 31 33 31 29 28 27 26 27 27 26 26 27 28 28 27 27 26 25 25 25 21
26 23 21 20 19 21 24 29 31 30 30 31 30 28 28 28 29 29 30 31 30 30 31 33 30 29 28 28 27 27 27 27 27 27 28 28 28 27 26 26 26 25 25 23
21 19 19 18 21 29 31 31 30 32 30 30 30 30 30 30 30 31 30 30 30 29 31 29 28 28 27 26 25 26 28 28 27 27 28 28 28 27 28 27 27 26 24 24
20 20 21 23 27 32 31 32 31 32 31 30 29 30 29 29 30 30 30 32 32 32 31 28 29 28 27 25 26 26 28 28 27 27 28 28 28 28 29 27 26 27 26 26
31 29 28 32 32 32 32 32 30 32 32 30 30 31 30 30 30 31 31 30 30 31 30 28 28 28 28 26 27 28 29 29 29 28 28 28 28 27 28 28 28 27 27 27
30 30 30 31 32 32 33 33 33 32 31 31 30 32 30 29 29 30 32 31 31 31 31 30 29 29 28 24 26 28 29 29 28 29 28 28 28 28 27 28 27 27 27 24
30 29 29 30 30 32 33 33 32 32 32 32 32 32 30 29 30 30 31 32 33 33 32 32 31 30 28 29 29 29 28 28 28 28 28 28 28 28 27 27 27 25 23 25
30 30 30 31 32 32 32 32 32 32 33 32 33 33 30 29 31 34 35 33 32 32 32 32 31 28 26 29 30 28 28 29 29 29 28 28 28 27 28 28 28 28 23 26
30 31 30 31 31 32 32 31 30 32 31 30 30 30 31 33 33 33 34 34 33 32 32 31 30 30 30 29 29 28 29 29 29 28 28 27 26 27 26 26 27 28 28 25
30 30 30 31 32 31 31 31 32 32 31 30 31 32 33 34 34 34 33 33 33 33 32 32 32 32 31 30 30 30 30 29 28 28 28 27 26 25 26 26 26 26 27 27
31 31 32 32 32 31 33 33 32 31 30 30 29 30 31 32 32 32 32 33 33 33 33 33 33 32 32 31 30 29 29 29 28 27 27 25 25 25 25 25 26 25 25 27

GFSNGP_sfc_dewp_033.txt.gz
Dewpoint
32 27 25 24 23 21 20 22 24 25 26 29 33 36 37 38 37 40 40 39 37 35 34 34 34 35 34 31 30 30 29 30 33 34 34 34 33 34 34 33 31 31 29 28
28 32 30 26 26 28 26 26 26 28 28 34 36 36 37 37 38 38 37 36 35 34 34 34 35 35 31 30 31 31 30 30 32 34 34 34 33 32 32 30 30 27 27 27
27 33 30 25 29 26 27 27 28 26 31 35 36 37 37 38 38 37 36 36 35 34 34 35 35 35 31 30 32 31 31 31 31 33 34 33 32 32 29 28 25 26 25 27
23 27 11 29 29 31 31 31 32 35 37 37 37 37 38 38 37 37 36 36 35 35 34 34 34 32 31 28 31 32 31 30 31 33 32 33 34 30 27 24 23 24 26 26
27 25 27 28 31 31 30 33 38 38 38 38 38 37 38 38 38 37 37 36 35 35 35 31 25 23 23 23 23 23 33 34 34 35 35 35 32 28 24 23 23 25 27 26
21 17 16 28 32 33 33 27 40 39 39 38 36 30 34 38 37 36 36 35 34 23 19 19 20 21 22 20 20 26 28 34 35 36 36 35 34 29 24 24 27 28 27 28
21 18 27 34 34 35 24 28 40 40 39 36 34 35 36 37 36 36 34 20 18 16 16 18 20 21 19 19 21 28 31 33 35 36 34 35 28 23 24 25 27 28 26 27
29 24 22 36 37 29 35 41 39 38 38 37 36 36 36 35 28 23 18 16 16 16 17 17 18 20 20 19 25 30 30 33 36 36 34 28 25 24 24 26 25 19 15 18
30 29 34 38 38 41 41 39 39 38 37 36 35 30 29 27 21 19 18 18 19 18 19 21 21 21 22 24 27 31 33 34 33 33 32 28 24 24 24 24 21 20 19 17
34 35 37 41 41 40 40 39 39 38 36 37 29 29 24 20 18 18 17 18 19 20 21 23 24 24 25 28 32 31 34 33 32 31 30 28 26 25 23 21 19 24 20 15
33 37 40 41 40 39 39 39 36 36 34 29 25 21 21 19 18 19 21 21 23 23 25 25 26 26 27 29 32 31 31 30 31 30 28 26 25 24 25 23 22 18 18 17
30 39 39 39 39 39 37 34 34 29 28 23 21 20 21 19 20 22 23 24 24 25 26 26 27 28 30 32 32 31 29 28 29 29 27 25 23 24 27 26 26 27 27 19
41 41 40 40 39 39 37 35 29 25 24 21 22 21 22 22 24 26 25 25 26 27 27 27 28 29 34 32 33 31 29 29 26 26 25 24 23 24 22 25 28 28 29 28
39 39 37 37 37 38 36 32 25 21 22 22 23 24 25 25 26 26 25 27 28 27 27 27 28 30 31 33 30 29 30 29 29 29 27 26 26 27 26 23 20 19 24 25
40 40 39 39 37 36 33 22 21 21 22 23 26 27 28 28 27 27 28 28 28 28 28 29 28 29 33 32 28 28 28 27 27 26 25 26 27 26 24 25 22 23 21 20
39 37 36 35 25 22 21 22 22 24 25 26 27 27 29 29 29 29 29 29 28 28 29 29 28 30 32 28 28 28 26 25 26 26 26 26 26 22 23 24 23 19 18 16
34 29 28 25 23 22 22 26 27 26 27 27 27 28 28 28 28 28 28 28 26 27 29 29 30 33 30 28 27 26 25 26 24 25 25 26 22 24 23 22 22 19 14 14
28 24 22 23 23 25 27 29 27 27 27 28 25 19 18 17 25 26 28 29 28 28 28 30 26 28 28 26 25 25 23 22 25 26 26 26 25 25 21 15 16 19 20 15
23 23 24 24 29 27 26 26 28 28 24 23 21 21 20 22 28 28 28 28 26 28 29 28 28 26 27 25 23 24 18 22 26 25 26 23 26 25 24 15 19 19 15 13
25 26 26 26 26 25 26 28 26 28 29 26 20 19 23 27 29 28 28 28 28 30 28 28 28 25 25 26 23 24 22 20 24 25 19 23 24 21 18 19 18 16 14 15
26 27 24 25 27 26 25 26 23 27 29 24 22 25 24 30 29 29 28 27 28 26 28 28 28 26 27 24 23 22 21 17 20 26 25 24 25 25 24 20 21 19 23 15
27 25 23 23 26 27 28 28 29 27 25 24 22 22 26 30 29 28 25 27 29 31 30 29 29 29 28 28 25 20 19 15 19 23 24 25 24 16 13 18 24 23 18 15
27 27 27 25 24 28 29 28 26 26 25 23 28 30 31 31 29 27 27 29 32 32 31 31 31 31 29 30 25 20 19 17 19 21 25 26 25 24 15 15 23 25 17 16
28 28 28 29 27 27 27 29 29 30 26 28 31 32 32 29 28 27 31 33 32 32 32 32 31 31 29 25 25 26 22 20 20 22 24 25 26 23 17 15 20 23 24 23
27 27 28 26 28 28 29 30 29 28 29 29 30 30 28 30 31 31 32 32 32 31 32 33 31 30 29 28 28 26 26 24 24 28 27 25 25 24 25 23 20 18 16 19
28 28 29 29 29 30 30 29 26 29 29 29 28 28 29 28 30 30 31 31 31 32 32 33 33 32 31 31 30 30 28 27 26 27 24 25 22 21 21 22 22 23 24 20
29 27 29 29 30 29 29 28 29 28 29 29 28 28 29 29 30 30 29 29 30 31 32 32 33 32 32 32 31 30 29 29 28 27 25 24 22 20 18 21 21 23 22 21

GFSNGP_sfc_dewp_036.txt.gz
Dewpoint
31 29 26 24 23 23 21 21 22 24 28 33 35 36 37 38 39 38 37 36 35 34 34 34 35 35 36 34 32 32 30 30 30 32 34 35 35 34 37 35 33 32 27 28
24 33 31 25 25 28 27 25 26 30 32 36 36 38 38 38 38 37 36 36 35 34 34 34 34 35 36 35 33 33 32 31 32 32 34 34 35 35 34 32 34 27 26 27
18 31 26 23 27 26 27 30 29 25 32 36 36 37 37 37 37 36 36 36 35 34 34 34 34 35 30 29 31 31 31 33 33 33 34 34 34 35 36 36 29 25 27 27
20 21 4 24 31 29 34 36 36 36 37 37 37 37 38 37 36 36 36 35 34 34 34 34 33 26 25 23 24 25 31 32 34 34 33 34 35 35 33 32 28 25 27 26
16 23 20 27 30 30 28 32 38 38 38 38 37 38 36 38 38 36 36 35 35 35 34 27 21 21 22 22 22 28 31 33 34 35 35 36 36 35 35 33 25 27 27 26
27 11 9 23 31 32 31 27 39 39 38 37 35 28 31 37 36 35 35 35 32 26 17 18 18 20 21 20 22 29 31 32 34 35 36 35 34 34 32 25 28 27 27 27
19 15 24 29 34 34 25 26 39 39 38 36 32 33 35 36 34 34 30 17 18 18 17 18 20 21 21 20 25 29 30 32 35 36 35 35 33 27 25 28 27 26 24 25
23 16 20 33 35 28 32 40 39 38 38 36 36 35 35 35 27 20 17 18 19 19 19 20 21 23 22 21 24 30 32 34 33 33 33 32 25 25 26 26 25 17 12 17
29 28 32 37 35 40 41 38 38 37 37 37 34 33 29 22 19 18 18 19 20 20 22 24 25 25 25 25 27 31 33 33 32 32 31 30 25 23 24 23 20 18 18 16
32 33 37 40 40 40 40 38 38 39 38 37 32 28 21 18 17 18 20 21 22 23 24 26 27 27 28 29 31 31 32 31 30 31 30 27 25 25 24 20 19 23 19 14
33 39 40 40 39 39 39 39 38 37 35 31 24 21 19 18 19 22 23 23 24 25 27 27 27 26 28 32 34 34 33 30 28 31 31 28 26 24 25 23 21 18 18 16
32 36 37 37 39 39 38 37 35 34 29 22 21 20 20 21 23 24 24 25 25 27 27 27 26 27 29 34 34 32 31 29 29 27 26 25 25 25 27 26 26 28 28 20
38 41 39 39 39 40 37 35 35 26 23 21 21 23 24 24 25 27 26 26 27 27 28 27 27 28 29 31 33 32 31 31 28 28 26 26 25 26 18 22 27 27 28 27
40 38 36 37 38 40 37 31 26 23 23 24 25 26 26 26 27 26 26 27 28 28 27 28 28 27 28 31 32 29 30 30 28 27 25 23 25 25 25 18 14 16 23 25
39 39 38 38 39 37 31 23 23 23 24 25 26 26 27 27 26 27 28 29 29 29 29 29 28 27 29 33 30 28 28 27 27 25 25 24 25 25 20 24 23 22 16 18
40 38 38 36 32 24 23 24 24 25 25 25 25 25 27 28 28 29 29 29 27 27 27 28 28 30 33 30 28 27 27 24 25 26 25 24 25 18 23 23 24 22 13 13
36 31 26 25 24 25 26 27 26 25 26 26 26 27 27 26 26 28 28 28 28 28 28 29 29 31 30 29 27 27 26 26 25 25 23 24 24 16 19 20 20 16 14 13
28 25 25 25 25 27 27 27 26 26 26 27 24 16 15 16 24 25 27 28 28 27 27 29 29 28 27 27 26 24 20 20 21 21 25 24 23 24 23 14 16 17 17 12
26 26 26 27 26 24 23 23 25 26 22 21 19 20 19 20 25 28 28 28 27 26 26 29 30 28 27 26 24 20 16 14 19 23 23 20 22 23 18 20 17 20 18 16
26 26 24 24 24 23 23 25 23 27 28 25 17 15 21 23 28 29 28 27 26 27 29 29 29 28 27 25 26 26 21 18 18 19 23 20 22 15 15 13 15 16 14 14
25 26 24 25 26 24 22 24 21 25 28 21 19 24 23 22 28 30 28 26 26 24 27 28 27 28 28 27 27 26 24 20 19 18 20 24 21 21 20 18 18 19 20 15
25 25 23 22 24 25 27 27 28 25 24 23 20 16 26 27 25 27 27 25 27 23 31 31 30 30 30 28 28 28 27 21 21 18 16 19 24 21 16 11 11 14 17 16
25 26 26 24 22 26 27 27 25 24 24 23 20 26 26 29 28 28 27 27 29 32 31 31 31 31 30 30 31 30 26 24 22 20 17 19 23 23 19 16 15 15 15 20
27 28 28 28 26 25 25 28 28 29 25 24 26 30 30 24 22 24 26 29 29 28 31 31 31 32 31 31 28 28 28 26 24 23 22 20 25 26 20 19 17 18 18 20
27 27 27 25 27 27 28 29 29 28 26 27 27 28 26 26 23 25 25 26 29 30 30 30 32 32 32 31 29 28 27 27 26 26 25 26 26 25 23 21 20 19 17 19
28 28 28 29 29 29 29 28 27 25 24 22 21 22 21 23 28 28 25 25 24 28 28 28 29 31 31 31 32 31 29 28 28 27 27 28 27 25 23 22 20 20 20 20
29 25 28 29 29 29 27 27 23 25 23 22 22 21 22 22 25 28 21 22 22 20 23 26 26 26 27 29 30 30 30 31 30 29 29 28 27 26 24 21 21 22 22 20

GFSNGP_sfc_dewp_039.txt.gz
Dewpoint
29 29 25 23 21 21 20 21 20 20 26 31 36 36 38 39 39 37 36 35 35 34 34 34 34 35 35 34 32 32 31 31 32 33 33 34 34 35 35 37 35 35 36 31
26 31 30 23 23 24 26 23 23 30 32 36 37 38 37 37 37 35 35 35 35 34 34 33 34 34 30 28 28 29 28 32 33 33 33 34 34 34 34 35 35 37 32 29
15 29 22 15 22 26 26 28 27 30 31 36 36 37 37 36 35 35 35 35 35 34 34 33 31 28 22 23 25 25 29 32 33 33 33 32 32 35 34 34 34 32 28 28
17 19 7 18 28 28 28 33 34 35 35 36 36 37 37 37 34 34 34 34 34 34 30 28 22 19 22 21 23 25 30 32 34 34 34 34 34 33 31 31 30 30 26 25
17 19 17 22 31 33 28 28 37 36 37 37 37 37 36 37 37 34 34 34 34 31 24 18 18 19 21 22 21 28 29 31 31 33 34 34 35 35 35 34 32 26 26 25
25 9 5 18 31 32 30 25 38 38 37 37 36 30 31 37 36 34 33 29 19 17 17 18 19 21 22 21 21 26 29 30 32 35 35 34 34 35 32 25 27 27 26 26
16 14 22 26 32 32 23 20 39 39 38 36 33 33 33 36 34 30 18 18 18 19 19 20 22 24 24 23 24 25 30 32 34 34 33 33 32 26 27 26 27 26 24 24
23 16 18 31 32 27 30 37 39 38 37 36 35 37 35 33 21 18 17 19 20 21 21 23 25 26 25 25 26 27 31 33 32 32 32 31 30 26 27 27 24 19 12 17
28 27 31 33 34 38 39 38 38 38 37 38 36 34 32 20 19 18 19 20 21 22 23 26 26 27 26 27 29 30 33 32 32 31 30 29 24 24 25 24 21 19 17 15
30 30 33 35 39 40 39 38 38 38 38 37 34 29 21 18 17 20 21 22 23 23 25 26 27 27 27 29 33 33 32 33 31 29 30 30 30 27 25 21 18 22 18 15
32 35 38 39 39 38 38 38 38 38 37 35 27 22 19 19 20 22 23 23 24 25 26 27 28 26 27 30 33 31 31 32 31 29 31 28 26 24 25 23 22 18 18 16
30 34 36 35 39 38 37 37 37 35 28 24 22 20 20 21 23 24 24 24 25 26 26 28 27 27 28 29 29 32 30 30 30 28 28 26 26 26 26 26 27 28 28 21
35 39 38 37 38 39 37 36 35 30 23 21 21 22 23 23 25 27 25 25 26 27 28 28 27 28 27 28 29 32 30 30 28 29 27 25 25 24 24 23 27 26 27 26
40 39 37 37 38 39 35 33 27 24 23 24 25 25 25 25 27 25 25 27 28 28 28 28 27 26 29 27 30 31 29 29 29 28 25 24 23 24 25 17 21 16 22 24
38 38 38 39 39 37 24 23 23 23 25 26 26 25 26 26 26 26 28 29 28 27 26 26 26 27 29 32 32 29 29 28 27 23 21 21 20 24 19 22 22 18 14 17
38 38 37 36 28 24 24 25 24 25 25 25 25 25 27 27 27 28 28 28 26 25 26 26 27 28 30 32 30 28 27 26 26 26 23 22 21 18 18 21 21 20 12 12
36 27 26 28 30 30 27 26 26 25 26 25 26 27 26 25 25 27 27 26 28 27 28 28 28 29 28 28 28 27 24 24 25 24 22 22 22 19 17 14 20 15 14 9
30 31 33 34 31 28 27 27 25 25 25 27 24 17 16 17 24 23 25 28 28 28 27 26 28 29 29 27 27 26 21 19 17 15 19 18 22 20 21 14 13 13 15 16
37 36 31 26 25 24 22 22 24 25 23 21 19 21 18 18 23 26 29 26 27 25 26 26 28 30 30 27 26 22 20 17 17 18 19 17 13 20 16 16 16 13 14 14
26 25 26 25 25 23 23 24 24 26 27 24 17 16 21 23 20 21 23 26 27 27 26 26 27 29 29 29 27 26 26 22 19 18 17 20 19 19 15 13 15 13 13 16
26 25 25 25 25 24 22 22 20 25 27 20 19 22 23 22 19 21 23 26 27 24 25 23 29 29 28 26 28 28 25 25 25 22 21 21 20 17 19 18 17 17 17 14
24 24 22 22 23 25 25 25 26 23 23 23 20 18 16 27 25 23 22 26 28 22 26 29 29 29 29 29 28 29 28 27 27 24 21 21 20 19 19 19 18 17 17 17
26 26 26 23 21 26 26 26 24 23 23 23 23 22 23 27 26 28 24 25 25 24 28 29 29 28 29 30 30 30 30 28 26 25 24 23 22 21 21 21 19 17 17 18
27 27 27 27 25 25 25 27 27 28 25 25 24 22 26 29 24 23 25 22 19 20 25 28 28 29 30 31 31 30 30 28 28 27 26 25 24 24 24 24 20 20 19 18
27 27 27 25 27 28 28 28 28 27 27 27 26 27 27 27 25 24 16 21 22 23 23 25 25 27 28 29 29 30 30 29 28 28 27 26 26 26 26 25 24 22 19 18
29 28 28 29 28 28 29 28 27 28 26 24 24 24 23 23 20 20 21 23 21 15 14 16 20 18 19 19 20 22 26 28 30 29 28 28 28 27 27 26 23 21 21 21
27 24 27 26 26 27 27 26 26 27 28 28 28 28 22 20 17 25 19 11 7 6 7 9 12 16 16 16 18 20 22 24 26 29 30 30 28 28 27 25 23 21 20 21

GFSNGP_sfc_dewp_045.txt.gz
Dewpoint
29 29 26 22 21 27 24 24 26 22 23 24 31 36 37 38 37 36 35 34 33 32 33 32 30 28 25 25 25 26 26 27 32 34 34 33 33 35 36 37 37 36 37 35
29 29 27 25 24 23 24 21 23 23 23 25 34 37 38 38 37 35 34 33 32 33 31 29 28 24 22 23 25 27 26 28 32 34 33 33 34 35 36 36 35 34 34 33
25 25 20 24 25 25 24 25 25 23 25 36 36 37 38 38 37 35 33 33 33 33 29 29 23 22 21 23 25 26 26 28 30 33 32 32 33 34 34 35 34 34 32 30
25 22 16 21 26 25 26 27 27 30 32 36 36 38 39 39 37 35 33 33 34 31 27 22 21 22 24 24 25 26 26 27 28 31 31 33 34 33 34 35 36 33 33 28
27 19 17 16 23 29 28 24 31 30 34 36 37 37 37 38 37 34 34 34 32 26 22 21 22 24 25 25 25 25 25 27 28 30 32 33 31 32 33 33 32 32 30 26
24 21 17 20 25 33 30 27 31 35 36 37 37 37 37 38 36 34 34 32 23 19 21 23 23 25 25 25 24 25 28 30 31 32 33 32 32 31 32 28 27 28 26 26
21 27 24 24 28 32 25 26 36 37 37 37 37 39 36 38 36 34 26 18 20 21 21 23 25 26 26 25 24 27 30 31 32 33 34 33 31 30 29 29 29 32 31 27
25 25 25 27 31 32 35 34 36 38 38 39 37 36 37 35 27 20 18 20 21 22 21 24 26 27 25 24 25 29 31 30 29 28 27 31 30 27 27 31 31 29 29 28
29 30 32 31 34 36 36 35 38 39 39 38 37 35 33 25 20 20 20 21 22 21 23 25 25 27 27 26 28 30 30 29 28 28 29 30 28 29 28 28 29 30 28 26
31 30 31 33 35 39 40 39 39 39 39 39 37 34 26 20 19 21 21 22 22 23 23 24 26 28 28 28 29 27 27 28 30 29 29 29 29 28 27 27 26 25 25 26
32 33 34 36 39 38 40 39 39 39 38 37 33 25 23 22 21 21 23 22 23 24 25 25 28 28 28 29 28 25 26 26 27 29 30 29 28 26 25 26 28 27 26 27
33 33 34 34 38 39 39 39 38 35 30 30 30 26 24 22 23 24 24 23 25 26 27 27 28 27 27 27 25 25 27 27 29 29 29 28 26 25 27 29 27 28 28 30
35 39 37 39 39 39 39 38 32 29 28 25 24 24 24 23 25 26 24 25 27 27 27 27 26 25 25 28 29 28 28 29 29 28 29 28 28 25 24 25 26 27 27 28
39 39 38 39 38 35 30 27 27 25 26 30 30 26 25 24 26 25 25 26 28 27 26 26 26 26 27 27 28 30 30 30 29 29 29 28 27 28 26 25 24 25 26 26
38 39 37 30 26 24 25 28 32 33 33 27 25 26 25 25 25 26 26 28 28 27 26 26 27 26 28 29 28 30 30 30 30 30 30 28 29 28 26 25 24 24 25 26
29 27 26 28 31 34 35 35 35 34 30 25 26 26 25 27 27 27 28 29 27 27 27 28 27 28 28 28 29 30 29 30 30 28 28 27 26 26 25 25 24 24 24 25
32 32 33 35 35 35 33 33 31 26 26 27 26 27 28 27 27 27 28 29 29 27 28 28 28 28 28 28 29 29 30 29 28 27 28 27 26 25 25 25 25 24 25 28
35 36 37 36 34 32 27 27 26 25 24 25 27 26 24 24 26 27 27 28 27 27 28 29 29 28 28 28 29 30 31 30 30 29 29 28 27 26 26 25 25 24 25 26
36 36 34 30 28 26 23 22 24 25 26 27 26 26 26 25 26 27 28 25 25 27 29 30 28 28 28 29 29 30 30 28 27 27 28 28 28 27 27 26 26 25 25 25
26 25 25 25 25 25 26 26 26 27 27 26 25 24 26 26 27 25 25 26 28 30 30 29 28 28 28 28 29 29 29 28 28 29 28 28 28 28 28 27 27 28 27 27
26 25 26 26 26 26 25 25 24 26 27 25 24 25 26 27 26 24 25 26 30 28 28 26 27 28 28 29 28 30 30 30 30 30 30 30 29 28 28 28 28 28 28 27
26 26 25 24 25 26 28 28 28 25 25 25 24 23 24 25 27 26 26 28 30 29 28 27 28 28 28 28 27 30 29 29 30 30 30 31 30 29 29 28 28 28 28 28
27 27 28 26 26 27 27 28 26 26 25 25 25 26 27 27 28 28 28 31 29 29 27 28 29 27 20 25 26 26 25 25 26 28 29 30 30 30 30 29 29 29 28 28
29 28 27 27 26 24 22 21 23 24 25 25 25 25 26 25 26 28 31 31 30 28 28 28 24 19 16 21 21 20 20 21 21 21 22 22 26 28 29 29 29 29 29 28
26 24 24 23 21 19 18 18 19 20 21 21 22 23 24 26 27 29 30 31 29 26 28 19 17 16 18 18 17 16 16 15 13 14 14 16 16 17 19 23 29 30 30 29
20 20 20 20 18 16 15 15 15 17 18 17 19 21 23 24 25 27 31 29 27 24 21 18 17 15 14 12 12 11 12 11 10 10 10 12 12 13 14 15 17 19 24 27
17 17 16 14 13 12 12 11 12 12 14 16 15 18 18 21 23 24 26 25 21 18 16 15 13 12 11 10 9 8 8 7 5 5 6 7 8 9 9 11 13 14 14 15

GFSNGP_sfc_dewp_048.txt.gz
Dewpoint
27 26 25 24 23 26 23 21 24 16 13 10 22 30 35 39 39 38 37 37 35 34 33 32 30 28 25 23 25 25 22 21 24 29 30 30 30 32 32 34 33 33 34 34
29 29 27 25 24 23 26 24 22 21 20 20 24 28 35 38 38 37 37 35 34 32 31 29 26 23 21 23 25 25 22 23 24 28 29 31 32 32 33 32 32 33 32 32
25 25 25 33 28 24 22 25 25 23 24 29 31 32 36 38 38 37 36 34 32 31 29 27 24 21 22 23 25 24 23 21 22 25 27 30 30 31 32 33 33 33 33 32
33 27 30 17 23 24 25 25 24 24 27 28 31 34 36 38 38 38 36 34 32 32 28 24 22 22 25 23 23 22 22 22 23 25 27 28 31 31 31 32 33 32 33 33
37 22 18 12 17 19 22 17 24 25 25 33 36 37 38 39 39 39 37 34 33 30 25 21 22 23 23 21 20 20 21 23 25 28 28 30 30 31 31 30 30 29 32 32
33 35 32 18 26 33 30 24 29 30 32 36 37 36 26 40 39 38 34 33 29 23 21 23 23 24 21 18 19 21 23 26 27 28 30 30 31 31 30 29 28 29 28 29
33 37 28 23 28 33 24 24 33 34 35 37 36 36 38 40 39 35 33 27 20 20 21 22 24 23 21 20 20 22 26 28 28 28 28 28 29 31 29 27 30 33 33 32
33 35 31 26 32 31 34 35 35 38 38 40 39 39 40 39 36 31 22 20 21 21 20 22 22 22 19 19 21 25 27 28 28 28 26 25 28 29 28 28 30 33 33 32
32 31 32 32 35 37 36 35 37 38 39 40 40 38 37 34 30 21 20 21 21 21 21 22 22 21 22 23 25 27 28 27 28 28 27 26 28 28 27 27 28 31 31 29
32 28 30 33 33 35 35 38 38 40 40 41 39 37 32 23 19 20 21 22 23 21 19 20 22 23 25 27 28 27 26 26 27 29 29 27 27 26 26 26 26 25 27 27
33 32 32 33 37 39 39 40 40 40 40 40 39 32 23 21 22 23 24 26 22 22 22 21 24 25 26 27 28 26 26 26 26 26 28 28 26 26 25 25 26 26 24 28
36 34 34 36 41 42 41 40 40 37 35 34 30 28 25 25 24 28 30 24 22 22 23 23 24 24 25 25 26 26 26 25 27 28 27 27 26 26 28 28 28 29 28 29
35 40 40 41 41 40 40 38 35 33 31 28 27 26 26 28 29 28 25 24 23 23 25 25 25 25 25 27 29 29 28 28 28 28 27 26 26 26 26 27 28 27 28 28
40 40 40 39 37 35 33 30 32 33 35 35 33 32 30 28 26 25 23 23 25 25 25 25 25 26 27 28 29 30 30 30 30 29 29 29 28 28 26 26 26 27 27 28
38 38 36 32 29 29 32 35 37 35 34 32 30 26 25 24 23 22 24 25 26 26 26 27 26 28 29 31 29 28 28 29 31 32 32 30 30 29 28 27 26 25 25 26
33 32 30 31 32 34 35 36 34 34 31 26 26 26 24 24 24 24 25 27 28 26 27 33 32 30 31 30 29 28 28 29 30 31 31 30 29 28 28 28 27 26 25 25
32 32 34 35 35 34 32 31 30 30 26 27 27 26 27 27 28 27 26 27 34 34 34 34 32 31 30 29 28 28 28 28 29 31 31 30 31 30 29 29 28 28 28 32
34 34 35 33 30 30 27 27 26 24 23 26 31 33 32 31 30 31 33 34 33 33 32 32 34 31 29 29 29 28 30 31 31 32 31 32 31 31 31 29 28 28 30 30
34 34 33 29 25 24 23 24 26 27 32 33 32 33 33 32 30 30 32 32 31 31 31 32 31 30 28 28 29 28 30 30 29 29 29 28 30 30 31 32 32 32 31 30
26 23 24 25 27 28 29 28 33 30 30 31 31 32 32 32 33 32 33 31 31 32 33 32 31 30 29 28 28 27 30 32 29 30 32 31 32 32 32 31 32 32 32 32
25 27 28 28 28 32 32 32 31 28 27 30 28 27 27 29 30 30 30 27 30 35 33 31 31 30 28 27 27 32 32 32 32 32 32 32 32 32 32 32 32 32 32 32
27 30 31 32 31 30 29 25 25 27 26 26 26 27 26 26 27 28 30 29 29 31 33 34 35 31 30 30 28 31 28 27 28 29 31 31 31 31 32 32 31 32 32 32
30 30 29 29 27 23 24 23 25 24 24 24 24 24 23 23 23 24 25 26 28 30 31 32 32 31 26 30 30 29 27 25 25 24 24 24 25 25 28 28 30 32 32 32
28 26 25 23 23 20 17 15 15 17 22 21 22 22 22 24 26 23 25 27 27 30 32 33 30 23 21 28 27 25 23 23 21 20 20 19 21 21 21 21 22 25 27 31
23 22 21 20 17 14 12 11 11 13 14 15 17 16 18 19 21 24 27 27 27 28 30 24 22 22 25 24 22 20 20 19 17 17 17 18 17 17 18 18 19 20 21 22
19 18 17 14 13 10 10 10 12 14 13 15 16 18 19 19 20 21 24 24 24 22 22 21 18 20 19 18 18 16 16 15 14 14 13 14 14 14 14 14 15 16 17 18
15 14 13 12 10 10 12 11 14 14 14 16 15 17 16 18 19 19 21 20 20 19 18 16 14 13 13 14 13 13 12 12 8 7 9 9 9 9 9 9 10 11 12 14

GFSNGP_sfc_dewp_051.txt.gz
Dewpoint
24 26 24 23 22 23 23 22 25 20 14 8 14 22 26 29 34 39 40 39 39 39 38 37 36 33 32 31 27 25 23 21 22 26 27 28 29 31 31 32 31 30 31 31
30 28 27 25 24 22 21 21 16 16 16 17 19 21 23 29 33 37 38 38 38 37 37 35 33 30 30 26 24 25 21 20 21 23 24 26 29 31 31 30 30 31 32 33
26 26 25 31 28 22 20 21 21 22 21 25 24 24 24 29 34 36 38 38 38 36 35 33 30 28 24 24 24 23 21 19 20 22 23 25 25 26 29 31 30 32 33 32
32 30 28 17 20 19 23 22 20 20 21 22 24 26 29 32 35 37 37 38 37 35 33 30 27 23 25 22 21 21 19 19 20 22 24 25 27 29 30 30 30 31 32 33
36 24 20 18 15 17 18 18 16 20 17 20 32 33 33 34 36 38 39 38 36 34 31 27 23 24 22 21 18 17 17 19 21 24 25 27 28 30 30 29 29 29 30 31
35 35 31 24 24 27 26 21 22 24 26 30 33 34 32 36 38 39 38 37 34 32 26 23 23 23 21 17 16 18 19 21 24 26 27 28 29 30 30 29 27 29 29 30
34 37 32 24 27 30 23 28 30 28 27 31 31 38 39 38 39 39 37 34 30 24 22 23 26 23 20 17 17 18 21 24 25 26 26 27 27 28 28 28 30 32 34 31
39 34 31 26 29 28 35 32 33 33 34 36 38 40 39 39 38 35 32 23 22 22 24 25 24 22 16 14 15 21 24 25 26 27 26 25 27 27 28 28 29 35 34 32
33 33 33 30 30 37 36 35 36 37 36 38 40 39 38 38 35 28 22 20 24 27 29 26 22 18 18 21 22 24 26 26 26 27 28 27 27 27 27 26 29 31 32 32
32 25 27 29 31 33 34 36 36 38 39 39 38 39 37 34 25 22 24 27 32 31 26 20 20 22 22 24 25 25 26 26 26 26 27 27 27 26 26 28 28 28 28 29
31 28 27 33 38 40 40 41 40 40 40 40 40 38 30 25 24 28 32 35 31 24 22 19 21 23 22 23 25 25 26 26 27 27 28 28 28 28 28 28 28 27 27 27
36 37 36 39 41 42 40 40 40 38 37 37 34 28 28 30 33 34 34 32 27 24 24 22 20 20 21 22 23 25 27 27 29 28 29 28 27 28 30 30 29 27 27 28
36 39 41 42 40 41 40 37 36 35 33 31 30 31 34 34 34 33 32 28 26 21 20 21 21 22 23 25 28 30 28 29 28 28 28 28 29 28 28 30 30 29 28 29
40 40 40 39 37 35 33 33 35 32 32 35 35 34 33 32 31 29 25 22 20 21 22 22 22 23 25 27 29 30 30 29 30 31 31 30 30 31 31 30 29 29 30 29
37 37 36 34 34 35 36 36 36 33 34 33 31 28 26 24 22 19 19 20 22 23 24 24 24 26 27 32 31 30 29 29 33 33 33 32 32 31 30 30 30 29 28 29
34 33 33 34 34 35 35 33 31 29 28 27 27 28 25 21 21 21 21 25 26 27 24 31 33 31 33 31 30 30 28 28 30 31 32 32 31 32 30 30 30 30 30 29
35 34 35 34 33 32 29 29 29 27 27 28 27 28 28 28 27 25 25 27 32 35 35 35 34 31 33 32 31 30 28 28 29 29 31 31 32 32 32 33 31 31 32 33
35 35 34 33 30 28 25 24 25 26 28 29 31 33 33 33 31 31 33 34 35 35 33 33 33 33 33 32 31 31 30 30 30 30 30 31 31 30 31 31 31 32 32 32
34 32 30 25 23 24 26 27 29 30 33 33 32 32 33 33 31 30 30 32 32 31 30 32 31 32 33 33 31 32 33 32 30 29 30 30 32 31 31 32 32 32 32 33
26 24 25 27 29 30 30 31 36 30 29 29 30 29 27 28 29 30 31 30 29 29 28 28 29 31 32 34 33 34 34 33 30 31 32 31 32 32 32 31 32 33 32 32
26 28 29 30 31 33 33 32 30 25 24 28 26 26 26 27 28 27 26 22 23 28 26 27 28 28 27 31 35 35 34 32 32 31 31 32 32 32 32 32 32 32 32 32
29 32 33 35 30 27 25 23 25 26 25 25 25 25 23 21 23 24 27 25 25 25 27 28 30 29 30 30 33 33 32 31 30 28 27 27 26 26 26 28 28 30 31 31
31 30 29 27 27 22 22 20 25 24 23 23 22 21 19 19 19 21 21 20 23 25 26 28 28 28 29 31 32 31 30 28 27 25 23 23 22 22 22 22 22 24 25 26
28 26 25 23 22 19 16 13 12 13 21 21 21 21 19 19 21 19 21 21 22 26 25 25 22 22 24 28 28 27 26 24 23 23 21 20 21 20 20 19 19 20 21 21
24 22 20 20 16 14 11 10 11 13 14 16 17 16 18 18 20 21 22 22 21 20 22 20 17 19 21 21 21 20 21 19 18 18 17 18 17 17 17 17 16 16 17 18
21 20 17 13 12 11 12 12 14 16 16 18 17 19 20 19 20 19 20 19 18 18 18 18 16 15 16 17 16 15 16 15 13 13 13 13 12 12 12 11 11 12 13 13
15 15 15 14 12 12 14 15 17 16 17 18 16 19 17 18 19 17 16 17 17 17 16 16 15 13 11 12 12 12 12 12 10 9 9 9 9 9 8 8 8 9 10 11

GFSNGP_sfc_dewp_054.txt.gz
Dewpoint
20 20 22 25 23 21 20 23 27 27 19 16 19 26 26 28 32 34 38 41 42 42 42 41 41 41 38 37 35 32 28 27 28 31 31 32 33 35 35 35 34 34 34 34
31 28 26 26 24 23 22 21 18 21 19 20 22 23 24 26 28 30 38 40 40 40 40 40 39 37 35 34 32 30 28 25 27 28 28 31 33 34 34 34 33 34 34 34
34 28 26 29 28 24 22 21 22 22 25 24 23 24 28 28 26 33 36 39 39 40 40 39 38 35 33 30 30 27 26 23 25 27 27 30 29 29 32 34 34 34 33 33
38 32 28 22 20 18 19 18 17 17 20 20 25 28 29 31 34 35 37 38 40 40 39 37 34 30 30 25 25 25 24 22 23 26 26 28 30 31 33 34 33 32 31 32
35 30 23 21 18 17 18 19 22 22 22 24 32 31 31 33 35 38 39 40 40 38 36 32 28 27 25 23 24 21 22 22 23 27 26 28 28 32 32 31 31 31 30 30
39 35 29 27 24 23 23 28 23 23 28 29 30 36 36 36 37 37 39 39 37 35 32 28 26 26 25 25 22 21 22 24 25 27 28 28 30 31 31 31 29 32 31 31
36 36 35 28 27 28 27 33 31 30 29 33 32 41 40 39 38 39 38 36 34 28 25 25 27 27 27 24 19 20 24 26 25 27 27 29 30 30 29 30 31 31 31 31
40 34 32 28 26 28 37 38 35 34 38 42 43 42 41 39 39 36 27 25 24 24 25 27 28 28 22 18 19 23 25 26 26 28 27 27 29 30 30 29 29 31 30 32
38 37 38 30 35 39 37 36 36 39 38 38 42 39 39 38 32 25 24 22 25 29 30 30 27 24 23 25 23 26 26 26 27 27 28 27 27 28 29 28 28 29 31 29
36 28 30 31 33 37 37 39 39 40 39 40 39 41 39 30 25 23 25 32 33 33 31 27 24 23 24 25 26 24 26 27 28 28 28 28 27 27 28 29 29 29 28 28
32 30 29 38 40 41 41 42 40 40 40 40 40 37 30 25 27 32 35 35 32 29 28 26 24 25 26 23 26 24 26 27 29 29 30 28 28 28 29 29 30 28 28 28
41 39 39 41 41 41 41 40 38 36 33 31 30 28 29 32 34 34 34 34 31 27 27 26 23 20 21 22 23 26 29 29 31 31 31 29 27 28 30 30 30 30 30 27
38 40 42 41 39 39 37 36 34 33 32 31 32 34 34 34 34 34 32 31 28 25 22 21 22 22 23 26 30 31 30 30 31 30 30 29 28 28 29 30 31 31 31 30
40 41 39 39 34 34 34 32 34 34 35 35 35 35 33 32 32 30 25 22 21 21 21 22 22 23 26 26 29 31 32 30 30 31 31 31 30 30 30 29 28 29 30 30
37 38 36 35 36 36 36 35 33 32 32 32 31 27 26 23 20 20 21 21 24 25 24 25 26 29 30 33 31 32 32 31 32 32 32 30 30 30 29 29 28 28 28 28
34 34 35 35 35 35 32 32 31 29 28 28 29 28 24 24 24 24 24 31 30 30 30 30 31 32 32 30 29 30 31 30 30 31 31 31 30 30 29 30 31 31 29 28
35 35 35 34 33 31 30 29 28 26 27 30 30 31 30 30 30 31 31 32 32 32 33 32 32 33 33 33 32 32 32 32 31 30 30 30 30 30 29 29 29 29 30 31
36 36 35 34 31 27 25 27 29 30 30 31 30 29 29 28 29 28 27 28 28 28 29 30 30 28 29 29 30 32 33 33 32 32 32 30 29 28 28 27 26 27 28 28
35 33 31 26 25 27 28 30 32 32 29 28 28 29 28 27 25 26 28 26 25 26 27 27 27 26 26 28 29 30 30 32 32 32 32 30 30 30 29 29 29 29 29 30
27 26 27 29 30 32 30 30 30 27 26 25 24 23 24 21 23 25 24 25 26 25 22 24 23 23 24 26 27 28 28 29 31 31 31 31 30 30 30 30 30 30 31 31
28 29 31 30 28 28 28 27 26 23 24 23 23 22 20 21 23 22 22 21 23 21 22 22 23 24 22 23 24 27 28 29 31 31 30 28 28 26 25 25 24 24 25 27
30 32 32 30 27 25 24 23 25 24 23 21 19 17 18 18 19 21 21 21 20 20 22 23 21 18 19 21 26 28 29 30 28 27 26 25 23 22 22 22 21 21 22 22
31 30 27 26 25 23 21 19 24 23 20 19 20 20 19 18 19 19 18 18 21 21 20 22 15 14 17 21 21 21 23 21 21 21 22 22 22 21 21 20 19 19 18 19
29 28 25 24 24 21 17 13 14 17 19 21 20 19 19 19 20 20 20 19 18 18 19 19 14 12 15 18 17 17 18 16 15 16 16 17 17 17 17 16 14 15 14 15
26 24 22 23 18 15 13 12 14 16 16 17 18 16 19 19 20 19 20 19 17 17 18 17 15 12 14 14 14 13 14 14 12 12 12 13 12 13 12 10 9 9 11 11
25 21 17 15 14 13 14 14 16 17 16 19 17 21 21 21 20 19 19 17 17 16 16 16 16 13 12 11 12 10 10 10 10 9 10 9 9 9 7 6 6 7 8 8
17 20 17 16 13 14 16 16 17 16 18 18 16 20 19 20 19 18 17 17 16 16 15 15 14 13 11 11 10 10 9 8 7 8 7 6 6 5 4 5 5 7 6 7

GFSNGP_sfc_dewp_057.txt.gz
Dewpoint
24 25 27 25 28 27 26 27 26 26 26 26 23 27 25 29 29 37 39 42 43 43 43 44 41 40 38 38 36 36 32 27 31 30 29 29 30 32 33 34 33 33 34 34
31 32 29 27 27 27 25 25 23 24 23 25 25 24 24 25 30 34 41 42 42 43 42 40 39 36 36 36 35 29 27 27 29 29 27 29 30 31 32 32 32 33 33 33
29 27 26 23 26 25 26 26 25 22 25 26 25 26 25 26 29 32 39 40 40 40 40 39 37 35 33 31 29 27 26 27 27 28 28 29 29 30 31 32 33 33 31 31
28 26 16 26 27 21 23 22 21 22 27 32 30 30 31 31 33 35 38 39 40 39 37 34 31 29 26 25 26 26 25 24 26 27 27 29 30 31 32 32 31 31 31 30
24 25 27 25 24 22 22 23 25 25 30 31 31 34 34 36 38 38 40 39 37 33 28 26 25 25 24 23 22 24 24 23 25 28 29 29 30 30 30 30 29 30 30 30
29 24 18 29 25 27 25 23 31 29 29 31 30 33 37 36 38 39 37 34 31 26 25 25 26 26 25 24 25 25 23 25 27 29 30 30 30 30 30 29 29 31 30 30
25 25 29 36 29 32 20 25 34 33 40 38 38 39 39 35 28 29 27 25 25 26 26 27 28 26 24 23 23 26 26 28 28 29 28 29 30 30 30 29 29 29 30 29
31 31 25 36 28 25 35 36 36 38 41 42 40 40 37 29 25 24 23 27 28 28 28 27 27 24 24 26 26 26 27 28 28 29 28 27 27 28 29 29 27 29 29 30
33 33 39 39 37 37 36 37 39 38 39 40 41 39 27 25 24 27 30 30 30 29 29 28 26 25 26 26 27 27 28 28 28 29 28 27 27 27 27 27 25 26 26 25
34 34 32 40 40 41 41 40 41 41 41 40 39 29 25 24 33 33 33 33 32 31 29 28 27 26 25 28 28 26 26 27 28 28 28 27 27 27 26 24 24 27 29 29
33 38 40 41 41 42 42 42 35 32 33 36 30 29 32 34 35 35 34 33 31 30 30 29 27 26 26 26 28 25 26 27 28 28 28 28 27 27 27 27 28 28 26 27
31 40 40 40 41 41 37 35 32 31 32 33 33 33 34 34 34 34 34 34 33 31 27 26 26 25 24 23 23 26 28 28 28 28 28 27 26 27 30 30 29 31 31 30
40 41 39 36 35 36 34 33 33 33 34 34 34 34 34 34 34 34 34 34 32 27 25 23 23 23 24 26 28 28 27 28 29 29 28 28 27 27 26 28 31 31 31 31
41 39 36 35 33 33 34 35 36 35 35 34 34 34 34 33 33 32 27 24 25 25 25 26 27 28 29 29 29 29 29 29 29 29 29 29 28 28 27 27 26 27 29 30
37 37 36 36 36 35 34 33 33 33 33 32 29 26 25 25 25 25 30 31 30 30 30 30 29 29 31 32 31 30 29 29 30 31 31 31 30 29 27 29 27 27 27 26
36 36 36 35 35 33 32 32 32 31 28 27 28 29 29 29 30 30 31 29 28 27 27 25 28 30 30 29 28 28 30 29 31 31 31 32 31 29 29 30 30 30 29 29
35 34 34 34 32 32 30 29 29 28 28 29 29 28 27 28 27 25 25 27 26 23 26 26 26 25 25 24 24 26 27 28 29 26 27 29 30 28 29 27 23 23 24 22
36 36 35 34 27 28 29 30 30 29 28 29 26 24 22 21 22 24 26 26 21 22 22 23 23 22 23 24 24 22 24 27 26 25 26 29 30 30 28 24 22 22 25 25
35 34 31 27 28 30 30 29 26 25 24 24 21 21 20 17 22 23 24 17 19 18 20 21 22 23 19 19 20 20 21 22 24 25 26 28 30 28 25 22 26 27 27 25
29 30 31 31 31 30 28 27 25 23 24 22 18 15 17 15 14 13 16 19 19 20 21 22 19 16 16 18 20 22 23 24 25 26 26 27 27 25 24 24 23 22 21 21
31 29 27 26 25 25 24 23 23 22 23 17 15 10 10 13 12 9 15 18 19 19 18 18 14 13 15 16 18 18 20 18 18 20 21 21 22 21 20 20 19 18 18 18
30 28 26 25 23 23 24 22 22 19 18 14 8 7 7 16 12 15 11 17 20 14 18 16 12 9 13 13 15 14 15 13 13 14 15 16 16 16 17 15 15 15 14 15
30 29 26 24 22 19 22 21 18 16 14 12 9 11 13 18 19 16 13 19 18 14 18 13 6 8 8 11 11 9 11 8 8 9 11 12 12 13 12 10 10 10 10 11
26 25 23 23 22 20 16 18 19 17 13 17 11 9 16 11 7 18 19 13 8 7 7 9 5 6 2 5 7 6 6 8 5 5 7 8 9 10 8 8 7 7 7 7
25 24 23 21 18 17 16 17 19 18 19 18 17 19 18 19 8 12 9 9 11 9 7 10 8 4 -4 -4 -1 -2 -1 3 4 2 4 4 4 5 5 6 5 4 6 5
21 18 17 17 17 16 17 19 18 18 16 11 11 7 6 10 12 12 8 8 9 9 5 3 5 4 -2 -4 -4 -4 -0 2 -1 4 -0 -2 0 0 -0 1 1 3 3 2
21 20 17 16 17 17 17 16 12 12 13 4 5 3 15 10 5 7 2 0 4 7 -1 -2 -2 1 2 -2 -5 -1 -6 -4 -6 2 -4 -12 -7 -5 -4 -3 -1 -0 -1 2

GFSNGP_sfc_dewp_060.txt.gz
Dewpoint
27 27 28 28 26 27 25 26 25 24 27 25 26 26 27 30 35 42 42 42 45 46 47 41 39 40 42 42 43 40 34 30 32 31 31 30 29 29 30 33 33 34 34 34
27 30 28 26 26 26 26 25 24 25 24 27 25 27 26 28 30 38 40 44 45 46 44 43 43 42 41 38 33 28 27 28 30 30 28 30 29 30 31 31 33 33 33 33
26 26 27 25 26 25 25 26 25 22 23 27 27 26 26 29 27 39 42 43 44 44 43 42 41 40 35 28 27 26 26 28 29 30 28 28 28 30 30 32 32 31 31 31
27 25 19 28 29 27 25 24 24 28 31 30 30 33 35 35 35 39 40 41 41 40 38 36 33 29 26 24 25 26 26 26 26 27 28 29 29 30 30 32 30 29 30 31
24 25 27 26 24 17 20 22 28 30 29 32 34 34 35 38 39 39 38 36 33 30 28 26 24 24 24 23 24 24 24 25 26 30 29 29 29 30 30 30 30 29 29 30
31 21 18 27 26 26 25 22 31 31 31 30 33 32 35 34 35 31 28 26 25 25 25 25 25 24 24 25 26 25 26 31 29 29 29 30 30 29 29 29 29 30 29 30
23 20 24 29 31 30 18 21 34 38 36 36 37 37 33 29 26 26 26 26 27 27 26 26 25 24 23 24 25 28 29 29 28 29 28 29 29 28 28 28 27 27 29 29
28 19 22 34 29 25 29 36 40 40 40 39 37 31 28 26 27 27 27 27 26 25 24 25 26 29 30 31 26 27 27 28 29 29 28 27 27 27 27 26 26 24 23 26
31 30 34 37 34 37 37 38 38 39 41 39 31 27 26 29 29 29 28 27 27 27 28 29 28 28 26 27 26 27 28 27 28 28 28 28 27 27 26 26 24 24 25 25
35 35 38 40 41 40 40 40 39 40 40 39 28 27 31 31 30 30 31 31 30 29 29 29 28 25 25 27 28 27 27 27 27 27 27 28 27 27 26 25 24 25 25 25
37 40 40 40 41 41 34 34 33 32 35 29 29 33 33 33 33 32 32 31 31 31 29 27 26 26 25 26 28 27 27 26 27 28 28 27 28 27 27 27 27 26 26 26
32 39 37 39 40 37 33 33 33 32 33 33 33 33 34 34 34 34 34 32 31 30 27 25 24 23 25 27 27 26 26 27 28 28 28 27 27 28 30 29 29 30 30 29
41 39 38 36 35 34 33 34 33 33 33 33 33 34 34 34 34 34 33 31 26 25 27 28 28 27 29 31 31 30 28 28 28 28 28 28 28 28 27 29 31 31 31 31
36 35 34 34 33 35 35 35 34 32 33 33 33 33 33 29 27 29 29 29 29 28 27 27 29 30 31 29 29 29 28 29 29 29 29 29 29 29 30 29 29 30 30 30
36 37 34 34 34 33 33 32 32 30 26 26 26 26 27 28 30 27 26 25 24 25 27 28 27 24 24 25 24 23 24 26 27 27 28 28 27 27 29 30 31 30 30 27
36 35 35 34 33 32 32 32 27 26 27 27 28 29 28 27 25 24 25 26 25 25 26 21 21 21 24 24 23 22 21 22 22 24 26 24 24 24 25 28 29 29 27 24
35 34 33 32 32 32 31 29 26 26 27 26 25 25 23 22 23 24 24 25 22 21 22 21 21 23 21 18 17 18 19 20 20 21 22 23 24 24 25 28 27 26 23 22
36 35 33 32 30 29 28 28 28 28 25 24 22 19 19 20 22 23 24 20 18 19 20 22 21 17 16 17 19 20 20 21 21 22 24 25 25 26 27 27 26 24 24 25
36 32 30 29 29 28 26 25 25 23 22 21 18 18 18 17 20 20 20 15 15 17 19 17 17 14 15 17 18 19 19 16 16 18 20 20 21 21 22 21 20 21 20 19
29 30 31 30 29 25 22 23 24 22 19 16 15 15 17 14 11 13 16 18 17 16 19 14 11 11 14 15 13 16 14 11 12 13 13 15 15 15 16 16 16 15 15 15
30 29 28 27 26 25 23 23 22 19 17 15 15 11 11 13 12 10 14 16 16 18 16 11 9 10 11 11 10 11 10 7 7 8 9 10 9 10 10 9 10 10 11 12
27 26 25 24 23 22 22 21 21 19 16 12 6 5 9 16 13 13 9 15 16 10 14 13 10 4 7 6 8 4 9 4 4 4 5 7 6 7 6 6 6 7 8 9
25 24 23 23 21 20 19 18 18 16 13 11 10 12 15 18 17 11 11 16 16 11 16 11 2 0 -1 -5 -6 -7 -4 -3 -4 -1 2 3 3 4 3 4 4 4 4 6
25 24 21 20 22 19 16 16 17 17 15 15 11 8 15 8 5 17 17 9 3 1 1 3 -1 1 -5 -10 -10 -11 -10 -10 -11 -5 -4 -6 -5 0 -2 -0 0 1 3 3
23 22 20 20 16 17 19 18 18 19 17 16 17 18 17 16 7 10 6 6 7 5 1 -1 1 -1 -10 -13 -13 -13 -11 -13 -14 -9 -12 -15 -11 -10 -8 -5 -4 -3 -1 -2
21 19 19 18 17 18 19 18 17 17 14 9 8 1 6 10 11 9 4 2 4 5 -1 -8 -10 -9 -10 -9 -12 -12 -11 -8 -14 -6 -13 -18 -15 -10 -12 -9 -8 -5 -5 -4
18 18 18 18 17 18 17 15 11 11 10 3 6 -1 10 8 8 3 -5 -8 -8 -2 -8 -8 -11 -8 -9 -9 -9 -5 -12 -13 -15 -10 -18 -22 -21 -18 -16 -12 -10 -7 -7 -5

GFSNGP_sfc_dewp_063.txt.gz
Dewpoint
27 26 25 25 25 26 26 26 24 24 25 26 26 26 26 29 34 42 45 42 42 46 47 44 42 40 40 42 45 45 44 40 38 37 32 31 31 29 29 32 31 32 33 33
28 28 28 27 26 26 26 25 27 26 24 27 26 26 26 28 31 37 43 42 45 47 45 42 42 43 42 43 44 40 37 34 33 31 30 30 30 29 31 30 32 31 31 32
23 27 27 24 26 26 26 26 25 23 25 26 26 28 31 30 29 37 42 45 46 45 42 42 42 42 42 39 37 31 32 30 31 31 29 29 30 29 29 30 31 30 30 29
25 25 18 25 30 27 26 24 24 28 29 29 32 36 38 38 38 41 44 44 44 44 42 41 39 33 30 28 30 28 28 27 28 29 30 30 29 29 29 31 31 30 29 29
24 25 26 28 27 24 21 21 28 29 32 33 34 35 36 35 33 35 36 34 33 33 31 29 25 24 24 24 24 25 26 26 28 31 29 29 29 30 29 29 29 29 29 29
25 21 20 29 28 25 24 20 28 30 33 33 32 24 33 30 28 26 26 26 26 25 24 23 23 23 24 25 24 25 29 32 31 29 28 29 29 29 29 28 28 28 28 29
23 21 27 29 29 27 18 22 31 31 31 33 31 32 30 28 27 27 26 25 25 24 23 24 24 24 24 26 26 28 30 30 28 28 28 28 28 29 28 27 26 26 27 28
24 18 24 32 30 22 28 37 38 38 38 36 31 30 29 28 27 26 25 24 23 23 23 26 29 31 31 26 27 29 28 28 28 28 27 27 28 28 27 27 26 24 21 24
30 30 34 35 30 35 38 39 39 39 39 32 30 28 29 28 28 26 25 24 26 28 30 29 27 28 26 27 26 27 27 27 27 28 27 27 27 27 27 26 25 25 25 25
32 35 36 38 40 40 39 39 40 41 35 31 28 30 29 28 28 28 29 29 28 29 28 28 27 26 26 27 28 27 27 27 27 26 26 26 27 27 27 26 26 26 26 26
36 38 39 39 40 36 35 35 35 36 34 29 31 30 30 30 31 31 30 30 30 29 28 26 26 26 28 29 29 28 28 27 27 27 27 28 28 27 28 28 28 27 27 27
33 38 36 38 39 36 35 34 34 32 32 33 32 31 32 32 32 31 31 31 30 26 26 26 27 30 31 31 30 29 27 27 28 28 28 28 28 28 30 30 30 31 31 30
36 40 39 38 35 34 34 33 33 33 33 32 33 33 33 33 33 29 27 28 28 26 27 28 29 26 24 25 26 24 24 24 26 27 27 27 27 27 25 27 29 30 31 31
36 35 33 34 33 34 33 33 34 33 33 33 33 31 28 28 28 27 26 24 25 28 29 27 22 21 23 25 24 24 24 25 24 23 23 23 25 26 26 22 22 23 26 30
35 36 35 35 34 32 32 31 29 29 28 26 27 28 28 23 21 22 24 26 27 24 21 20 20 22 23 23 18 18 18 19 20 20 20 21 22 22 22 23 23 23 26 27
35 34 33 33 32 31 30 27 27 26 27 28 28 28 25 22 23 25 25 25 23 21 19 17 22 20 19 17 18 19 20 20 19 21 21 21 23 22 22 23 24 25 26 27
33 33 33 32 31 31 27 26 26 26 26 26 23 22 22 22 24 24 22 21 20 20 22 21 17 15 16 17 17 19 19 19 17 18 19 19 19 19 20 19 20 20 21 21
37 35 33 33 31 28 27 27 26 23 22 20 21 20 20 21 22 21 20 19 18 19 19 16 15 13 15 15 14 17 16 13 14 16 15 15 17 16 16 16 16 15 15 18
35 33 32 31 30 28 27 25 23 21 20 20 20 19 20 20 22 19 18 13 12 15 17 12 15 13 13 14 13 15 11 8 9 11 11 11 10 12 10 10 11 10 11 12
32 32 30 28 27 26 23 22 21 18 18 19 19 18 17 14 15 14 15 15 15 17 13 10 9 10 10 10 9 12 7 4 6 6 5 7 4 6 6 4 6 5 5 8
31 28 25 23 23 23 23 21 19 16 17 18 17 15 15 15 13 10 13 15 15 16 12 10 8 9 8 7 7 3 0 -4 -6 -1 -0 2 -1 3 0 -3 -1 1 2 4
27 26 24 22 20 21 22 19 18 18 16 13 12 13 14 15 13 13 8 14 15 10 12 11 9 1 5 2 6 -6 1 -3 -5 -7 -7 -5 -5 -1 -5 -3 -2 -1 -1 1
26 26 23 21 20 20 20 18 18 17 16 15 15 15 16 17 16 12 11 15 16 10 14 9 2 -2 -4 -11 -11 -14 -13 -13 -15 -13 -15 -17 -13 -7 -9 -8 -4 -5 -4 -1
26 22 21 20 18 17 16 16 15 16 17 17 15 13 15 11 6 17 16 8 3 -1 -0 2 -4 -1 -8 -14 -15 -16 -16 -18 -19 -17 -15 -16 -21 -16 -14 -13 -9 -8 -7 -6
20 21 20 19 18 17 17 17 17 17 18 17 17 17 16 15 8 10 5 5 5 4 -1 -5 -3 -4 -14 -17 -17 -18 -17 -18 -20 -19 -20 -23 -21 -20 -18 -17 -16 -13 -10 -9
20 19 19 19 19 19 19 19 18 16 13 10 8 1 3 11 10 9 4 0 2 2 -3 -10 -13 -15 -16 -14 -16 -14 -12 -11 -19 -18 -20 -23 -23 -19 -20 -18 -18 -16 -12 -11
19 19 19 19 19 17 16 16 15 14 11 1 3 -2 7 8 8 6 -4 -9 -11 -10 -10 -10 -13 -12 -13 -16 -15 -15 -10 -13 -19 -17 -23 -26 -25 -25 -23 -21 -19 -17 -14 -13

GFSNGP_sfc_dewp_066.txt.gz
Dewpoint
26 26 24 23 23 26 25 25 23 24 24 25 26 26 26 27 28 40 45 45 47 48 48 46 44 44 44 44 44 44 44 44 44 40 35 34 33 32 32 32 31 32 32 32
28 27 28 26 27 26 26 26 25 26 25 27 28 25 25 27 27 32 42 45 43 47 46 46 44 44 45 45 45 45 44 41 37 35 31 31 31 31 32 31 32 32 31 31
23 26 26 24 26 26 26 27 26 25 26 25 25 30 35 37 35 35 40 43 44 46 44 44 45 44 44 44 43 40 35 33 30 31 31 30 31 30 29 30 32 31 30 30
25 24 15 24 30 28 27 26 25 25 27 27 30 36 34 34 39 43 44 45 44 43 42 43 42 39 37 34 32 30 30 28 30 31 31 30 29 29 29 30 30 30 29 29
25 24 23 25 28 26 24 23 25 26 31 34 35 36 35 30 29 32 34 34 34 35 34 30 28 28 27 27 25 26 28 28 29 31 29 29 28 29 30 29 29 28 28 28
25 21 19 27 30 25 23 21 28 31 34 34 30 23 27 27 28 27 26 26 26 25 25 24 23 23 23 24 27 28 30 31 31 30 30 29 29 30 29 28 27 28 26 27
22 21 27 31 27 25 19 23 29 32 34 32 26 27 28 28 27 26 25 24 24 24 24 25 25 25 25 27 27 30 31 30 29 29 28 28 28 28 28 27 27 27 27 27
24 21 24 31 29 22 27 34 34 33 34 35 30 30 29 27 26 24 22 22 23 23 26 29 30 29 27 26 28 29 28 28 28 28 27 26 27 27 27 27 26 26 24 25
31 31 35 33 30 30 33 35 37 37 37 32 30 29 28 26 25 24 23 25 29 28 26 27 27 28 27 27 26 28 28 28 28 27 27 26 26 26 26 26 26 26 26 26
31 33 34 36 38 37 38 38 39 39 33 32 29 29 27 26 25 26 28 28 28 27 26 26 27 28 29 30 29 28 28 28 28 27 28 27 28 28 26 25 26 27 27 27
33 38 38 39 39 37 37 39 38 34 32 31 30 28 27 27 28 28 29 29 28 26 26 27 30 29 29 28 27 26 26 26 26 26 26 26 27 27 27 27 27 27 27 28
32 35 35 35 38 37 37 36 35 31 31 31 30 29 29 29 29 30 29 25 26 27 28 29 26 23 24 25 24 23 22 23 24 24 23 23 22 22 25 26 27 28 27 26
34 40 38 37 35 35 34 34 33 32 32 31 31 30 31 31 30 29 27 27 26 27 28 23 21 22 24 24 23 23 22 21 21 21 21 21 21 21 21 22 23 24 25 26
37 37 35 34 34 34 33 33 34 33 33 32 32 30 28 28 26 25 24 27 28 26 22 20 22 22 22 19 18 19 19 20 19 20 19 20 20 20 21 20 20 21 24 24
35 35 35 34 33 33 33 32 32 31 30 29 29 27 25 23 22 25 27 24 21 20 20 22 19 16 17 18 17 19 19 19 19 19 20 20 21 20 19 19 18 18 19 18
35 34 33 32 31 30 30 30 28 28 28 28 25 23 22 24 25 25 25 24 20 19 20 17 16 15 17 17 17 18 17 18 16 17 18 17 18 16 17 15 15 15 15 16
33 32 32 31 30 29 28 29 28 28 28 25 22 23 24 24 22 21 19 20 21 21 18 17 13 14 15 14 16 16 15 12 13 15 14 14 13 13 13 11 12 10 11 13
35 34 33 32 29 27 27 28 27 26 24 22 22 23 23 23 21 20 20 20 19 17 14 13 13 14 14 12 13 14 10 9 10 11 11 9 8 10 8 6 7 6 6 9
34 33 32 29 28 28 28 28 26 22 21 21 21 21 22 21 19 19 17 16 15 16 12 10 15 12 10 11 11 10 7 2 4 7 5 4 2 3 2 -1 3 1 2 4
32 31 30 30 29 28 26 22 20 19 19 20 20 20 20 19 18 16 16 16 16 14 11 8 8 8 8 7 7 9 3 -3 2 -1 -4 -1 -9 -7 -3 -3 -1 -1 -5 -1
30 29 28 27 26 25 22 21 21 18 19 21 19 18 18 17 16 15 15 14 16 14 10 9 7 8 7 6 6 -1 -6 -10 -11 -10 -10 -13 -15 -10 -10 -12 -10 -9 -8 -5
28 26 25 24 22 21 21 20 19 19 18 16 16 17 16 15 14 14 12 15 16 11 12 11 8 1 4 1 3 -8 -2 -7 -10 -14 -16 -17 -19 -19 -15 -17 -13 -9 -9 -9
26 26 25 24 23 19 18 18 18 17 16 16 16 17 17 17 16 14 12 14 16 10 13 9 1 -3 -6 -12 -13 -16 -15 -16 -18 -17 -20 -24 -24 -24 -21 -17 -15 -14 -13 -12
25 25 23 21 19 18 15 14 15 17 18 18 17 17 16 14 10 16 15 7 2 -1 0 1 -4 -2 -10 -16 -17 -18 -19 -20 -22 -24 -19 -20 -27 -28 -21 -22 -19 -16 -15 -15
23 20 20 19 18 17 16 16 17 17 18 17 17 16 16 15 10 13 7 6 6 3 -0 -5 -3 -4 -15 -18 -20 -20 -18 -15 -20 -25 -23 -26 -27 -27 -24 -23 -22 -20 -18 -16
24 23 23 22 19 19 19 20 18 17 15 12 12 8 9 11 11 10 6 4 4 1 -3 -10 -10 -12 -14 -17 -19 -19 -17 -7 -13 -21 -24 -24 -28 -24 -26 -23 -23 -21 -21 -18
22 22 20 19 18 17 17 17 15 14 12 8 8 6 10 10 8 7 -0 -5 -9 -12 -12 -15 -11 -10 -10 -16 -19 -18 -16 -13 -12 -15 -23 -27 -30 -32 -28 -26 -25 -23 -21 -19

GFSNGP_sfc_dewp_069.txt.gz
Dewpoint
25 23 26 27 27 29 28 29 28 27 25 26 27 28 29 29 29 30 34 44 49 51 52 51 50 50 49 46 46 46 46 45 45 44 42 40 38 36 37 36 33 32 33 34
27 28 26 26 26 28 28 26 25 26 26 28 29 29 27 30 34 31 32 37 46 50 49 48 47 47 46 46 46 46 45 43 42 40 37 35 34 35 36 32 32 33 33 34
26 27 28 28 29 28 28 28 29 26 28 29 27 27 32 36 37 41 42 43 44 48 48 46 46 45 46 45 45 44 43 39 35 32 31 34 34 31 31 33 34 33 34 33
30 27 25 28 30 28 29 29 29 28 28 28 28 35 34 33 39 43 45 44 45 45 45 45 45 45 44 41 38 35 32 30 31 33 32 32 31 32 33 32 32 32 33 33
31 27 26 25 28 29 29 23 29 28 27 32 36 36 34 30 32 36 39 40 41 41 40 40 39 38 36 33 29 27 27 30 32 33 30 33 34 31 31 32 32 32 31 31
28 28 24 29 28 29 27 25 28 29 33 36 36 33 31 30 30 31 32 33 32 32 32 33 33 33 30 26 26 28 30 31 32 32 31 30 30 30 31 31 30 30 29 31
28 32 30 31 28 29 29 28 28 32 35 37 30 32 31 30 28 28 28 28 29 29 29 28 28 28 28 31 31 32 33 31 29 29 28 29 29 30 30 30 31 32 32 31
30 32 28 33 26 28 34 33 32 35 37 37 32 31 30 28 27 26 26 26 26 26 25 26 28 29 28 28 29 28 28 28 28 29 27 28 29 30 29 30 30 34 33 32
33 34 39 34 35 34 35 36 37 36 37 34 32 30 28 26 25 24 25 26 28 28 29 29 28 27 26 27 27 28 28 28 27 26 24 24 23 23 23 22 24 27 28 28
35 35 35 37 36 38 36 38 39 39 35 33 31 29 27 25 24 27 28 27 26 26 27 28 29 29 28 29 28 25 24 23 23 21 21 21 19 19 22 24 25 24 25 26
35 35 39 39 41 39 39 41 38 35 34 33 31 28 26 25 27 28 27 26 25 27 28 27 26 25 23 23 23 21 20 18 19 20 21 21 20 22 23 23 25 24 24 25
35 37 36 34 40 41 39 40 35 33 32 31 30 27 27 27 29 28 26 26 28 28 25 22 22 22 20 20 17 16 16 17 21 21 21 21 20 21 22 22 22 23 25 25
37 41 39 37 37 37 38 37 33 33 32 30 29 28 29 30 28 27 27 28 29 25 21 21 21 18 17 17 17 18 18 18 19 20 19 20 20 19 19 20 20 21 21 21
38 38 36 35 36 35 35 34 34 32 31 30 31 31 30 28 27 27 28 27 23 20 21 20 16 15 15 16 18 19 19 20 19 20 20 20 20 20 19 19 19 19 18 18
36 36 37 34 34 33 33 33 32 31 31 30 30 29 28 26 26 27 24 21 20 21 20 15 14 15 16 17 16 17 17 16 19 20 20 19 19 18 18 16 16 15 15 15
35 34 34 34 33 32 32 31 31 30 29 28 27 26 25 26 24 21 20 20 20 19 15 17 15 15 16 15 15 15 13 15 16 16 16 16 15 15 14 14 14 13 13 12
33 32 32 32 32 32 31 31 30 29 27 26 25 25 24 23 21 20 20 20 19 18 16 16 14 14 14 13 14 12 11 11 13 12 12 13 12 13 12 11 11 10 10 10
35 34 33 33 31 30 30 30 30 27 25 26 26 26 25 24 21 20 20 18 17 16 13 13 14 13 11 10 13 10 10 9 11 11 11 11 9 9 10 8 7 7 7 7
34 32 30 29 29 29 28 27 27 26 26 26 26 24 24 23 20 19 19 19 17 13 10 11 14 11 8 10 11 9 8 7 8 7 7 6 7 5 7 6 5 5 5 4
30 30 30 29 29 28 26 27 27 26 25 24 24 22 21 20 19 19 19 17 15 13 10 9 8 7 7 6 7 7 6 6 4 5 5 3 4 3 4 0 0 2 3 3
29 28 27 25 25 25 25 25 25 23 23 23 22 21 20 18 18 18 17 14 14 13 10 9 8 7 6 6 5 8 6 5 4 4 3 2 1 1 1 0 0 0 1 1
26 25 24 24 23 23 24 24 22 21 20 19 19 19 18 17 17 16 17 15 15 14 12 11 9 6 7 7 7 8 6 4 3 3 3 2 1 -1 -1 -2 -3 -3 -2 -1
26 25 24 23 22 21 20 19 20 19 19 19 19 18 17 16 15 14 13 14 15 13 13 13 9 6 3 9 8 7 5 4 3 1 1 1 -0 -1 -3 -4 -6 -5 -5 -4
25 24 22 20 18 17 16 15 16 17 20 19 19 19 16 16 16 16 16 13 11 13 14 13 10 7 3 7 6 5 4 4 3 2 1 -6 -1 -3 -3 -6 -8 -7 -8 -8
23 23 23 23 21 20 18 16 16 17 18 18 17 16 16 15 17 16 16 14 12 12 13 6 5 4 7 5 5 3 4 3 3 1 0 -1 -2 -4 -5 -6 -8 -9 -10 -9
23 23 22 22 21 19 19 19 18 18 17 16 15 16 17 17 15 15 12 10 10 8 10 8 7 6 6 5 3 1 2 2 2 1 -1 -2 -3 -5 -7 -9 -10 -10 -11 -10
21 20 18 17 17 17 18 18 17 15 14 15 15 16 15 15 13 11 8 9 7 6 6 5 5 4 4 3 2 1 0 1 -1 -1 -2 -3 -6 -7 -9 -11 -11 -12 -12 -12

GFSNGP_sfc_dewp_072.txt.gz
Dewpoint
21 18 17 19 17 21 23 23 22 23 19 20 25 26 27 28 30 30 30 32 39 46 51 53 55 56 55 53 51 50 49 47 47 47 46 44 43 43 42 39 39 39 35 33
25 23 23 21 21 21 24 24 23 25 22 23 25 28 30 30 29 30 31 33 36 44 51 52 53 54 51 50 49 48 48 47 46 44 42 41 40 39 39 38 36 33 35 37
24 26 27 30 28 24 25 27 27 24 24 25 25 28 30 31 34 36 39 42 43 46 50 51 52 50 50 48 48 47 45 44 42 39 37 36 34 33 34 35 37 39 36 34
29 32 31 25 28 26 26 26 27 27 27 26 25 30 34 35 38 43 44 45 46 48 49 50 50 50 50 48 46 45 42 38 34 33 34 34 33 33 37 39 36 34 33 32
37 28 24 25 26 28 28 26 26 25 25 23 28 33 34 35 38 42 44 45 46 47 48 48 47 46 44 42 40 38 34 30 31 33 33 35 38 39 35 33 32 30 29 30
32 37 32 26 26 29 28 28 26 26 28 29 34 33 30 37 38 39 40 40 41 43 43 43 43 41 38 36 33 30 29 32 33 34 35 36 34 32 31 30 28 28 28 30
34 38 29 31 30 30 27 29 29 28 29 34 34 33 37 37 37 37 37 37 39 40 40 40 40 37 33 30 28 32 34 32 32 32 31 30 29 30 30 30 31 34 34 33
36 37 34 32 28 28 32 36 33 34 35 38 37 35 37 35 35 35 35 35 36 36 35 35 34 33 31 31 31 31 31 30 29 29 25 27 30 31 29 28 27 29 35 31
34 33 38 34 33 34 36 33 35 35 37 39 36 35 34 34 34 34 34 32 32 32 32 32 31 31 30 30 29 29 29 29 27 25 24 22 24 22 21 20 23 26 27 27
36 32 35 38 35 37 34 35 35 37 38 38 35 34 33 32 31 32 31 31 31 31 29 29 29 28 28 29 30 27 25 25 23 20 19 17 15 17 21 24 24 22 24 26
35 35 37 38 40 38 37 39 40 39 38 37 35 33 32 30 31 31 30 29 29 30 29 28 27 26 26 25 25 22 20 18 18 19 20 20 19 22 23 23 24 24 25 25
37 37 39 34 40 42 40 40 39 38 36 36 34 32 31 30 31 29 28 28 29 28 27 25 23 21 19 18 17 16 15 17 22 21 21 20 19 22 22 21 21 22 21 23
37 40 39 40 39 39 41 40 39 37 36 34 33 31 31 31 30 29 28 29 27 26 25 22 18 16 16 17 17 17 17 18 19 20 19 19 21 20 20 23 19 18 17 18
40 39 39 38 38 38 38 37 37 34 34 33 32 31 31 30 28 28 29 29 26 24 21 17 14 14 15 16 18 19 18 19 19 21 21 22 22 21 21 21 21 21 17 16
39 39 39 37 36 36 35 34 33 32 32 31 31 31 30 29 29 29 27 23 22 20 16 14 14 14 16 17 15 15 15 17 21 23 22 20 21 20 20 19 18 17 16 16
38 37 36 36 35 35 35 34 34 32 32 31 31 31 29 29 27 24 22 23 24 21 15 19 16 14 16 14 13 12 13 16 17 18 19 18 17 17 17 16 16 16 16 15
37 35 35 35 35 35 35 34 33 32 31 31 30 29 26 24 25 25 24 24 22 21 20 19 14 12 13 13 10 11 12 12 14 14 15 15 16 16 16 15 15 14 15 16
37 37 35 36 35 34 33 32 31 30 28 29 28 28 27 26 24 23 21 20 20 19 16 15 13 11 10 11 10 11 12 12 14 15 14 16 14 13 14 13 12 12 12 12
35 35 34 34 33 33 32 30 29 28 28 28 28 27 26 26 24 20 19 20 19 15 13 13 15 9 8 12 10 12 13 14 13 12 12 10 13 11 12 12 11 11 10 10
31 31 31 30 30 30 28 29 29 28 28 27 26 25 23 23 23 22 23 19 15 13 10 10 8 7 6 6 8 9 12 13 9 10 12 10 11 11 11 7 7 9 10 10
28 28 27 27 27 27 28 28 27 27 27 27 25 23 22 22 22 20 18 14 13 12 10 10 8 8 6 7 6 14 14 12 11 10 10 10 9 9 9 9 8 8 8 8
25 25 26 26 25 26 27 26 25 25 23 22 22 22 21 19 19 19 20 16 14 14 12 12 10 10 9 9 10 13 11 10 10 10 9 9 8 8 7 7 6 6 5 5
26 25 25 24 24 23 23 22 24 23 23 22 21 21 19 16 16 17 15 14 15 15 14 16 12 9 6 14 13 12 11 9 9 8 8 8 7 7 6 5 4 3 3 3
26 24 24 21 19 18 19 19 17 18 21 20 20 20 19 19 19 17 16 16 15 16 17 16 13 7 9 13 12 10 10 10 9 9 7 5 7 6 5 4 2 2 1 0
25 25 25 23 21 20 18 16 19 20 20 19 18 17 17 18 21 19 20 18 14 13 16 11 8 6 12 11 10 9 8 8 8 7 7 6 5 4 4 3 1 1 -1 -1
23 22 23 23 22 21 21 20 20 20 20 19 19 21 22 20 19 18 17 15 13 11 13 13 11 10 10 9 8 8 7 6 6 5 4 4 3 3 2 0 -1 -1 -1 -2
21 21 19 19 18 19 20 19 19 18 19 20 18 19 18 19 17 16 14 15 14 12 12 11 10 8 8 7 7 7 6 5 4 2 2 2 1 1 0 -1 -2 -3 -4 -5

GFSNGP_sfc_dewp_078.txt.gz
Dewpoint
23 21 19 21 21 21 20 21 23 24 22 22 22 20 29 30 32 30 28 28 29 33 44 47 50 54 55 58 57 57 55 54 51 50 50 49 49 49 48 47 46 46 46 46
27 22 22 20 19 20 20 18 17 20 20 20 20 21 27 25 23 24 29 30 33 33 41 49 52 54 56 56 54 53 51 49 50 50 49 49 47 47 45 44 44 44 44 44
28 26 22 23 23 19 17 19 20 19 23 23 23 23 26 28 29 27 28 34 38 40 40 53 55 54 52 51 51 49 49 49 49 47 46 45 44 44 43 42 41 41 41 41
31 34 24 25 25 23 23 22 23 21 22 22 23 23 24 31 34 33 37 40 43 45 52 53 52 51 51 50 49 48 48 47 46 45 44 42 41 40 39 39 38 39 41 39
33 29 27 24 25 25 26 25 25 24 23 23 23 31 29 32 36 40 43 44 46 49 52 52 50 50 48 47 47 46 45 44 43 42 40 39 38 38 38 40 41 38 37 35
37 30 28 32 28 33 30 26 27 26 29 29 28 35 33 37 40 44 45 46 48 50 51 50 49 47 46 45 44 43 43 43 42 39 37 36 38 40 42 40 38 34 31 36
33 35 32 30 28 32 27 31 33 31 33 36 31 37 39 40 41 42 44 45 48 49 49 50 48 47 45 44 42 42 40 38 36 35 36 38 40 38 35 33 36 35 34 31
36 35 31 34 33 29 35 40 38 36 38 42 42 42 42 41 41 41 41 44 45 46 46 46 45 45 42 40 38 36 35 35 36 37 34 34 35 31 31 34 34 33 31 31
34 35 42 40 37 40 41 42 41 42 39 39 44 41 40 40 40 39 40 42 43 43 43 43 42 41 38 36 35 36 36 35 33 31 31 30 31 31 29 27 29 31 31 30
38 34 36 43 45 41 40 41 40 42 41 41 42 41 40 39 38 38 39 40 40 40 38 38 38 37 36 36 36 33 33 32 31 28 25 23 20 24 28 29 30 29 29 28
31 32 33 33 40 42 42 43 41 40 39 40 43 40 38 37 37 38 38 38 38 38 37 35 36 35 34 34 34 32 31 27 24 25 26 26 23 26 27 25 27 28 27 27
37 37 39 38 40 46 44 39 38 40 40 40 41 39 38 37 38 37 37 36 37 36 34 32 31 31 31 31 29 27 23 25 29 29 27 26 24 24 27 25 24 23 21 23
32 39 42 45 41 40 42 44 43 43 42 40 42 39 38 37 38 36 36 35 34 32 31 28 22 20 22 24 25 25 24 24 25 27 26 25 26 28 25 23 22 22 21 20
32 32 43 41 40 40 40 38 40 40 39 40 40 38 36 35 35 34 34 33 31 26 21 19 19 19 20 20 21 23 23 28 26 26 26 26 25 25 26 26 25 25 22 21
41 42 41 40 39 38 37 37 37 37 37 36 36 36 35 33 33 32 30 25 21 19 19 20 21 22 24 24 22 25 25 26 27 27 24 23 25 24 24 24 23 23 22 23
31 39 39 39 37 37 36 36 36 35 35 35 35 35 33 29 27 25 25 24 24 24 24 24 25 26 23 22 23 22 20 21 21 21 22 21 22 22 21 22 21 21 21 21
41 39 39 38 38 38 37 36 36 34 35 33 29 28 26 25 25 25 24 25 24 24 24 24 24 26 23 15 15 16 17 17 19 18 19 19 20 20 19 19 19 19 19 18
40 39 40 41 39 37 34 33 33 31 29 27 27 26 24 23 22 22 23 23 23 22 22 22 21 17 14 12 13 15 17 17 17 18 18 19 17 16 17 17 16 16 16 15
37 36 35 35 33 32 30 29 29 28 27 26 24 23 23 23 23 23 23 22 21 19 19 14 14 11 11 15 13 17 17 18 17 16 17 16 16 17 17 16 15 14 13 13
32 32 31 31 30 30 28 28 27 26 26 25 24 23 23 23 24 22 21 20 19 17 12 10 9 8 7 9 13 14 17 17 14 15 17 15 15 16 14 13 14 13 13 12
28 27 27 27 27 27 27 27 26 25 26 26 23 22 22 23 22 22 19 16 17 15 12 13 12 10 8 11 11 18 18 17 16 15 15 15 14 14 13 13 12 11 10 10
26 26 26 26 25 25 26 26 25 24 24 23 23 22 22 21 21 20 21 16 14 17 15 15 12 12 10 14 16 17 15 15 14 14 14 13 12 11 10 10 10 9 9 6
27 26 26 25 24 25 25 25 25 25 24 24 24 24 23 23 24 19 16 15 17 20 18 15 13 12 10 16 17 16 14 13 13 13 12 12 11 10 9 9 9 8 7 7
27 27 26 26 24 22 22 21 20 21 22 21 22 24 24 21 20 19 18 18 18 17 15 14 12 9 5 16 15 14 13 12 12 13 10 5 9 9 8 7 7 8 6 5
27 26 24 23 22 21 21 21 21 21 21 21 21 20 20 21 22 22 20 18 15 18 15 9 9 7 13 14 13 10 11 11 11 9 9 8 6 6 6 6 6 6 3 2
24 24 24 23 22 23 23 23 23 22 20 20 21 22 22 22 21 19 17 15 15 12 15 16 14 13 12 10 8 9 9 8 9 8 6 5 4 5 3 2 2 2 1 0
21 21 19 19 19 20 20 19 19 19 21 20 18 18 19 20 18 18 16 15 15 14 13 13 12 10 10 8 9 7 6 7 6 5 4 3 2 2 1 0 -0 -1 -2 -2

GFSNGP_sfc_dewp_081.txt.gz
Dewpoint
28 24 24 25 24 23 22 27 27 29 28 28 25 24 24 29 29 31 30 30 29 40 42 45 48 54 56 57 57 56 56 55 53 52 52 51 51 50 49 50 49 48 47 47
28 28 25 24 24 23 23 23 21 22 24 24 25 22 24 25 30 30 30 30 32 34 43 48 54 56 56 55 53 53 52 50 50 50 50 49 49 48 48 47 47 46 47 47
28 29 28 25 25 23 25 24 24 21 22 24 23 24 23 25 25 28 29 36 37 42 52 54 54 53 51 50 51 50 50 50 50 49 47 47 46 45 45 45 45 45 45 44
31 30 25 27 26 25 25 25 24 24 25 24 22 23 28 29 29 34 39 40 43 53 52 51 51 50 50 49 49 49 48 48 47 46 45 45 45 45 44 43 42 42 41 41
31 29 31 30 27 26 25 25 27 26 27 25 25 27 32 35 36 38 41 43 50 52 51 50 49 49 48 48 48 48 47 46 45 44 43 43 42 42 40 39 39 39 40 37
32 30 27 32 32 30 31 26 29 31 30 30 29 28 31 37 44 45 46 48 51 50 50 49 48 48 47 46 46 45 45 44 43 43 42 41 40 39 39 40 39 35 33 33
32 31 33 33 32 34 26 27 32 33 33 31 32 35 36 42 44 44 46 49 50 50 49 47 47 46 45 44 44 44 44 43 42 40 38 38 39 41 39 35 34 32 30 30
32 29 29 35 32 29 32 35 35 36 36 38 40 41 41 41 42 43 44 47 49 49 48 47 47 45 44 43 43 43 41 37 35 36 36 38 36 34 34 34 32 30 30 30
34 33 40 42 41 43 43 40 38 37 38 42 42 41 41 41 41 42 44 44 46 45 47 46 45 44 42 37 36 36 36 36 36 34 33 32 32 30 31 32 31 30 30 29
34 33 32 40 44 39 39 39 39 39 39 43 41 41 40 40 39 40 42 42 43 42 41 41 40 37 36 36 37 35 33 32 30 26 25 25 26 29 29 29 29 28 29 29
36 36 36 36 39 37 37 38 41 38 38 38 42 40 39 39 38 39 40 40 38 37 35 35 35 35 35 35 34 31 27 25 26 26 25 24 26 27 26 27 28 26 26 27
33 36 35 35 40 41 37 38 41 41 38 38 42 40 39 38 39 38 38 37 36 34 29 21 21 23 26 28 27 26 25 25 27 27 28 26 25 25 27 27 26 26 26 25
31 36 41 42 42 41 41 42 42 42 40 39 40 39 39 38 37 36 35 33 24 21 20 20 20 20 23 25 25 25 25 26 26 27 28 27 28 26 23 25 25 23 21 20
41 40 40 41 40 40 39 39 40 39 39 40 39 37 36 36 34 32 24 20 20 20 20 21 22 22 26 27 27 28 28 28 27 27 27 26 26 27 26 26 24 24 23 22
41 42 41 40 38 37 38 38 37 36 36 34 34 34 30 26 22 20 20 21 23 23 23 24 23 25 26 27 27 27 27 27 27 25 25 25 25 24 24 24 23 23 23 23
34 40 40 38 38 37 37 36 35 35 31 28 26 25 24 23 23 23 24 24 22 23 24 24 24 26 28 27 25 24 23 24 23 23 23 22 22 22 22 21 21 21 20 20
39 39 39 38 37 35 34 32 30 28 27 26 25 24 23 23 23 23 23 23 23 22 23 23 23 24 24 25 24 23 22 18 20 21 20 21 21 19 18 19 18 18 17 14
36 36 38 36 33 30 29 28 27 26 24 24 23 22 21 21 20 20 20 21 20 20 21 22 22 20 16 15 16 18 19 19 19 20 19 17 16 17 17 16 16 15 13 15
33 33 32 30 30 29 27 26 25 25 24 24 23 22 22 22 22 21 21 20 18 17 18 14 15 12 11 16 16 18 18 16 16 17 16 14 13 14 11 9 9 7 9 9
29 28 28 27 27 26 25 25 25 24 24 24 23 21 20 20 20 19 18 18 18 17 14 13 11 10 10 12 16 17 16 14 15 13 10 9 7 5 6 10 11 8 1 -2
26 26 26 25 25 25 25 25 24 23 23 23 21 20 20 20 20 19 17 15 16 15 13 12 12 10 10 13 15 14 12 9 6 3 2 -1 -0 4 -2 -3 -2 -3 -4 -4
24 24 24 23 23 23 24 24 24 23 22 22 21 21 19 18 18 17 17 14 16 16 14 13 12 8 8 11 14 8 10 7 5 7 6 2 4 -1 -4 -7 -7 -2 -6 -10
25 24 24 23 23 23 24 23 23 23 22 21 20 20 20 19 18 15 15 19 17 15 14 11 7 5 3 7 9 6 3 -0 -2 1 4 -1 -4 -5 2 5 3 -4 -2 -0
24 24 24 24 24 22 21 22 21 21 21 20 20 19 17 16 17 17 17 15 10 9 6 3 3 5 5 7 5 3 0 -2 3 -1 -2 -2 1 -2 -3 -1 2 2 0 -1
25 25 24 22 21 20 21 20 19 18 18 18 18 18 18 18 15 16 13 12 13 10 7 6 3 2 -1 -4 -4 -2 -2 -1 2 4 2 -4 -11 -11 -4 -1 -4 -3 -2 -3
24 23 23 23 22 22 20 19 18 18 17 16 16 16 17 16 16 14 11 9 9 6 6 6 5 2 2 -0 1 0 -5 -5 1 -0 -7 -10 -10 -8 -9 -7 -6 -8 -11 -14
19 18 17 17 16 16 16 15 15 16 14 12 12 13 13 12 11 10 6 5 2 1 1 2 1 1 -4 -7 -6 -9 -9 -6 -3 -7 -13 -17 -16 -9 -11 -16 -19 -16 -15 -16

GFSNGP_sfc_dewp_084.txt.gz
Dewpoint
27 26 26 25 25 25 24 27 25 26 27 29 30 30 28 26 30 29 30 30 30 38 42 48 49 50 51 52 55 55 55 56 55 55 56 55 54 54 52 51 51 50 49 49
28 28 27 29 28 25 27 25 25 28 27 29 28 30 24 27 29 30 29 29 30 36 41 46 51 52 55 54 54 55 55 53 52 51 52 52 51 50 50 50 49 49 48 47
25 28 28 28 29 28 28 28 26 24 26 26 24 23 23 25 26 30 30 31 35 40 46 53 54 54 54 52 52 52 51 50 50 50 48 48 48 48 47 47 47 47 47 46
28 29 25 31 30 29 28 27 26 23 24 23 22 24 25 27 30 32 37 41 52 52 51 50 50 51 51 51 51 50 50 49 48 48 47 47 46 46 46 46 46 45 45 44
31 28 29 30 30 26 27 25 27 24 24 24 25 30 30 35 35 38 40 44 51 50 50 49 49 49 50 50 50 49 48 48 48 47 46 46 45 44 45 45 44 44 43 40
32 28 24 29 31 33 30 25 29 27 27 29 28 28 29 37 43 44 48 51 50 49 48 48 47 48 48 48 48 47 47 46 45 45 45 44 43 43 42 41 38 36 34 34
31 30 31 35 36 33 28 27 32 30 31 29 28 32 33 43 44 47 50 50 50 49 47 47 47 47 45 45 45 46 45 44 44 44 43 43 43 42 40 36 33 32 31 31
29 27 27 36 36 30 33 37 38 35 35 31 36 39 43 44 44 47 49 49 49 48 46 46 46 45 44 43 44 44 43 42 42 40 38 39 38 37 35 33 31 30 30 29
30 30 36 40 41 41 42 40 40 40 38 39 40 40 41 42 43 45 48 48 49 47 46 46 45 44 43 43 41 39 37 37 37 35 33 34 35 34 34 32 30 30 29 28
34 34 36 38 43 42 38 38 38 39 41 41 39 41 41 41 42 43 44 44 46 45 43 40 38 36 36 37 36 33 29 27 27 28 28 28 28 29 30 30 30 30 30 28
32 34 36 37 37 36 36 39 39 41 41 42 41 40 40 39 41 41 40 38 37 31 27 27 29 33 34 30 28 26 26 25 25 26 27 26 25 26 26 28 29 28 27 28
33 36 36 32 37 39 39 37 39 40 39 41 41 40 40 39 39 38 35 26 24 23 24 23 24 25 26 26 25 24 25 26 28 28 26 26 26 26 28 28 27 27 27 26
33 33 37 41 42 42 41 41 41 42 42 39 41 40 39 38 35 27 24 23 21 21 22 24 25 26 27 28 27 26 26 27 28 29 29 29 28 27 26 28 28 28 26 22
37 41 40 41 40 40 40 38 38 37 38 39 39 36 32 25 23 22 21 21 21 22 24 25 26 27 29 29 29 29 28 28 27 27 27 27 26 26 26 26 24 25 26 26
40 41 40 39 38 38 37 36 33 30 29 28 27 25 23 22 22 22 23 23 23 24 25 25 25 25 27 28 26 27 27 26 25 25 25 25 25 25 25 24 24 23 23 23
41 39 38 38 37 37 35 31 29 27 26 24 24 23 23 23 23 23 23 24 23 22 23 22 23 26 26 26 25 24 24 24 24 25 24 24 23 22 21 20 20 19 19 19
39 37 37 35 33 31 29 28 27 25 24 23 23 23 22 22 21 21 21 22 21 21 21 21 22 24 23 22 22 22 21 20 21 21 20 18 17 17 17 17 17 16 15 14
35 35 34 33 30 28 26 26 25 23 23 22 22 21 21 19 18 19 19 20 19 18 19 20 20 16 16 16 16 17 17 17 17 17 16 14 15 17 14 13 13 12 11 14
31 30 30 28 27 26 25 24 24 23 23 22 21 20 20 20 20 20 20 18 17 15 17 12 16 13 15 17 16 16 15 14 14 14 14 11 9 11 8 8 10 8 8 8
28 27 27 26 26 25 24 24 24 23 23 22 21 19 18 18 19 18 18 17 17 15 12 10 11 14 15 15 15 13 12 10 11 8 6 4 -0 -1 1 5 4 -0 -4 -1
25 25 25 24 24 24 24 24 23 22 22 21 19 18 18 19 19 18 16 13 13 12 9 9 10 13 14 13 12 10 7 5 3 3 2 -0 -4 -2 -3 -5 -3 -3 -3 -2
24 23 23 22 22 22 23 23 22 21 21 20 19 18 17 17 17 17 16 14 13 12 10 10 11 8 11 10 8 5 5 3 0 -3 -3 -2 -3 -6 -5 -4 1 1 -1 -4
23 23 23 22 21 22 23 22 21 21 19 20 20 19 18 17 16 13 11 13 11 9 9 8 6 5 3 3 3 -1 -2 -3 -2 -2 -3 -5 -11 -11 -9 -10 -10 -7 -5 -3
23 23 23 23 23 21 19 21 21 21 20 19 18 17 15 14 14 12 10 7 5 6 6 5 3 1 -3 -3 -4 -6 -7 -9 -11 -14 -10 -10 -18 -18 -15 -14 -6 -6 -12 -14
24 24 23 22 20 19 19 19 18 17 17 16 16 15 14 13 11 12 12 11 11 8 6 1 -0 -4 -6 -9 -11 -15 -15 -15 -12 -15 -18 -20 -20 -16 -17 -19 -21 -20 -19 -18
22 21 22 22 21 19 17 16 15 15 14 13 13 14 13 12 10 9 7 6 6 3 1 -5 -8 -9 -12 -12 -14 -12 -12 -10 -16 -17 -21 -20 -20 -20 -22 -21 -22 -21 -21 -21
20 19 17 16 16 16 16 15 12 11 11 10 9 10 9 8 5 4 -0 -1 -4 -6 -11 -14 -15 -11 -13 -14 -15 -17 -16 -16 -19 -20 -23 -21 -23 -26 -27 -27 -26 -24 -22 -22

GFSNGP_sfc_dewp_087.txt.gz
Dewpoint
29 22 22 27 26 26 26 27 26 27 28 28 29 29 29 31 30 28 28 29 37 41 44 46 47 49 51 53 53 53 53 53 53 54 56 56 56 56 57 57 56 53 52 51
28 28 22 21 23 28 29 28 26 26 26 29 29 31 30 27 27 28 28 30 31 36 39 44 47 48 49 51 52 54 54 54 53 53 55 55 54 54 52 51 52 52 51 50
27 28 28 27 28 26 25 29 26 25 28 30 29 28 29 28 28 28 30 30 30 31 38 41 48 51 51 51 52 52 53 52 51 51 50 50 50 50 50 49 50 49 49 49
30 28 25 28 30 30 30 28 30 27 26 26 25 27 26 25 26 29 30 31 44 50 50 50 52 52 52 52 51 51 50 50 50 50 49 49 48 48 48 48 48 47 47 47
30 27 28 30 31 30 30 29 30 28 26 24 25 30 28 33 32 30 36 42 49 49 49 50 50 50 50 50 50 50 49 49 49 48 47 47 46 46 46 46 45 45 45 43
32 28 23 28 31 34 35 30 30 28 32 27 29 28 28 34 39 40 47 49 48 48 49 49 49 50 50 49 49 48 48 47 47 46 46 45 45 45 45 44 42 40 37 36
31 30 30 34 35 38 33 31 35 31 31 31 27 31 31 42 44 48 49 48 48 47 47 48 48 48 47 47 46 46 46 45 44 45 44 44 43 42 38 36 34 32 31 31
31 27 24 33 39 31 34 41 38 35 33 33 32 36 41 43 47 49 49 48 47 46 46 45 45 45 45 44 44 44 44 44 42 41 41 40 38 36 34 33 31 30 29 28
32 29 34 35 39 41 41 39 40 39 38 37 38 40 43 44 48 48 48 48 47 46 45 44 44 44 43 43 42 39 34 32 31 31 32 34 35 34 32 32 31 30 28 27
34 33 34 35 38 43 42 38 38 40 42 41 40 42 42 44 46 46 47 47 46 40 36 36 37 37 37 34 30 30 29 29 29 28 28 28 29 30 30 31 31 30 29 27
32 33 33 33 37 39 40 40 40 39 41 42 42 42 42 44 43 42 37 32 32 30 29 29 29 28 28 28 28 26 26 26 26 24 25 26 26 27 28 30 31 30 29 28
28 32 32 33 34 40 39 39 40 39 39 42 42 41 41 40 37 30 28 27 26 26 26 25 25 25 25 26 26 26 27 27 27 28 29 28 27 27 30 29 29 28 28 26
33 34 36 39 41 41 41 42 43 42 41 41 41 40 36 27 26 26 24 25 25 26 26 26 27 27 28 28 28 29 29 29 29 29 29 29 28 28 26 28 29 29 28 27
36 39 39 39 39 39 38 36 36 34 36 35 32 28 26 24 23 23 24 25 25 26 26 27 27 28 29 29 28 27 26 26 26 26 26 25 25 25 25 24 24 25 28 27
35 36 39 41 39 37 34 31 29 27 26 26 26 25 26 23 23 23 24 25 24 24 24 24 24 25 26 26 25 25 25 25 25 24 24 24 24 23 22 22 21 21 22 21
38 39 39 38 37 34 31 29 26 25 26 25 25 24 23 23 22 21 21 22 20 20 22 22 22 24 24 23 23 23 23 23 23 22 21 19 18 17 18 17 17 16 15 15
37 37 35 33 31 28 27 26 25 24 23 23 22 22 21 20 19 19 19 20 20 20 21 21 21 21 20 20 19 19 18 17 17 16 14 15 16 14 14 14 13 13 13 12
33 35 34 31 28 26 25 24 24 23 22 22 22 21 20 19 17 17 17 18 17 17 19 20 19 16 15 15 15 16 16 15 15 14 13 12 13 11 9 8 9 9 10 10
29 28 27 26 25 24 24 23 23 23 22 22 20 19 19 18 18 18 18 16 15 14 16 18 19 16 14 15 13 13 12 11 11 10 10 7 5 7 4 3 1 -2 1 2
27 26 26 25 25 24 23 23 23 22 21 20 19 18 17 17 17 16 14 13 14 13 14 14 14 13 11 11 11 10 9 8 7 5 2 1 -2 -4 -3 -1 0 -1 -4 -2
25 25 24 23 23 23 23 22 21 20 20 20 18 17 16 17 16 15 12 10 10 12 12 13 12 10 9 8 8 6 4 2 0 -2 -4 -10 -10 -9 -11 -12 -10 -8 -7 -6
24 23 23 23 22 21 22 22 20 19 18 17 17 17 15 14 13 13 12 9 11 11 10 8 7 6 6 6 4 2 1 -1 -3 -4 -8 -11 -14 -17 -16 -13 -12 -10 -9 -7
23 23 22 21 20 20 21 21 20 19 18 18 18 18 16 16 13 8 6 8 9 6 5 5 2 1 -1 -1 -3 -5 -7 -9 -11 -13 -17 -21 -21 -23 -21 -19 -16 -17 -19 -18
22 22 21 22 21 19 17 19 19 18 17 17 16 15 12 10 9 10 8 6 5 5 3 1 -0 -2 -6 -8 -10 -11 -12 -14 -19 -22 -19 -21 -26 -25 -23 -24 -22 -24 -22 -21
22 22 21 20 18 17 18 18 17 16 15 13 13 12 12 11 8 10 9 7 6 1 -1 -4 -5 -9 -13 -15 -14 -15 -20 -22 -23 -26 -27 -27 -27 -27 -28 -27 -28 -27 -26 -26
21 20 20 20 19 18 17 16 13 13 11 10 10 10 9 9 8 6 4 2 1 -3 -6 -11 -16 -16 -18 -18 -22 -22 -20 -17 -24 -23 -26 -25 -27 -25 -29 -25 -28 -28 -28 -26
19 18 17 16 16 15 14 13 11 10 10 8 6 7 5 3 1 0 -3 -5 -9 -11 -14 -18 -19 -17 -20 -22 -21 -21 -21 -22 -24 -24 -27 -28 -29 -31 -31 -29 -29 -28 -26 -25

GFSNGP_sfc_dewp_090.txt.gz
Dewpoint
31 33 34 35 28 22 22 25 25 25 27 28 29 29 30 31 30 29 27 30 40 44 46 48 49 50 51 52 52 50 50 50 50 51 53 53 54 55 55 56 57 56 56 55
30 31 34 32 27 25 27 26 27 27 26 30 31 30 30 30 30 30 29 28 29 37 43 46 48 49 50 51 52 53 52 50 51 52 52 52 53 54 56 56 56 56 53 52
27 32 32 26 25 23 23 29 28 25 27 29 28 29 30 30 30 28 29 29 30 31 37 41 45 47 48 49 51 52 52 51 51 52 52 54 53 54 54 53 52 52 52 51
30 30 26 29 28 26 26 26 28 28 28 29 28 28 30 30 30 30 29 30 31 38 47 50 51 51 51 52 52 52 51 51 51 51 50 50 51 51 49 49 49 48 47 46
29 30 31 32 30 29 29 26 31 30 30 30 29 28 26 30 28 28 31 38 48 49 49 50 50 50 51 50 50 50 50 50 50 50 48 48 47 46 46 46 45 44 43 41
31 26 22 31 34 35 34 29 32 32 32 31 29 27 27 31 37 43 48 48 48 49 48 49 50 50 50 50 49 48 48 47 48 47 47 45 46 45 45 43 40 38 36 36
29 29 30 35 38 38 29 30 35 36 33 32 28 31 32 42 47 48 48 47 47 47 47 48 49 49 47 47 45 46 46 45 45 44 44 43 41 40 38 35 33 31 30 30
32 29 26 35 39 37 34 40 39 38 37 37 35 36 39 46 48 48 48 47 47 46 46 47 47 47 45 44 44 42 39 38 38 38 38 37 36 35 34 32 30 30 29 28
33 32 35 34 34 37 42 40 40 39 39 40 36 37 43 48 48 48 47 46 47 45 44 44 44 44 42 37 35 35 34 33 33 33 33 34 33 33 32 31 30 29 28 26
33 32 33 34 36 38 39 40 43 40 42 41 39 43 46 48 47 46 45 41 39 39 37 35 36 34 33 33 33 31 30 30 29 28 29 30 30 31 31 31 30 29 28 26
32 34 34 32 34 35 38 42 41 43 42 43 42 43 46 44 37 34 32 31 30 30 28 27 27 27 28 29 28 26 25 25 26 28 28 28 28 29 28 29 31 29 28 28
28 32 32 32 35 39 38 40 41 41 41 44 43 41 33 30 30 30 28 28 27 27 26 26 26 27 28 28 28 28 28 29 30 30 29 27 27 27 30 30 30 29 29 27
30 35 35 35 39 40 42 38 34 33 37 42 39 33 29 27 28 28 27 27 27 27 28 28 28 28 29 29 29 29 28 28 27 27 27 26 26 26 24 27 28 28 28 27
33 34 30 35 39 37 37 35 34 32 30 29 28 27 27 27 27 26 26 26 26 26 25 26 26 26 27 26 26 25 24 25 24 24 23 23 22 23 23 22 21 22 23 24
32 34 34 38 36 33 32 31 30 28 28 28 27 27 26 25 25 25 25 25 23 23 22 22 22 23 25 25 24 23 23 22 22 21 19 19 19 18 19 18 17 17 16 16
39 39 39 36 34 32 31 29 28 26 25 25 24 23 22 22 21 21 21 22 19 19 20 20 21 23 23 22 20 19 17 17 16 16 16 15 14 14 14 14 13 11 10 10
37 37 35 32 29 27 26 26 25 24 23 23 22 21 20 19 18 18 18 19 19 19 19 19 19 19 19 17 17 16 15 14 14 14 13 12 11 10 9 8 9 9 7 6
33 31 34 31 26 25 24 24 24 23 22 22 21 19 18 16 15 16 16 17 17 17 18 18 16 14 13 13 13 13 13 12 11 10 8 8 8 7 5 4 4 4 3 5
28 27 26 25 25 24 23 23 22 22 21 20 18 17 17 17 16 16 16 15 14 13 15 14 16 13 12 13 11 10 9 7 6 5 5 1 -0 1 -2 -2 -2 -5 -2 -1
26 25 25 24 24 23 22 22 22 20 20 18 17 15 14 13 13 13 13 13 14 15 13 10 9 8 8 8 8 6 5 4 3 -1 -2 -4 -9 -11 -8 -6 -5 -9 -12 -8
25 24 23 23 22 22 21 21 19 18 19 17 15 14 13 14 14 13 10 9 12 11 9 9 8 7 6 5 4 2 0 -2 -4 -8 -9 -15 -14 -12 -16 -20 -18 -18 -18 -18
23 22 21 21 20 19 20 20 19 18 17 16 14 13 11 10 10 10 11 8 8 7 6 6 4 2 2 2 1 -2 -2 -5 -8 -9 -13 -15 -20 -24 -26 -24 -23 -22 -22 -22
22 21 20 19 18 18 19 19 19 18 16 15 14 14 12 11 9 6 4 5 6 4 3 2 -1 -2 -6 -6 -8 -10 -11 -13 -16 -20 -25 -28 -28 -28 -26 -25 -23 -27 -25 -23
21 20 20 20 19 17 15 16 17 16 15 14 13 12 9 7 7 7 5 3 2 1 -0 -2 -4 -6 -11 -11 -12 -15 -18 -23 -26 -29 -24 -26 -31 -29 -27 -30 -27 -27 -28 -26
21 21 20 19 16 15 16 15 14 14 13 12 11 9 9 8 6 6 4 3 3 -2 -7 -10 -9 -11 -15 -17 -19 -22 -26 -27 -29 -29 -29 -29 -29 -31 -32 -31 -32 -31 -30 -28
20 19 19 19 17 16 15 13 11 11 8 7 7 7 7 7 5 3 1 -1 -3 -8 -10 -15 -20 -19 -21 -21 -26 -26 -24 -20 -26 -26 -29 -29 -31 -29 -33 -30 -32 -30 -30 -29
18 17 15 14 15 15 14 11 10 8 8 5 4 4 3 1 -1 -2 -5 -8 -11 -14 -19 -23 -22 -18 -22 -25 -24 -25 -25 -26 -27 -26 -31 -33 -33 -35 -36 -35 -33 -31 -29 -29

GFSNGP_sfc_dewp_093.txt.gz
Dewpoint
27 25 24 27 27 27 29 32 26 23 24 26 27 29 31 33 34 33 32 31 41 44 47 49 50 51 52 53 53 53 52 53 53 53 54 54 55 55 55 56 57 57 58 58
28 28 28 25 27 30 32 33 30 25 24 30 31 32 32 32 32 32 33 31 32 39 45 48 50 51 52 52 53 53 52 52 52 52 52 54 55 56 56 57 57 58 57 57
25 28 29 28 28 31 32 31 28 26 29 30 30 31 32 33 33 32 33 33 34 34 40 46 48 50 51 52 54 53 52 51 51 51 51 53 54 55 55 56 57 57 56 55
26 30 23 25 31 33 32 29 28 28 30 30 30 31 32 32 32 33 33 34 34 36 44 49 50 50 51 52 53 53 53 53 53 53 53 54 54 55 53 51 50 48 46 45
24 25 27 18 33 33 34 34 33 26 27 29 30 30 31 31 31 33 35 36 43 47 49 50 51 51 52 52 52 52 52 52 52 52 51 49 48 47 47 45 42 41 40 38
28 25 20 25 34 40 36 30 38 35 36 34 32 31 29 35 40 47 47 48 49 49 50 50 51 51 51 50 48 47 47 48 48 48 47 46 45 43 40 38 36 35 33 33
25 25 27 32 37 40 30 34 41 41 39 38 33 34 38 47 48 46 46 47 48 48 49 49 49 48 47 46 45 45 45 45 44 44 42 41 40 38 36 34 32 31 30 30
27 27 23 36 39 33 39 42 39 41 40 42 39 40 47 48 47 47 46 47 48 47 47 47 46 45 43 41 40 39 39 39 38 38 37 37 36 34 33 32 30 29 28 28
33 29 39 38 35 38 42 40 40 43 42 42 42 44 47 47 46 46 45 44 44 43 41 41 42 41 38 37 36 35 34 32 32 32 32 33 33 32 31 30 29 28 27 26
31 31 33 35 36 38 38 39 40 44 44 45 46 47 46 46 41 39 39 38 35 32 31 30 32 33 33 32 32 31 31 31 30 30 30 30 29 30 31 31 30 29 28 26
30 29 34 34 35 35 38 40 41 42 45 45 46 41 38 36 34 33 32 32 31 30 29 28 29 29 29 29 31 30 30 29 29 28 28 28 28 28 27 29 30 29 29 29
27 29 33 33 35 37 41 39 38 40 43 44 41 36 32 30 30 30 29 29 29 29 29 29 29 29 29 30 31 30 30 29 30 29 28 27 27 27 28 27 27 27 27 27
28 29 36 36 36 39 40 37 35 36 37 36 36 34 32 30 30 29 29 29 28 28 27 27 27 27 27 29 29 28 27 26 26 26 26 26 26 25 23 24 24 25 26 24
33 34 34 31 31 38 37 35 33 31 30 31 31 30 30 30 30 29 27 27 26 26 25 25 25 26 26 25 25 25 24 25 24 23 23 23 23 22 22 21 20 19 19 19
33 33 33 33 37 34 34 34 33 32 30 30 29 29 28 26 25 25 26 26 25 24 24 24 23 23 24 24 24 23 21 20 20 20 20 19 18 17 17 16 15 13 12 12
37 38 39 38 35 33 32 31 29 28 27 26 25 24 23 22 21 21 23 23 20 19 21 20 21 22 22 20 19 17 17 17 16 15 14 14 14 13 13 12 11 10 9 9
37 37 37 35 31 29 29 29 28 26 24 23 22 21 19 18 18 18 18 19 19 19 19 19 19 19 17 16 14 12 12 12 12 11 10 10 10 10 9 10 9 8 8 7
32 32 32 36 29 26 25 25 25 24 21 21 21 20 18 17 16 16 17 17 16 16 16 16 14 12 11 11 11 11 10 9 9 9 8 8 7 7 7 6 5 5 5 5
28 27 27 27 26 25 24 24 23 21 21 20 18 17 16 16 16 16 17 15 14 12 12 11 13 10 8 9 8 8 8 7 6 5 5 4 5 4 4 4 3 3 2 2
26 25 25 25 25 24 23 23 22 20 20 17 16 15 15 15 16 15 14 13 12 10 7 6 5 5 5 5 7 5 7 5 2 3 3 2 2 2 2 -2 -1 -0 0 -0
25 25 24 23 22 22 21 21 18 17 17 16 14 13 13 14 14 14 11 9 9 8 6 7 5 4 2 2 2 4 4 3 2 1 1 0 -0 -1 -2 -2 -2 -3 -3 -4
23 21 21 20 20 19 20 19 18 16 14 14 13 12 11 11 10 10 10 7 6 6 4 3 3 2 2 2 2 3 1 0 0 -0 -1 -2 -2 -3 -4 -5 -5 -5 -5 -6
21 20 19 18 17 17 17 16 16 15 14 14 13 13 12 10 7 6 3 3 3 3 3 2 0 -1 -2 1 0 -0 -2 -2 -2 -3 -4 -4 -4 -5 -5 -6 -6 -7 -8 -9
20 19 19 19 18 16 14 15 15 14 13 12 12 12 9 7 7 5 4 2 2 2 2 1 -1 -3 -3 -2 -2 -3 -2 -3 -3 -4 -5 -9 -6 -6 -7 -9 -10 -9 -10 -11
20 19 18 17 15 14 14 14 13 12 12 11 10 7 7 6 6 5 5 3 2 0 -0 -3 -5 -6 -3 -2 -3 -3 -3 -3 -4 -5 -6 -6 -8 -9 -9 -10 -12 -10 -11 -11
19 18 18 18 16 15 14 12 10 10 9 7 7 8 7 6 4 3 1 -0 -1 -3 -2 -3 -4 -3 -3 -3 -4 -4 -4 -5 -5 -6 -8 -9 -10 -10 -11 -12 -12 -11 -12 -12
17 16 15 14 15 14 13 11 9 8 7 6 5 5 3 2 1 -1 -3 -3 -3 -4 -4 -3 -2 -3 -3 -3 -4 -6 -6 -6 -10 -8 -9 -10 -11 -11 -13 -13 -13 -13 -12 -13

GFSNGP_sfc_dewp_099.txt.gz
Dewpoint
15 14 14 17 17 17 19 22 25 25 22 23 25 24 25 26 26 27 29 31 37 41 44 46 48 50 51 52 53 53 52 52 53 54 55 55 55 56 55 55 54 54 54 54
17 16 15 15 14 13 12 15 18 21 22 23 24 25 28 28 25 25 25 27 30 36 41 44 46 48 50 51 53 54 53 53 53 54 54 55 55 56 55 55 54 54 54 54
21 16 15 20 17 12 9 8 11 16 21 23 27 26 26 27 27 25 28 28 29 32 36 41 46 48 49 51 52 53 53 52 53 53 53 54 54 54 54 55 55 49 45 43
23 23 19 18 18 20 21 19 13 9 10 23 27 30 27 26 26 26 28 30 31 33 36 38 44 48 50 51 52 53 52 52 52 53 53 53 53 51 47 44 41 39 37 36
23 18 15 13 15 20 23 25 25 27 30 36 37 34 30 27 27 27 33 37 36 39 36 39 42 47 49 50 52 53 52 52 52 53 52 49 45 42 39 37 35 35 35 34
25 19 16 15 27 34 33 30 37 37 38 40 39 38 31 33 31 41 42 43 42 44 47 47 47 49 50 51 52 50 48 47 46 45 42 39 37 36 34 34 33 32 32 32
25 25 22 19 18 30 28 33 39 37 36 38 39 42 44 47 45 46 46 47 48 48 50 51 51 50 47 45 43 42 41 39 38 37 36 35 34 33 32 31 30 30 29 30
26 28 24 23 26 30 38 40 39 36 37 40 42 44 47 46 46 46 47 47 48 48 48 47 46 43 40 38 38 38 36 36 35 35 34 33 32 32 31 30 29 28 28 28
28 27 26 27 35 38 41 39 40 38 39 42 44 44 46 45 45 43 41 40 41 40 40 40 40 38 36 36 36 35 34 33 33 33 32 32 31 31 30 29 29 29 28 28
25 24 26 28 34 32 38 38 39 38 39 45 46 47 45 44 42 40 38 38 37 36 35 35 36 36 36 36 34 33 32 31 31 30 29 29 29 30 31 30 30 29 29 28
25 24 25 24 29 35 37 33 31 37 42 45 48 47 45 41 38 36 36 35 34 34 34 35 35 35 35 35 34 32 31 30 29 28 27 27 27 27 26 28 30 28 27 27
25 28 28 28 28 30 30 31 35 38 45 45 43 42 39 36 36 35 34 34 33 34 34 34 34 34 34 34 33 32 31 30 30 29 27 24 23 24 25 24 23 24 23 23
25 26 26 27 28 30 30 34 36 39 41 39 36 36 34 32 32 31 31 32 32 32 32 32 32 32 32 33 32 32 31 30 30 30 28 26 23 21 19 20 20 19 19 18
26 27 27 27 28 30 30 34 37 37 36 35 33 32 31 30 29 27 26 26 26 27 28 29 29 29 31 32 32 32 32 31 30 29 28 28 27 26 24 21 19 16 15 14
26 27 28 30 29 28 30 36 36 35 33 31 29 28 27 25 24 25 25 25 24 23 23 25 26 27 30 30 30 30 29 27 27 27 26 25 24 22 20 19 16 14 13 13
29 31 30 31 30 33 35 36 37 33 30 29 28 27 25 24 22 23 24 25 23 22 23 24 24 26 27 26 23 22 21 23 22 22 21 18 17 16 15 15 14 12 10 10
32 30 31 34 33 36 35 36 36 32 29 26 24 22 19 19 19 20 20 22 23 23 24 24 24 22 20 18 17 16 14 14 17 14 14 15 15 15 14 14 13 11 9 8
34 34 34 35 35 35 34 35 32 28 25 23 23 22 21 19 17 18 18 19 19 20 20 21 20 14 11 10 11 12 14 14 14 15 14 15 13 12 13 12 11 10 11 8
32 32 33 32 34 35 34 32 28 25 24 22 20 19 19 18 18 18 20 19 18 16 17 15 14 11 9 11 11 12 13 13 11 11 12 12 13 12 13 12 11 11 9 9
29 29 30 31 32 33 29 27 25 24 22 21 19 18 18 18 18 18 17 16 14 11 6 5 5 5 7 9 12 11 13 13 11 13 13 12 13 11 9 6 9 10 11 10
27 27 27 27 26 27 26 25 23 21 21 20 17 16 15 17 17 17 15 12 7 6 4 5 3 4 5 8 10 15 15 14 13 12 12 12 11 10 11 11 10 9 9 9
25 24 24 23 22 22 23 22 20 19 18 17 17 16 15 14 14 15 15 11 8 8 6 6 6 8 8 11 11 14 12 12 12 12 12 12 11 10 9 9 8 7 7 7
23 22 20 18 18 18 18 18 18 17 16 16 16 16 15 15 14 11 8 8 7 7 6 8 8 8 9 13 13 12 11 10 10 10 10 10 9 9 8 5 6 6 5 4
21 20 19 19 19 17 15 16 17 16 16 16 15 16 13 12 12 8 7 8 7 8 8 8 8 8 9 12 12 11 10 10 9 9 7 5 8 6 6 4 3 5 3 2
21 21 20 18 16 16 15 16 15 15 14 14 14 13 11 9 10 9 8 7 5 4 5 5 6 7 11 11 10 10 9 9 9 8 7 6 6 5 5 4 3 2 1 2
22 20 20 19 18 17 16 15 13 13 12 11 11 12 11 10 10 9 8 6 5 5 8 9 9 9 9 8 8 7 7 6 5 4 4 5 4 4 3 1 2 2 2 1
20 18 17 16 17 17 16 15 14 13 13 11 9 10 9 9 8 7 7 8 7 7 8 9 8 7 7 7 6 6 6 4 -0 3 4 4 3 4 2 1 1 1 -0 -1

GFSNGP_sfc_dewp_102.txt.gz
Dewpoint
15 13 11 13 16 19 20 22 27 27 24 25 29 32 30 29 30 28 27 29 35 42 45 48 50 52 52 54 53 53 52 54 55 56 56 56 56 56 56 56 55 55 55 55
15 14 12 10 10 15 16 16 15 17 18 20 22 23 23 25 25 26 28 28 27 37 42 46 49 51 52 53 53 53 52 53 54 56 56 56 56 56 56 56 56 56 54 49
16 17 14 14 11 11 13 14 15 14 17 18 20 21 24 27 28 28 27 28 28 34 38 45 48 50 52 53 54 53 53 53 53 54 54 55 56 56 56 53 46 42 40 39
23 22 17 18 13 14 16 14 12 14 12 11 11 18 32 35 28 30 27 28 32 38 40 41 47 49 52 52 54 54 54 53 53 54 54 54 53 45 42 40 38 36 35 35
22 18 17 13 14 23 32 29 38 38 38 37 37 38 37 44 45 44 41 38 42 43 44 42 45 49 50 50 52 53 53 53 53 54 48 43 40 38 37 36 35 34 34 33
25 18 14 14 23 24 25 26 39 37 39 36 35 38 37 44 47 46 47 47 45 46 47 48 51 51 50 51 52 48 47 46 43 42 40 37 36 35 34 33 32 32 31 32
26 25 22 18 20 24 21 30 40 38 36 38 39 38 42 45 47 46 47 48 49 50 50 49 47 46 44 43 42 40 39 38 37 36 35 36 34 32 32 31 30 29 29 29
26 24 21 27 28 29 36 34 37 38 38 39 40 42 44 47 45 45 44 44 46 46 45 45 44 41 39 37 38 37 37 35 34 34 33 32 32 31 30 30 29 28 28 27
26 26 31 31 32 37 36 36 36 37 37 38 40 43 44 46 42 40 39 39 39 39 38 38 39 38 36 36 36 35 34 35 33 32 32 32 31 30 30 29 29 28 28 27
32 31 34 33 30 32 33 33 33 34 36 37 43 46 47 43 40 38 38 37 37 36 36 36 36 36 35 34 33 32 31 30 30 30 29 29 30 30 30 29 29 27 26 24
27 31 31 32 32 33 32 31 34 34 38 45 45 46 44 39 36 36 35 36 36 36 36 35 35 34 33 33 32 29 28 28 27 26 25 24 25 25 25 27 26 24 23 23
30 34 32 34 31 29 31 31 36 37 42 40 41 39 37 35 35 35 34 35 36 36 35 35 35 34 35 33 31 30 28 27 26 25 24 22 21 22 25 24 23 22 21 19
28 29 27 29 28 27 29 36 36 39 38 36 34 33 32 31 30 28 28 29 29 30 32 32 33 34 34 33 31 29 27 26 25 24 23 22 21 20 17 19 19 18 17 16
26 27 27 27 30 31 29 36 38 35 34 33 32 30 28 26 25 24 24 25 26 26 27 28 29 30 32 32 32 32 31 31 30 29 27 24 22 21 19 17 14 14 15 15
26 26 31 31 33 28 31 36 36 33 31 29 28 26 25 24 23 23 25 26 26 25 25 26 25 26 29 30 29 29 29 28 28 27 26 25 24 22 20 18 16 14 14 15
24 29 30 29 36 33 34 34 36 32 29 27 26 25 23 24 23 23 25 25 23 22 24 24 24 26 27 27 26 26 25 23 22 21 20 19 18 18 16 14 12 10 10 11
31 31 33 32 32 36 35 36 36 31 28 25 23 21 21 20 20 20 20 22 22 22 23 24 23 25 24 22 20 20 19 18 18 17 17 17 16 16 15 13 10 8 8 8
33 33 33 34 33 34 35 34 31 29 25 23 22 22 21 19 18 18 18 19 19 19 20 21 22 23 21 19 16 16 16 16 16 16 15 15 15 14 14 12 12 11 10 9
31 31 31 32 33 35 34 30 27 25 23 22 20 18 19 19 18 18 19 17 16 16 18 20 21 17 14 15 14 14 15 15 14 14 14 14 14 13 13 12 11 11 10 9
28 29 29 29 29 29 27 26 25 23 21 19 18 18 18 17 16 16 16 14 16 15 10 9 9 10 11 13 15 14 15 15 13 14 13 12 11 9 9 8 10 10 9 8
25 25 25 25 25 25 25 24 21 20 20 20 16 15 15 16 16 16 14 12 8 8 6 9 9 10 12 13 14 16 15 14 13 12 12 12 11 10 10 10 9 9 8 7
24 23 22 23 21 21 22 22 20 18 18 18 17 16 14 13 13 14 15 13 14 14 12 12 11 12 12 13 14 15 13 13 13 13 12 11 10 9 9 8 7 7 7 5
21 20 19 18 18 18 18 18 18 17 16 15 15 15 14 15 14 11 9 10 10 11 11 12 13 13 13 14 13 12 11 11 10 10 10 9 9 8 5 4 6 5 4 1
20 19 18 19 19 17 16 17 17 16 16 15 14 14 12 9 10 12 10 10 10 11 11 12 13 12 12 13 12 11 11 9 9 8 8 7 7 6 5 2 2 4 1 -0
21 20 18 18 16 15 16 16 15 14 14 13 14 14 14 13 9 9 9 9 10 9 10 10 11 11 12 12 11 9 9 8 9 8 7 7 6 5 4 3 2 -1 0 1
22 21 20 18 17 16 17 16 14 14 12 10 11 12 12 11 10 10 9 9 9 10 11 11 11 10 10 9 9 8 8 6 5 5 5 5 4 4 2 0 1 1 -1 -3
19 18 17 18 18 17 16 14 13 11 12 11 9 11 10 10 10 9 9 9 9 10 10 10 10 9 9 9 8 7 4 1 -1 4 4 4 3 3 0 -0 -1 -2 -3 -4

GFSNGP_sfc_dewp_105.txt.gz
Dewpoint
18 16 15 14 13 12 13 18 30 29 29 31 32 36 37 38 34 25 25 27 29 43 48 50 51 53 53 54 54 54 55 55 54 55 55 55 54 55 55 55 55 55 55 55
17 14 12 13 14 13 12 12 15 17 19 23 18 23 22 30 26 27 27 27 26 30 45 49 51 52 53 53 53 54 54 54 55 55 55 55 54 54 55 55 55 52 45 44
18 17 15 14 16 14 11 10 13 13 16 19 13 12 37 43 44 44 45 46 38 29 30 48 52 51 52 53 53 53 53 54 55 55 55 55 55 55 54 47 42 40 38 37
20 23 15 17 21 17 13 13 20 35 38 38 37 38 44 46 45 45 47 47 48 47 46 42 51 52 52 53 52 53 53 53 54 55 55 55 51 44 41 39 38 36 35 34
23 21 23 19 20 27 27 30 39 37 38 38 37 38 43 44 47 46 47 47 49 50 49 48 50 54 56 54 53 53 52 52 53 54 46 43 40 38 37 35 34 33 33 33
24 20 13 20 28 28 26 28 39 39 38 38 37 36 39 45 46 46 47 46 48 47 46 45 44 52 52 52 51 46 43 43 43 42 40 38 36 34 34 33 32 31 31 32
23 20 25 26 27 29 23 29 39 38 38 38 36 38 40 46 45 45 44 43 45 43 41 42 42 43 42 41 40 41 41 40 38 37 35 34 34 33 31 30 29 29 29 29
23 18 18 30 31 28 36 36 37 37 37 38 38 40 44 45 42 41 40 40 40 39 39 39 39 41 40 38 38 39 38 38 36 35 34 33 32 31 30 29 28 28 27 27
24 23 36 38 38 41 37 34 36 35 36 37 39 44 45 42 39 38 38 38 38 38 37 37 37 38 38 38 38 38 37 36 35 34 33 31 30 30 29 29 28 28 27 25
33 34 36 38 39 38 33 33 32 34 36 43 44 46 43 39 37 36 36 36 36 36 36 35 35 34 34 34 34 33 32 31 31 31 30 31 31 30 29 28 26 25 23 21
35 36 37 38 38 34 34 32 32 39 42 43 42 39 38 36 35 35 35 36 36 36 34 34 33 33 33 32 31 29 28 27 26 26 25 25 25 25 23 25 25 23 22 21
33 37 38 36 33 36 35 36 40 42 37 36 37 36 34 32 32 32 30 30 33 35 34 34 34 32 32 31 30 28 26 25 24 23 22 21 20 22 26 25 25 24 24 22
29 33 34 31 33 36 38 39 37 35 35 33 32 31 30 28 27 28 27 27 28 29 30 31 32 32 31 30 29 27 25 24 23 22 21 20 20 18 16 21 23 22 22 21
28 28 32 34 34 36 37 35 34 32 32 31 28 27 26 25 25 25 25 26 27 27 27 28 29 30 31 31 29 27 26 25 24 22 21 19 18 18 17 15 15 17 19 19
27 33 36 34 36 38 37 35 32 30 29 27 26 25 25 23 23 24 25 26 26 26 26 26 26 27 29 30 29 28 28 27 27 26 25 23 21 18 17 16 16 16 17 16
33 34 34 34 34 36 37 34 31 28 27 24 23 23 24 24 23 23 24 25 23 22 23 23 23 25 26 26 25 25 25 25 23 22 20 19 17 15 13 12 11 10 10 12
32 32 33 33 34 34 36 35 31 28 25 23 22 22 21 20 20 19 20 21 21 21 22 22 22 24 25 25 24 23 22 21 19 18 18 16 15 12 10 10 9 9 10 11
30 31 32 32 34 34 33 30 27 25 23 22 21 21 20 18 17 18 18 19 19 19 20 22 22 23 23 23 21 18 17 17 17 17 17 16 15 13 10 9 9 9 9 9
28 29 30 29 30 29 27 25 23 22 22 21 19 18 18 17 17 17 18 17 16 16 19 21 22 20 18 18 16 16 15 15 14 14 14 13 12 11 10 9 9 8 7 6
24 25 26 26 27 27 25 24 23 21 20 19 19 17 16 16 16 15 15 14 16 17 19 17 15 16 16 16 16 14 14 13 11 10 10 9 8 8 8 7 7 4 1 -0
23 22 23 23 23 23 22 22 20 19 20 18 15 14 14 15 16 15 13 12 17 19 18 17 15 14 13 13 13 14 13 12 11 11 10 10 9 7 6 3 4 2 -1 -2
20 16 17 20 19 19 20 20 19 18 17 16 15 14 13 12 12 12 13 12 14 15 15 16 15 14 14 14 14 14 13 13 12 11 9 8 5 3 1 2 1 -2 -7 -10
12 14 13 14 16 16 17 17 16 16 15 14 13 13 12 13 12 9 7 13 14 14 14 14 13 12 12 13 12 11 11 9 9 8 6 5 3 -1 -2 -3 -5 -7 -12 -11
13 13 16 18 16 15 13 14 14 14 13 13 12 12 10 8 8 11 12 12 12 13 13 14 13 13 12 11 10 9 8 7 7 6 5 0 -2 -5 -5 -6 -7 -13 -15 -10
18 17 15 15 13 12 13 13 12 12 12 12 12 12 11 11 7 9 10 11 13 11 12 12 12 10 9 7 6 5 5 7 6 4 3 1 -1 -5 -10 -13 -16 -14 -11 -14
19 18 17 16 15 15 15 13 10 10 9 8 9 9 9 10 9 9 9 10 10 10 10 10 10 9 8 7 7 6 4 3 3 2 -1 -2 -5 -7 -14 -14 -14 -15 -18 -19
18 18 17 16 15 14 13 11 10 9 10 9 7 9 10 10 9 9 8 9 9 8 8 9 9 8 8 7 3 1 -0 -1 -0 -0 -3 -7 -8 -15 -17 -17 -17 -17 -18 -18

GFSNGP_sfc_dewp_108.txt.gz
Dewpoint
18 18 15 14 13 12 11 18 25 23 20 18 25 33 39 42 42 38 38 39 42 49 52 54 55 54 54 54 54 54 54 53 55 54 54 53 54 54 55 55 55 56 56 55
18 19 17 17 16 15 13 12 11 15 17 18 31 29 35 36 42 44 46 47 48 45 49 53 54 55 55 54 54 54 54 54 54 55 55 54 53 53 53 54 55 51 49 44
16 20 20 18 17 15 14 13 13 12 18 38 37 36 42 45 45 45 45 46 48 48 47 48 53 54 55 55 55 54 54 54 54 54 54 54 54 54 53 45 42 40 39 38
20 22 12 13 21 21 17 16 24 31 37 39 37 44 43 45 45 45 45 45 47 47 46 45 45 54 55 56 56 55 54 54 54 54 54 54 51 44 41 40 38 36 35 34
15 18 18 17 21 28 27 24 39 38 39 38 38 42 41 45 46 45 45 45 46 45 44 43 44 49 55 55 56 55 54 54 54 55 49 44 41 38 37 36 35 34 33 33
21 16 16 23 28 29 31 28 38 39 39 38 37 35 36 45 45 43 43 42 43 41 41 42 43 45 53 52 54 49 46 47 49 45 42 39 37 35 35 34 33 33 32 32
20 15 22 25 23 26 27 29 38 37 38 38 35 37 39 45 42 41 40 40 40 40 39 40 42 43 41 42 41 44 43 42 42 40 37 36 34 33 32 31 31 30 30 31
22 16 16 33 35 29 34 36 36 36 36 36 38 43 44 41 39 38 38 37 38 38 37 38 40 42 40 39 41 41 40 38 36 35 34 33 32 31 31 30 29 28 28 28
22 22 32 38 38 40 39 34 34 33 33 38 43 44 41 38 37 36 36 36 37 36 36 35 36 38 38 40 39 38 37 36 34 33 32 32 31 31 29 28 27 27 25 24
30 34 36 39 39 39 37 32 31 33 40 43 42 42 38 36 35 35 36 36 36 35 34 33 34 34 34 35 35 34 33 33 32 32 31 30 30 29 28 26 24 23 22 21
33 35 37 37 40 39 36 35 35 40 41 41 40 37 36 34 33 33 32 35 35 34 32 32 32 32 31 31 30 29 28 28 27 26 25 24 25 25 24 25 24 22 21 22
30 36 36 35 37 38 35 37 41 38 35 34 34 32 31 29 29 29 30 31 31 33 33 32 31 30 30 30 28 27 25 24 24 23 22 22 21 22 26 26 26 25 25 23
28 31 33 33 35 39 37 36 35 34 33 31 30 29 27 27 27 27 27 28 29 30 31 29 29 28 27 27 26 25 23 23 22 21 21 20 19 19 19 24 26 25 25 24
31 33 35 35 37 36 34 32 32 30 29 28 27 26 25 25 23 24 25 27 28 29 29 29 28 27 27 26 25 23 23 22 20 20 19 19 19 18 18 17 17 19 23 23
34 36 36 35 38 36 35 32 30 27 26 25 25 24 25 23 23 23 24 25 25 25 25 26 26 27 29 27 25 24 22 22 21 20 19 19 19 19 18 17 16 15 15 17
33 33 33 34 34 37 35 32 29 27 25 24 24 24 23 22 22 22 22 23 21 20 22 23 23 25 26 26 25 24 24 23 22 21 19 18 17 16 15 14 13 13 11 9
30 30 31 31 33 35 32 31 29 25 24 23 22 21 20 19 19 19 19 20 21 21 22 22 22 24 25 25 24 23 22 22 20 18 16 15 14 13 13 12 11 11 10 10
27 29 29 29 29 32 28 27 25 24 22 22 21 21 19 18 17 17 18 19 18 18 20 21 22 22 22 23 22 21 20 19 17 15 13 12 12 12 11 10 9 8 8 7
25 24 25 26 28 27 26 25 24 22 22 21 19 18 17 17 17 17 18 17 17 16 18 21 22 21 20 21 20 18 17 16 14 14 13 12 12 11 9 8 7 7 6 4
21 22 23 24 24 26 24 23 23 21 21 19 18 17 15 16 16 16 15 15 17 18 20 20 20 19 18 17 16 14 14 13 12 12 11 10 9 7 6 5 4 2 0 -0
19 19 20 20 21 22 21 21 20 19 19 18 16 15 14 15 15 15 13 12 17 19 19 18 15 14 14 14 14 14 13 12 11 10 9 8 7 6 4 2 0 -1 -0 0
13 10 11 13 16 18 19 19 18 17 17 15 15 14 12 11 11 12 14 13 16 17 17 16 16 15 14 15 14 13 12 11 10 9 8 6 4 3 1 -0 -2 -2 -3 -7
5 7 8 9 11 14 15 15 15 15 14 14 13 13 12 12 13 10 8 15 15 15 14 14 13 13 12 13 12 11 9 9 8 6 5 3 2 1 -1 -6 -7 -7 -10 -11
9 12 11 11 11 11 9 11 12 12 11 12 11 11 10 9 10 12 13 14 14 14 13 13 13 12 11 11 10 9 8 6 5 3 2 0 -1 -2 -2 -5 -7 -14 -12 -10
12 12 10 8 10 10 11 12 11 10 9 9 9 10 10 11 9 11 12 13 13 11 10 9 9 9 8 8 8 8 6 5 5 3 2 0 -3 -6 -9 -8 -9 -11 -16 -19
15 15 11 10 13 13 12 11 9 9 8 6 7 8 9 10 11 11 11 10 10 9 9 8 7 6 7 6 5 5 5 4 3 2 0 -2 -4 -8 -8 -11 -17 -20 -22 -23
15 16 14 13 12 12 11 10 9 8 8 7 6 9 9 9 9 9 9 8 7 8 8 9 8 7 5 4 3 3 3 2 0 -1 -3 -5 -8 -14 -17 -18 -20 -23 -24 -24

GFSNGP_sfc_dewp_114.txt.gz
Dewpoint
16 17 17 15 15 15 14 17 16 8 7 7 11 11 15 17 39 42 42 43 44 48 48 47 50 55 55 55 54 54 54 54 54 56 56 56 55 55 55 55 55 55 55 56
17 19 18 17 18 19 18 16 15 14 13 14 14 13 14 28 39 42 43 43 45 48 46 46 46 48 55 55 54 54 53 53 53 55 55 55 55 55 55 55 55 55 53 51
11 18 17 12 13 15 16 18 17 14 15 16 16 20 38 41 44 44 45 45 46 46 45 45 45 46 47 55 54 53 54 54 53 54 54 55 55 55 54 49 48 45 43 44
17 18 7 7 17 15 16 16 17 17 17 26 25 41 43 45 45 44 44 43 42 43 42 43 44 45 47 49 54 54 54 54 54 54 53 53 53 46 43 42 41 39 37 37
12 16 11 11 9 19 28 25 29 28 30 29 38 42 41 46 44 42 40 40 39 41 40 41 42 43 47 49 55 54 53 53 54 54 52 48 44 41 39 38 36 35 35 34
19 14 6 11 21 32 32 19 34 36 37 37 37 35 39 43 40 39 38 38 38 38 38 38 39 42 47 53 55 54 54 53 53 51 48 44 41 39 37 35 34 33 32 33
21 19 17 19 20 29 20 23 35 36 38 37 36 38 41 40 38 37 37 37 37 37 36 36 38 41 43 43 42 44 46 47 47 47 43 40 38 36 35 33 32 31 30 31
24 18 11 33 33 27 35 39 38 39 39 37 40 42 39 37 36 36 36 36 36 35 35 34 35 38 39 39 39 39 39 38 38 38 38 36 35 34 33 32 30 29 29 29
26 21 32 35 37 39 39 39 38 33 34 41 40 39 37 35 35 34 34 35 34 34 33 32 32 34 35 36 36 35 35 34 34 34 34 33 32 31 30 30 29 28 28 27
31 33 34 35 37 39 39 39 39 41 41 41 39 38 35 32 32 32 32 34 33 32 31 31 30 30 31 33 33 31 30 30 30 31 30 30 31 30 29 29 28 26 24 23
32 35 35 36 37 36 38 39 34 34 34 35 34 32 31 30 30 30 31 32 32 31 30 30 29 28 29 29 28 27 26 26 26 25 25 25 25 25 25 26 26 24 24 23
29 35 35 37 39 37 35 34 35 32 31 30 31 30 29 28 28 28 29 29 29 29 28 28 27 27 26 27 28 26 26 26 25 25 24 24 24 25 28 28 28 27 26 24
34 35 39 38 35 35 33 32 31 31 30 28 27 27 27 26 25 26 26 26 26 27 27 26 25 25 26 26 26 25 24 25 24 24 24 24 23 23 22 27 28 28 28 27
32 33 33 33 35 35 33 31 30 27 27 26 26 25 24 24 23 22 22 23 23 23 26 25 23 23 25 25 24 24 23 23 23 23 23 23 23 22 21 20 20 21 26 25
27 30 30 30 31 32 32 30 27 26 25 24 25 24 24 22 21 21 21 21 18 19 21 23 22 21 23 23 21 21 21 21 21 21 22 22 21 20 20 19 18 17 18 19
26 28 27 27 28 29 29 28 26 25 24 23 23 23 22 21 20 20 20 20 19 17 19 20 21 22 22 22 21 20 20 21 20 19 19 17 17 16 14 14 13 12 10 10
24 24 24 24 26 28 28 26 26 25 24 23 22 21 20 19 19 18 18 19 18 18 19 20 21 23 22 22 20 19 19 19 18 18 17 16 15 14 13 11 10 8 8 8
21 22 22 23 24 25 26 26 26 25 23 22 21 20 19 18 17 17 18 19 19 18 19 21 21 21 21 21 20 19 17 17 17 15 15 14 13 12 10 8 7 6 5 5
18 19 20 20 21 22 23 23 23 22 22 21 19 17 18 18 18 17 17 16 16 15 17 21 22 20 20 20 19 18 16 15 14 13 12 12 10 9 8 7 5 5 4 2
15 16 17 18 18 19 19 20 21 20 20 18 17 16 15 16 16 16 16 14 16 17 19 19 18 17 17 18 18 16 15 14 12 11 10 9 8 7 6 4 2 1 0 0
13 13 13 14 15 14 14 16 15 14 14 15 14 14 14 15 16 16 13 12 16 18 17 17 16 16 16 13 13 13 12 11 10 9 8 7 6 4 3 2 1 0 -2 -4
9 6 6 7 9 8 11 13 13 11 12 11 10 11 11 11 11 12 14 13 15 15 15 15 15 14 13 12 11 11 9 8 7 7 5 4 2 0 -0 -1 -2 -3 -4 -6
1 3 3 3 3 4 5 7 7 8 9 9 10 10 10 12 13 10 8 14 14 13 13 12 11 10 10 10 9 8 7 5 5 4 3 3 2 0 -1 -3 -4 -6 -8 -8
1 3 1 1 3 6 4 6 8 9 8 10 10 11 11 10 10 13 12 12 11 11 10 10 10 10 9 8 7 5 4 3 2 1 0 -1 -2 -3 -4 -5 -7 -9 -10 -9
4 4 4 2 4 4 4 6 6 7 8 8 9 11 12 12 10 11 11 10 10 7 7 7 7 7 7 5 5 4 3 2 1 1 0 -1 -2 -3 -4 -5 -7 -8 -10 -14
7 6 5 5 4 5 7 7 5 6 6 6 8 10 10 11 11 10 10 9 8 7 6 5 5 5 4 4 3 2 2 1 0 -1 -2 -4 -5 -6 -8 -9 -10 -8 -12 -18
11 10 10 7 8 9 9 8 5 5 6 5 6 9 9 9 9 9 9 8 7 7 6 5 5 4 4 3 2 1 0 -1 -2 -3 -5 -5 -6 -8 -9 -10 -12 -15 -16 -19

GFSNGP_sfc_dewp_117.txt.gz
Dewpoint
13 14 16 14 12 13 11 10 9 6 5 6 7 8 11 15 18 19 38 42 42 46 47 48 47 46 47 54 56 56 55 55 56 56 57 57 56 56 57 57 56 56 56 56
16 15 13 14 16 17 16 15 14 13 12 15 14 15 16 18 22 35 42 45 46 47 47 45 45 45 45 48 55 55 55 55 56 56 56 56 56 56 56 56 56 55 54 53
7 11 13 11 12 13 13 15 15 9 11 11 15 15 18 25 35 43 44 43 43 43 44 43 43 43 45 47 50 54 54 55 54 56 56 56 56 55 55 52 49 47 45 45
14 15 6 7 14 14 13 14 15 16 17 19 20 23 26 43 44 44 42 41 40 40 41 41 41 43 44 45 49 54 54 54 54 55 55 55 55 49 46 45 44 42 39 38
15 12 9 9 9 8 12 13 25 28 32 34 36 32 36 44 42 40 39 38 38 39 40 39 40 40 43 46 50 54 54 53 53 54 54 52 47 43 41 39 38 36 36 35
19 12 9 9 25 28 28 15 34 35 35 37 38 32 34 42 39 38 37 37 37 38 37 37 37 39 42 42 45 54 54 53 54 54 51 47 43 40 38 36 34 33 33 33
21 20 19 19 28 28 12 23 36 37 36 38 38 40 41 39 38 37 37 36 36 36 35 34 34 36 38 38 37 39 46 52 52 50 47 43 39 37 35 33 33 32 31 31
24 21 16 34 31 26 34 36 37 39 38 37 42 40 38 37 35 34 34 35 34 34 33 33 33 34 34 35 36 38 38 41 40 40 40 38 36 35 34 33 31 30 30 29
27 21 31 34 34 38 40 37 37 39 41 42 40 37 36 34 33 33 33 34 33 32 32 31 31 31 31 32 33 34 34 34 35 35 35 35 34 33 32 31 30 29 28 27
30 33 35 35 37 38 39 38 38 36 37 37 35 34 33 32 31 30 31 32 31 30 29 29 29 29 30 30 31 30 30 31 32 32 32 32 32 32 31 30 29 28 26 25
31 34 34 37 36 36 35 36 34 33 33 33 33 31 30 29 29 29 29 29 29 28 27 27 27 26 28 29 29 29 28 29 29 29 28 27 28 28 28 29 29 25 25 24
28 32 33 33 33 36 34 33 32 32 31 29 29 28 28 27 27 27 26 26 26 26 25 25 25 25 26 27 28 28 26 26 26 27 28 27 26 27 29 28 28 27 26 24
31 33 34 35 37 36 34 33 32 29 29 27 26 26 26 25 25 25 25 24 24 25 25 24 23 23 25 26 26 27 26 26 26 27 26 25 25 24 23 27 28 28 28 27
27 29 28 30 33 34 31 29 29 27 26 26 26 25 24 24 24 23 22 22 22 23 24 23 22 22 24 25 25 25 25 25 25 25 25 25 24 24 24 22 22 23 26 26
25 27 28 30 30 30 29 29 27 26 25 25 24 24 24 22 21 21 22 22 21 21 21 21 20 21 23 23 22 22 22 22 23 23 23 23 22 22 21 21 20 20 21 23
23 24 23 24 25 27 27 27 26 25 24 24 23 23 22 21 21 20 20 20 20 20 21 20 21 22 23 23 22 22 21 21 20 19 19 18 18 17 17 16 15 15 15 14
19 20 21 22 23 23 26 26 25 25 24 23 22 21 20 19 19 19 19 20 20 20 21 21 21 22 22 22 21 20 20 20 20 20 19 19 18 17 16 14 13 12 11 11
18 19 19 21 21 21 23 23 23 22 22 21 21 20 19 18 18 18 19 20 20 19 21 22 22 22 22 22 21 20 19 19 19 18 17 16 15 14 13 12 10 9 8 7
16 16 17 18 19 19 20 20 21 21 21 20 18 18 18 18 18 18 18 18 18 18 18 21 21 21 20 20 19 19 18 17 16 16 15 14 13 11 11 10 8 8 6 5
13 14 14 15 16 16 16 18 20 19 20 18 17 17 16 17 17 16 16 16 17 18 19 20 19 19 19 19 19 17 17 16 14 14 14 12 11 10 8 6 6 6 6 5
13 12 12 13 13 13 13 15 16 16 16 17 16 15 14 16 16 16 16 14 16 18 18 18 17 16 15 15 15 16 15 14 13 12 11 9 9 7 7 6 6 5 5 4
12 10 8 8 10 9 10 12 14 13 13 13 13 14 13 13 14 14 14 14 15 16 16 15 15 13 13 13 13 15 13 12 12 11 10 9 7 6 6 5 4 4 4 4
11 10 9 7 8 8 8 9 9 11 11 12 12 13 14 14 15 13 12 14 14 14 14 14 12 11 11 14 13 12 11 10 10 9 9 8 8 7 6 5 4 4 3 3
10 11 9 8 7 9 8 9 10 11 11 12 12 13 14 13 13 14 13 12 11 13 13 13 11 10 10 12 11 10 10 9 9 8 7 6 6 6 5 4 3 4 2 2
10 10 9 8 9 9 8 9 9 10 10 11 12 13 14 14 13 12 12 11 11 10 11 9 8 9 10 10 9 9 9 9 8 7 7 6 6 5 5 3 3 3 2 1
13 13 11 10 10 10 10 10 8 9 9 9 10 12 13 13 12 12 11 10 9 9 10 10 9 9 9 8 8 7 7 6 6 6 5 5 4 4 3 2 2 2 1 0
13 11 11 10 10 10 10 9 9 8 9 10 9 11 11 12 11 11 10 10 9 9 9 9 8 7 7 7 6 6 6 5 4 4 4 4 3 3 2 2 2 1 -1 -2

GFSNGP_sfc_dewp_120.txt.gz
Dewpoint
7 8 10 14 16 13 12 11 12 12 7 6 7 8 9 12 13 16 21 25 37 42 45 46 46 46 46 46 48 52 56 57 57 56 57 57 58 57 58 58 58 57 58 58
10 9 10 11 10 10 10 11 9 8 9 10 8 7 11 13 13 20 27 37 42 44 44 44 44 44 44 45 47 48 56 56 56 56 56 57 57 57 57 57 57 57 57 54
9 6 6 7 8 7 8 7 10 9 9 8 8 10 15 17 18 30 37 42 42 42 42 43 43 43 43 44 46 47 53 56 55 55 55 57 56 56 56 55 52 48 46 45
15 12 8 5 6 9 9 8 6 7 9 10 14 21 27 28 27 37 41 40 40 40 40 41 42 43 42 43 45 47 49 56 55 55 55 55 56 55 51 49 46 42 40 40
17 10 7 6 8 9 8 8 9 11 20 24 32 36 33 36 41 40 40 39 39 39 39 39 39 39 40 42 43 44 48 55 55 55 54 55 52 49 45 42 40 39 38 37
17 14 9 11 16 19 21 16 31 33 35 35 37 35 39 40 39 38 38 37 37 37 37 36 36 36 39 38 39 38 41 50 55 54 55 51 46 42 41 38 36 35 35 35
20 22 18 19 24 25 18 26 35 37 36 33 37 39 39 38 37 35 36 35 35 35 35 34 33 34 35 35 35 37 39 41 53 53 50 45 41 39 37 35 34 33 33 33
25 23 18 29 26 28 33 37 37 37 38 40 40 39 38 35 34 34 34 33 33 33 32 31 31 31 31 31 33 36 37 37 45 46 42 40 38 36 35 33 32 31 30 30
29 27 35 35 36 36 37 38 38 38 37 38 37 35 34 33 32 32 32 31 31 30 29 29 29 29 29 30 31 34 34 35 34 38 38 37 36 34 33 33 31 30 29 27
30 32 32 35 35 37 37 36 34 35 35 34 33 33 32 30 30 29 29 28 28 28 27 26 27 27 28 29 30 32 32 32 33 32 32 33 33 34 33 32 31 29 28 26
31 32 33 34 35 33 35 36 35 32 32 31 31 31 30 28 27 27 27 26 26 26 26 25 25 26 27 28 30 29 30 31 31 32 30 29 31 30 30 30 29 27 26 25
27 31 32 33 33 36 35 35 34 32 31 30 29 28 28 27 27 26 26 25 25 25 25 24 23 24 26 28 28 28 28 28 29 30 29 28 27 27 30 29 29 28 28 25
29 30 35 33 32 32 32 32 32 30 29 28 27 26 27 27 26 26 26 25 25 25 25 24 24 23 24 27 27 27 27 28 28 27 27 27 26 25 24 27 28 27 27 27
27 27 27 28 30 30 30 30 29 28 27 26 26 25 24 26 26 25 24 24 24 24 23 24 23 24 25 25 25 26 26 26 26 26 26 25 25 24 24 22 22 24 27 26
24 26 26 26 27 27 27 27 27 26 26 25 26 24 25 24 24 23 23 24 24 23 22 22 22 23 26 25 24 23 23 24 24 24 24 24 24 24 23 22 22 22 22 23
21 22 22 23 23 24 25 26 25 25 25 24 25 24 23 23 23 23 23 23 22 22 22 21 22 24 25 26 24 23 22 22 21 21 21 20 20 20 20 21 21 21 19 18
19 19 20 21 21 22 23 23 24 23 24 23 23 22 21 21 22 22 22 23 23 23 23 22 22 23 24 25 24 24 23 23 22 21 20 19 19 18 19 19 18 17 17 17
17 17 17 20 19 20 21 22 22 22 22 22 22 22 21 21 21 21 22 23 22 21 23 24 23 23 23 24 24 24 23 22 22 21 21 20 19 19 18 16 15 12 12 13
15 15 16 17 17 18 19 19 20 21 22 22 21 21 21 21 21 21 22 22 22 21 22 23 23 22 22 24 23 23 22 21 20 19 19 19 19 17 17 15 13 12 12 12
13 13 14 15 15 16 16 18 19 21 21 21 20 20 19 19 20 20 20 19 19 20 21 22 22 22 22 22 22 21 22 22 19 20 19 18 17 15 13 11 12 12 13 12
15 13 14 14 15 15 15 16 18 18 18 18 19 18 18 19 19 20 21 19 19 20 20 20 19 18 18 20 21 22 22 21 20 19 17 15 13 12 12 12 12 11 11 10
17 15 14 13 13 14 14 15 16 16 16 16 16 17 17 18 18 18 17 19 18 19 19 18 16 16 16 18 20 22 20 19 18 17 15 14 14 13 13 12 11 11 11 11
17 16 16 12 13 14 13 13 14 14 14 15 16 17 18 18 18 19 18 17 17 18 17 17 14 15 17 21 21 20 19 17 17 16 15 15 14 13 12 11 11 11 11 10
17 16 15 15 13 13 13 14 14 15 14 15 15 16 18 19 18 17 15 15 15 17 17 16 15 14 15 19 18 18 17 17 16 16 14 12 14 12 12 11 10 10 9 8
16 16 15 14 14 13 13 14 13 13 13 15 15 16 17 17 18 17 17 16 14 15 15 12 13 14 17 17 17 16 16 16 15 15 14 13 12 11 11 10 9 9 8 8
18 16 15 14 14 13 13 13 12 13 14 15 16 17 17 17 16 16 15 14 15 13 15 16 15 16 16 15 14 13 13 12 13 12 12 12 11 10 9 8 8 8 8 7
17 14 13 13 12 12 12 12 13 13 14 16 14 16 16 16 16 15 15 16 15 14 15 15 15 13 13 13 13 12 12 12 10 11 11 11 10 10 8 8 8 7 5 4

GFSNGP_sfc_dewp_123.txt.gz
Dewpoint
12 6 3 4 7 15 18 20 18 15 17 27 18 10 10 9 10 11 12 17 23 30 39 43 44 45 45 46 48 49 48 51 57 58 59 57 58 58 58 58 57 58 58 59
12 9 6 2 3 9 12 13 13 13 12 11 11 8 6 8 10 14 15 20 30 38 40 42 43 44 44 45 45 48 48 49 55 58 57 57 58 58 58 58 57 57 57 55
13 10 11 6 4 2 5 8 12 8 11 10 6 6 10 17 19 21 19 37 38 40 41 42 42 42 43 44 45 45 47 48 50 57 57 57 57 57 57 57 55 51 48 47
18 16 10 7 4 3 6 6 7 6 5 4 9 22 26 26 25 26 36 39 39 40 40 40 41 41 41 42 43 44 44 45 48 56 57 56 57 56 55 52 47 43 41 41
18 15 16 11 20 15 15 13 10 11 12 18 29 33 28 39 40 40 39 39 39 38 38 38 37 38 39 40 41 41 41 42 43 55 56 55 55 51 47 44 42 40 39 37
19 19 12 19 16 19 21 18 30 33 32 33 34 32 35 38 37 36 36 36 35 36 36 35 35 35 36 37 37 36 36 38 40 43 55 54 49 45 43 40 38 37 36 36
22 23 17 30 26 25 21 28 36 36 37 36 33 37 39 39 37 36 34 34 33 34 33 32 32 32 33 33 33 33 36 38 39 42 53 48 44 41 38 36 35 34 33 34
26 25 21 35 30 32 35 35 37 38 36 34 38 38 36 34 34 32 31 31 31 31 31 30 29 29 29 30 32 33 35 36 36 43 46 43 40 37 36 35 33 32 31 30
29 28 35 35 34 36 37 38 37 36 36 35 33 32 32 31 30 29 29 28 28 28 29 29 27 26 27 28 30 32 34 34 34 35 40 40 37 35 34 34 32 31 29 28
31 31 32 35 35 35 35 34 36 37 33 33 32 31 31 29 28 28 27 26 27 27 26 26 26 25 26 28 30 31 32 33 33 33 32 34 35 35 34 32 31 29 28 26
33 32 30 32 35 35 36 36 36 37 32 30 30 29 29 28 27 27 26 25 26 25 25 25 25 24 24 27 29 30 30 31 32 31 30 29 29 30 31 32 31 28 27 26
28 33 31 34 35 33 34 32 31 30 30 30 28 28 28 27 26 26 25 24 24 24 24 23 24 23 24 26 29 29 29 29 30 30 29 28 27 27 30 28 28 28 27 25
30 29 30 32 32 30 30 30 30 28 28 27 27 26 27 27 26 26 26 25 24 23 24 23 23 23 24 26 28 27 27 28 28 28 27 26 25 23 22 26 28 28 27 26
28 27 27 26 26 27 28 27 28 27 27 27 26 26 25 26 26 25 24 26 25 24 23 24 24 25 26 26 26 26 26 26 27 27 26 26 25 24 23 22 21 23 26 26
23 25 24 25 25 24 25 26 26 25 26 26 26 26 26 25 24 24 24 25 26 24 24 23 24 25 28 26 24 23 23 23 25 25 26 25 24 23 23 22 21 21 22 23
21 23 21 23 23 23 23 24 24 24 24 24 24 25 24 25 25 25 25 25 23 23 23 23 23 25 27 28 25 24 23 23 22 22 23 24 23 21 21 20 19 18 18 19
19 19 19 20 21 21 21 22 23 22 23 22 22 23 22 24 25 24 24 24 24 24 24 24 24 25 27 28 27 26 24 23 22 21 21 21 21 21 21 20 21 21 23 24
17 17 17 19 18 19 20 21 21 22 22 22 23 23 23 23 22 23 24 26 26 23 24 24 25 25 25 26 26 25 25 24 23 22 22 20 19 20 18 18 18 18 19 19
15 14 15 15 17 17 18 19 19 21 22 23 22 22 22 22 22 23 24 23 23 22 23 25 25 24 23 26 24 24 24 23 22 21 21 21 20 18 18 18 17 16 15 16
14 14 14 15 15 17 16 17 19 20 20 20 23 23 22 21 22 23 22 21 21 21 24 25 24 23 24 24 24 23 24 22 21 22 21 20 19 18 18 15 16 17 17 17
17 15 15 15 15 17 17 17 18 17 19 19 19 20 20 20 20 21 25 19 21 22 23 22 21 21 22 22 22 25 24 24 23 21 19 19 19 18 17 16 15 16 15 15
20 18 17 15 15 16 16 17 17 17 17 18 18 19 21 23 21 20 20 21 20 23 21 19 18 20 22 23 24 24 23 22 20 19 19 18 17 16 15 15 14 14 14 14
21 19 19 16 15 16 17 18 15 17 15 17 17 19 20 20 20 20 19 19 19 21 19 17 17 19 21 24 24 23 22 20 19 18 18 18 17 16 15 14 14 14 13 12
20 19 18 17 17 18 16 18 16 17 16 20 18 18 19 23 21 20 19 18 17 17 17 18 17 18 19 22 21 21 20 20 19 19 17 15 17 15 14 14 13 13 12 11
19 19 21 19 16 15 16 17 16 17 17 19 19 19 19 19 21 19 20 19 19 18 17 15 16 17 21 20 20 19 19 19 18 18 17 16 15 14 14 13 12 12 11 10
19 17 16 17 15 15 14 15 15 16 15 18 18 20 21 20 19 19 18 18 18 17 18 18 18 18 18 17 17 16 16 15 16 15 15 15 14 13 12 11 11 11 11 11
21 16 14 15 15 14 14 14 15 15 16 19 17 19 18 19 18 18 19 19 19 18 18 18 17 16 16 16 15 15 15 15 14 14 14 14 13 12 11 11 11 10 9 6

GFSNGP_sfc_dewp_126.txt.gz
Dewpoint
12 14 8 3 3 4 8 21 19 19 21 29 34 34 36 34 9 8 11 14 16 23 41 42 43 45 45 46 47 46 46 48 49 52 58 59 60 59 59 59 58 58 58 59
25 18 10 10 11 5 1 8 13 14 17 19 26 25 20 11 10 14 18 18 21 38 40 41 42 42 43 44 44 45 46 46 48 49 55 58 59 58 58 58 57 58 57 56
16 13 13 11 7 5 -1 2 6 10 14 17 13 20 27 27 26 25 23 32 38 40 40 41 41 41 41 41 42 43 43 44 45 46 51 57 58 58 57 57 55 51 49 47
18 17 11 12 21 17 5 5 6 5 7 20 30 30 32 38 38 39 39 39 39 38 38 39 39 39 39 39 40 40 41 42 41 42 45 54 58 57 55 51 48 45 43 41
19 13 12 12 26 19 16 13 29 30 31 32 32 31 34 38 37 36 36 36 35 35 36 36 35 35 36 37 38 38 37 37 38 39 41 46 52 53 49 45 42 39 39 38
20 19 12 28 29 29 24 17 37 34 34 34 34 30 34 38 38 37 35 34 33 33 34 33 32 32 32 34 35 34 34 35 37 38 39 43 50 48 45 41 38 37 36 36
25 22 25 31 31 28 23 27 37 35 35 35 33 35 37 36 34 35 34 31 31 31 31 31 30 29 30 30 32 32 33 34 36 37 39 42 47 43 40 37 35 34 33 34
23 20 17 33 28 26 30 35 35 35 36 37 36 34 32 31 30 30 29 28 28 28 28 29 28 28 26 28 30 31 32 33 35 36 38 46 42 40 37 35 33 32 31 30
28 26 34 34 33 35 35 34 34 36 37 33 31 30 30 28 28 28 27 26 26 26 27 27 26 25 25 26 28 30 31 32 34 35 35 37 38 37 35 34 33 31 30 28
29 30 28 34 35 36 36 35 36 37 34 32 30 29 28 27 27 26 26 25 25 25 24 25 25 24 25 25 28 30 31 31 33 33 32 32 33 35 35 33 32 30 28 27
30 32 28 30 36 35 36 35 32 30 31 29 29 28 28 27 26 25 25 24 23 23 23 23 23 24 24 25 28 29 30 29 30 30 30 28 28 29 32 32 32 30 28 26
27 33 32 32 35 31 30 29 29 27 28 28 28 27 26 26 25 25 25 24 23 22 22 24 24 23 24 25 28 28 28 28 28 28 28 28 26 26 29 29 30 30 29 26
30 29 35 30 28 26 26 29 30 27 26 26 26 25 25 25 25 25 24 25 24 23 23 23 23 23 25 26 27 26 26 27 27 26 26 25 25 24 23 27 28 27 27 26
25 25 25 24 25 25 25 25 27 25 25 25 26 25 24 24 26 25 24 25 27 24 24 23 24 25 26 26 25 24 25 26 26 25 25 25 24 23 23 21 21 22 26 26
22 23 23 24 24 23 23 23 24 23 24 24 24 25 26 25 25 25 25 24 25 24 24 23 23 24 28 26 24 23 23 24 25 24 24 23 23 23 22 21 21 21 23 25
20 21 19 21 21 21 21 22 22 22 23 22 22 23 24 26 24 25 25 25 23 22 23 24 23 25 27 28 25 24 23 23 23 23 22 21 20 19 19 19 19 19 20 21
18 18 17 18 18 19 19 20 21 21 21 20 21 22 22 22 24 24 25 27 23 24 24 24 25 26 26 28 27 24 23 23 22 20 20 21 21 20 20 21 21 20 21 22
16 16 15 17 16 17 17 19 19 20 20 21 23 24 23 23 23 23 24 26 25 22 24 25 25 26 26 26 26 26 24 22 21 20 20 19 18 19 18 18 18 18 19 20
15 15 15 14 16 16 16 16 17 19 21 21 21 23 22 23 23 24 23 21 20 20 23 26 25 25 25 26 25 24 24 22 21 20 19 18 18 18 17 17 17 17 17 17
16 15 15 15 15 17 15 16 18 18 19 20 19 21 21 20 21 21 25 20 22 23 23 24 26 25 25 26 24 23 24 22 21 19 19 18 18 17 17 17 16 16 16 16
19 17 17 15 15 18 17 18 17 17 18 19 19 19 20 21 20 19 22 20 22 25 23 22 23 24 25 25 25 25 24 22 20 19 19 18 18 17 17 16 16 15 14 14
22 20 20 17 17 17 19 19 16 19 16 18 17 19 21 23 22 20 19 21 21 23 21 20 22 25 26 26 25 25 22 21 21 20 19 18 17 16 16 15 14 14 14 13
23 21 20 18 17 18 21 20 16 19 15 17 16 17 19 20 19 19 17 18 19 21 19 19 21 23 24 26 25 24 22 20 20 19 18 17 17 16 15 14 14 14 13 13
21 20 20 21 20 21 17 20 18 20 17 20 20 16 20 20 21 21 21 19 16 17 18 20 21 21 22 23 22 22 21 20 19 18 17 16 16 15 14 14 13 13 12 12
21 22 23 19 16 15 17 18 17 18 17 22 19 20 19 19 19 19 21 20 21 18 18 18 19 20 22 22 21 20 20 19 18 17 16 16 15 14 13 13 12 11 10 10
19 17 17 20 18 15 14 14 15 18 16 18 19 21 21 21 21 20 19 19 19 18 19 20 20 19 18 17 17 17 17 17 17 16 15 15 14 13 12 11 11 11 11 9
23 19 15 17 16 16 16 17 16 16 16 16 18 19 20 20 19 19 19 19 19 18 19 18 18 17 18 17 17 17 17 16 16 15 14 13 13 12 12 12 11 8 6 5

GFSNGP_sfc_dewp_129.txt.gz
Dewpoint
23 22 20 18 15 10 10 13 21 18 20 24 29 34 36 36 35 31 23 28 35 40 42 41 42 43 43 43 42 43 44 44 46 47 47 48 52 58 60 60 60 60 59 59
22 22 22 14 14 12 12 10 8 15 16 22 29 35 35 34 36 38 38 39 39 39 39 40 39 39 39 39 40 41 42 42 43 44 44 45 50 54 59 59 59 58 59 59
17 17 18 15 20 19 19 11 16 16 30 31 31 32 37 37 36 36 36 35 35 36 36 37 36 36 36 37 38 40 40 39 40 41 40 41 43 46 58 58 57 54 52 51
19 20 11 22 28 28 28 31 32 30 30 31 32 34 37 36 36 35 35 34 33 34 35 34 33 33 34 35 37 37 37 36 36 36 37 39 41 45 53 54 52 48 45 43
15 18 16 23 25 28 30 28 33 33 30 32 33 34 35 35 37 35 35 33 33 33 34 32 32 31 31 33 33 34 33 32 33 34 35 37 39 42 46 48 46 42 40 38
25 19 15 23 27 24 26 24 32 35 32 32 32 28 32 37 34 32 32 32 30 30 31 31 30 30 29 29 30 30 30 31 32 34 35 37 37 40 45 46 41 38 36 36
23 21 24 28 27 26 19 21 34 35 34 34 32 34 36 32 31 30 28 27 27 28 28 28 28 27 27 26 26 28 29 31 32 33 35 37 38 40 41 39 37 35 34 34
20 8 11 32 26 22 29 33 34 34 34 34 34 32 30 29 28 28 26 25 25 25 25 26 24 25 24 24 26 26 28 30 32 33 35 35 39 41 39 37 35 33 32 31
27 26 33 35 33 35 35 33 34 35 35 34 31 28 28 27 27 26 25 24 24 23 23 24 23 24 23 24 25 26 28 30 31 32 32 33 36 36 35 35 34 32 31 29
27 30 29 33 35 35 36 35 34 31 30 29 29 28 28 26 26 25 24 23 23 22 22 22 23 23 23 24 25 26 27 29 30 30 30 29 31 33 33 33 32 32 30 28
27 30 29 33 35 34 33 31 30 28 28 28 28 27 25 25 23 23 23 22 21 21 21 21 23 24 25 24 25 25 27 28 28 28 28 27 28 29 31 32 32 32 30 28
25 32 32 33 33 32 28 29 30 27 26 26 27 25 25 25 23 22 22 23 23 22 21 21 22 24 24 24 25 24 25 26 26 26 26 26 26 26 30 30 30 30 30 29
30 30 35 32 29 26 26 28 28 26 26 26 25 25 24 25 25 23 23 22 24 22 23 22 22 23 25 24 25 24 24 26 25 25 24 23 23 24 23 27 28 29 29 28
28 25 26 25 25 24 25 25 25 24 24 24 24 24 26 25 25 23 23 21 23 21 21 22 22 23 26 25 24 23 23 24 23 23 23 23 22 23 23 23 22 24 27 27
22 22 22 23 21 21 22 23 22 21 22 22 23 24 24 25 20 23 17 19 19 18 19 23 23 23 26 25 23 22 22 23 22 22 21 21 21 22 23 23 23 23 25 26
22 19 19 20 19 19 19 20 20 20 20 20 21 23 23 24 25 22 21 21 18 19 20 21 22 24 26 25 23 23 22 22 22 21 20 20 20 20 20 20 20 20 20 21
18 16 17 17 17 17 17 18 18 19 20 19 20 22 22 22 22 20 18 24 16 20 21 21 23 24 25 25 23 23 22 21 21 20 19 20 20 20 20 19 19 18 19 20
17 16 15 17 16 16 16 17 17 18 18 19 18 17 18 12 17 19 16 17 17 17 21 23 24 24 24 24 24 22 21 20 19 18 19 18 18 19 18 18 18 17 18 19
16 16 15 14 16 16 15 15 15 17 16 17 13 16 18 10 13 15 17 13 17 18 20 23 25 24 24 25 24 23 21 20 19 19 19 18 18 17 17 17 16 16 16 16
17 17 16 15 15 17 14 15 16 16 14 17 11 11 12 15 15 17 18 13 17 22 23 23 24 24 24 23 22 21 20 19 18 18 18 17 17 16 16 16 15 15 15 15
18 18 17 15 16 14 10 9 8 11 8 11 8 12 15 18 14 13 16 17 20 22 21 21 22 25 25 23 22 21 19 19 18 17 17 16 15 15 15 14 14 14 14 13
21 13 13 10 10 9 9 11 11 7 4 5 5 8 13 16 16 14 16 16 19 19 19 20 21 24 24 23 22 20 20 19 18 17 16 16 15 15 14 14 13 12 12 12
13 12 10 8 7 14 14 15 6 7 3 6 5 7 15 19 13 13 12 16 18 18 19 19 21 22 22 22 21 19 18 17 17 16 16 15 15 14 14 13 12 12 11 11
10 10 13 17 8 10 9 9 10 16 6 17 7 6 13 15 14 16 18 17 16 18 19 21 21 20 18 19 19 19 18 17 16 14 14 13 13 13 13 12 11 11 10 10
12 13 12 10 13 10 9 9 13 12 10 19 9 15 15 15 11 13 16 18 19 19 18 18 18 17 17 17 16 17 16 15 13 12 12 13 11 10 10 9 8 8 8 7
13 14 12 18 14 10 10 10 9 8 9 11 11 7 7 11 16 16 13 14 16 17 17 17 17 16 16 15 15 15 14 13 13 13 12 11 9 8 8 8 7 7 5 3
20 15 15 14 12 12 11 8 9 7 5 1 13 7 14 15 13 14 15 13 12 13 15 15 15 14 13 12 11 11 13 14 12 11 9 8 9 9 8 5 3 1 0 -2

GFSNGP_sfc_dewp_132.txt.gz
Dewpoint
23 23 21 21 20 16 14 15 17 13 17 27 32 33 36 36 40 37 37 36 37 38 39 37 37 37 37 38 39 41 41 41 41 42 43 42 43 44 45 50 57 60 60 58
22 21 19 16 25 26 27 28 21 24 28 31 34 35 37 37 36 35 35 34 34 34 34 34 33 34 34 35 37 39 38 38 38 38 38 39 40 41 43 47 52 59 59 58
18 18 19 19 24 27 29 31 31 25 30 32 32 36 35 36 35 35 33 33 32 33 33 32 32 31 31 33 34 35 36 35 34 35 35 36 37 39 41 44 47 55 58 58
21 21 12 22 23 27 29 27 29 30 30 31 32 35 36 35 34 33 33 31 30 30 32 31 30 30 30 30 30 33 32 31 32 33 33 35 37 38 39 41 45 53 53 51
18 19 18 18 22 24 25 25 28 28 29 31 34 33 34 32 31 29 28 27 27 28 29 27 27 28 28 28 28 28 28 28 30 31 33 34 36 37 38 39 42 46 46 44
22 18 13 23 26 26 25 22 30 33 32 33 33 28 32 33 29 27 26 25 25 26 26 26 25 26 26 26 26 25 26 27 29 31 33 34 35 36 38 39 42 40 37 40
17 16 22 28 28 26 15 18 32 34 33 33 31 33 35 30 28 27 25 24 24 24 24 24 24 24 24 24 24 25 26 27 29 30 32 34 35 36 37 40 38 35 34 34
17 5 9 31 26 22 29 34 34 34 33 32 34 33 29 27 26 26 24 23 23 22 22 22 23 23 22 22 24 25 26 27 28 30 31 31 31 34 38 37 35 33 32 32
25 25 32 35 33 35 34 33 33 34 34 31 31 27 28 26 25 24 23 23 22 20 21 21 21 23 23 22 23 25 25 26 28 28 29 30 30 31 34 35 33 32 32 31
24 29 31 33 35 34 35 35 35 30 29 28 28 27 26 25 23 23 22 21 24 20 20 20 21 22 24 23 23 23 24 25 26 26 26 28 28 29 31 33 33 33 32 31
25 29 32 34 33 34 32 33 30 28 28 27 26 26 25 25 23 22 22 21 24 21 20 20 21 22 24 22 23 22 23 23 23 24 26 26 27 28 29 31 33 33 32 30
19 31 31 32 33 33 29 29 27 26 27 26 25 25 25 25 24 22 21 21 21 21 21 21 21 22 24 23 23 22 22 22 23 22 24 23 22 24 27 30 31 31 30 29
29 32 33 33 27 27 26 27 26 25 25 24 24 23 24 26 25 23 21 20 21 21 20 21 22 22 24 23 23 22 21 21 21 21 22 22 19 21 20 24 30 31 31 30
30 26 27 23 22 24 24 24 24 22 23 22 22 22 23 24 21 14 17 16 15 17 18 18 20 20 24 23 22 21 22 21 20 20 20 20 20 21 21 22 22 24 29 28
21 22 22 21 20 20 21 21 20 20 21 20 21 22 23 22 21 18 19 17 13 12 17 18 19 21 24 22 21 20 21 21 21 21 21 21 20 19 20 21 22 23 25 26
20 19 19 19 18 18 18 18 17 17 20 18 18 20 22 22 22 19 18 19 14 17 18 19 20 22 24 22 22 22 21 20 20 20 20 20 20 19 19 18 18 19 19 20
18 15 16 16 16 16 16 16 16 17 17 15 17 17 19 20 19 15 13 14 16 13 19 20 21 23 23 23 21 21 20 20 19 19 19 19 19 19 19 18 17 17 18 19
17 16 16 16 15 15 14 14 14 15 15 15 16 13 15 13 13 14 15 11 15 16 18 21 23 24 23 21 22 21 20 19 19 18 18 17 17 18 17 17 16 16 17 18
16 15 15 14 15 15 13 13 13 15 13 12 12 10 11 13 14 15 14 14 14 17 18 21 24 24 23 23 21 20 19 19 18 18 18 17 16 16 16 15 15 15 15 15
17 17 15 14 14 16 15 15 14 13 12 9 7 7 12 14 14 14 14 13 17 19 21 21 22 23 24 21 19 19 17 18 17 17 17 16 15 15 15 14 14 13 13 13
18 18 16 15 15 12 7 11 5 8 8 1 -0 4 9 12 9 8 12 14 17 19 20 20 21 23 23 20 19 17 16 16 17 16 15 15 14 14 13 13 13 12 12 12
15 12 11 8 8 8 7 8 10 4 1 1 1 1 9 13 10 9 9 12 16 17 18 19 20 21 21 20 19 16 17 16 16 15 15 15 14 13 12 12 11 11 11 11
11 10 7 4 5 6 5 7 6 2 1 5 1 4 7 14 11 8 7 13 17 18 19 19 20 20 19 19 18 16 14 14 15 14 13 13 13 13 12 11 11 11 10 10
9 8 9 8 4 8 6 3 5 7 4 9 7 3 6 7 6 15 16 14 13 16 17 19 18 18 16 16 16 16 14 13 11 13 12 12 11 11 10 10 9 9 8 8
10 9 10 11 9 6 5 5 8 6 7 9 6 10 13 13 8 11 7 12 15 14 15 17 17 16 16 15 14 13 12 10 10 10 8 7 6 7 7 7 6 6 5 5
13 11 11 10 8 6 7 7 5 1 2 5 7 6 2 4 10 13 11 8 11 11 13 14 15 14 14 13 13 13 12 11 9 8 6 5 5 4 2 2 1 1 -0 -0
15 13 11 9 9 8 7 4 4 3 0 -1 5 1 4 5 6 8 3 -0 3 9 11 13 13 11 10 10 11 11 11 10 7 7 6 5 5 2 -1 -2 -3 -4 -4 -4